GFSCGP_925_rhum_000.txt.gz
RH
10 12 18 16 13 11 10 9 9 12 12 12 11 12 12 12 11 13 13 14 14 22 28 29 29 28 28 30 28 37 41 35 33 36 32 34 36 33 35 36 36 34 36 40
9 16 14 12 11 12 11 12 12 12 12 12 13 12 13 14 15 15 15 18 23 25 25 27 29 34 37 37 40 42 39 34 31 33 34 34 35 36 33 37 36 37 38 39
19 17 13 13 15 16 14 15 22 19 15 13 13 15 16 15 15 16 18 18 20 23 26 28 33 37 36 35 33 35 37 39 36 32 34 35 35 35 38 40 41 42 44 44
17 15 16 16 19 20 19 20 20 18 18 19 12 20 18 17 19 20 21 22 21 20 21 24 33 38 39 38 37 37 36 34 36 33 36 39 40 43 45 49 52 50 42 37
20 20 20 21 22 20 24 21 20 20 20 18 16 20 22 17 21 23 24 23 24 26 27 30 32 37 41 42 40 38 37 37 39 41 43 45 50 55 53 46 43 39 41 39
19 16 21 22 20 19 20 22 21 21 23 42 19 22 37 23 23 24 25 26 26 26 28 28 32 36 40 41 41 38 36 35 40 44 45 46 43 44 42 42 42 44 41 40
20 22 21 19 24 21 19 23 42 52 53 49 24 22 32 24 23 23 26 26 29 30 31 29 29 32 36 37 38 38 39 37 35 36 38 39 40 42 43 44 47 46 44 46
24 38 23 20 24 25 24 25 52 54 59 40 20 20 31 24 23 23 24 24 26 30 31 31 30 32 34 35 36 39 42 41 39 39 41 40 42 43 46 47 45 45 46 46
29 32 22 22 21 21 28 34 22 41 50 54 23 28 26 23 24 23 24 24 25 27 29 28 28 31 33 35 34 37 40 43 40 41 42 42 44 47 47 44 43 43 46 52
23 36 22 20 22 24 24 21 37 44 60 51 28 26 43 30 26 23 23 23 24 26 27 32 29 30 32 35 38 40 41 46 46 43 42 46 48 46 45 44 42 49 55 55
24 30 28 24 29 29 28 30 28 24 41 52 52 31 21 25 24 25 25 24 27 29 30 30 32 35 37 40 40 45 49 51 50 48 48 48 46 44 44 44 53 55 60 61
28 33 55 25 24 23 24 27 26 60 48 63 66 48 22 24 29 28 28 29 30 34 35 34 38 41 40 44 48 49 56 56 54 56 53 49 44 43 44 52 53 51 56 60
34 43 55 36 35 27 26 26 25 41 57 56 81 52 24 39 30 26 27 31 35 36 35 37 40 41 40 41 45 47 48 51 55 57 54 49 46 46 47 47 46 50 50 51
46 30 41 48 29 23 27 23 22 25 63 55 54 36 29 32 33 28 29 35 36 37 42 44 44 43 40 40 40 40 38 50 56 58 52 49 48 44 44 42 42 42 41 37
35 51 43 36 27 24 24 24 24 25 30 45 39 31 27 30 31 42 42 41 41 45 46 47 47 43 39 38 35 33 33 37 51 62 55 52 47 45 43 45 41 40 34 32
41 75 78 64 28 27 34 28 26 24 23 26 29 31 26 38 39 44 46 47 51 49 48 44 42 38 34 33 29 27 28 30 40 41 46 48 48 45 48 49 43 38 32 31
80 86 71 73 58 67 80 58 29 26 24 29 46 34 37 44 45 44 49 51 52 48 46 46 38 32 29 26 24 24 25 26 33 36 38 48 75 69 73 54 46 38 33 32
97 91 92 91 89 82 36 25 26 30 26 26 26 35 43 47 45 41 51 54 49 49 46 38 29 28 28 26 24 24 25 27 28 30 35 60 68 68 56 51 53 41 33 35
61 87 91 98 67 50 41 35 39 44 46 32 44 48 50 49 45 48 47 46 45 42 34 26 25 26 24 23 25 27 29 29 30 30 45 52 65 51 55 53 56 41 34 35
64 94 87 93 92 76 46 32 33 36 61 50 55 61 63 53 78 57 47 44 36 28 24 24 24 22 21 24 26 27 29 30 35 58 61 57 51 50 54 58 48 33 36 41
90 82 88 86 86 72 37 32 36 66 75 64 69 64 63 66 68 58 42 34 26 25 23 23 20 21 24 26 27 30 30 31 47 57 66 75 76 54 47 45 32 36 38 40
82 93 94 87 86 85 38 38 68 67 66 68 63 62 64 60 60 40 32 28 25 24 22 20 21 23 26 27 29 33 34 41 56 65 66 66 57 51 42 34 39 37 38 51
55 65 71 69 72 45 41 48 53 72 70 67 70 58 54 55 45 35 32 28 26 23 21 22 23 26 27 30 32 36 40 46 54 59 56 54 45 42 42 43 39 40 46 56
35 28 74 65 44 38 42 46 62 63 64 56 55 55 52 44 37 33 30 27 25 23 24 25 28 27 29 32 36 42 48 55 59 55 57 52 46 49 48 44 42 47 54 64
58 38 47 52 42 41 54 61 62 63 56 57 52 50 37 34 32 30 28 26 26 26 27 29 28 29 35 36 41 52 58 64 63 64 61 56 58 57 53 51 51 52 62 65
47 46 64 73 50 61 65 62 58 61 58 51 49 37 33 31 30 26 28 28 27 29 28 29 32 38 39 44 51 56 59 65 76 76 72 69 62 60 58 57 59 62 66 74

GFSCGP_925_rhum_003.txt.gz
RH
18 26 26 17 14 13 14 15 21 18 13 13 14 19 19 21 22 26 37 40 39 39 39 46 39 36 40 47 48 51 45 35 41 37 35 34 33 34 36 35 33 32 32 34
16 25 16 15 14 16 13 19 26 17 14 13 14 19 22 22 26 28 35 36 38 40 42 43 40 38 41 37 36 38 38 34 35 36 35 33 33 32 30 30 34 40 45 45
27 18 14 15 24 24 23 27 26 23 19 16 16 23 25 24 24 24 27 30 34 39 45 45 46 40 38 37 37 35 33 32 34 33 31 30 32 34 40 45 47 43 42 41
21 16 19 19 25 25 32 27 25 23 25 29 18 36 27 28 31 30 31 35 37 40 44 45 47 43 41 39 37 35 33 30 30 33 34 39 49 53 51 43 41 47 41 38
24 27 29 29 25 23 30 23 25 24 28 26 26 38 28 28 36 35 35 35 40 43 45 50 46 43 42 40 38 37 36 36 36 35 38 43 47 40 42 46 49 42 40 34
22 22 24 25 22 20 22 28 31 29 35 57 34 41 53 48 36 36 37 38 39 41 43 43 42 42 41 38 36 35 34 34 34 35 42 42 38 41 49 43 42 41 37 39
26 28 23 21 29 25 28 38 70 64 78 66 40 40 61 37 31 35 42 44 44 44 43 44 44 43 39 37 36 37 39 38 36 37 40 37 44 42 44 43 41 39 42 41
40 53 28 26 28 28 34 35 68 62 82 57 26 45 45 32 31 32 32 37 40 40 41 42 36 37 36 35 35 39 38 39 39 39 41 40 44 45 46 47 43 40 40 48
47 38 26 23 22 27 34 43 24 57 64 68 45 38 32 30 31 30 28 26 40 43 42 36 35 36 40 40 39 40 41 43 39 37 38 43 47 55 65 58 42 48 55 56
28 42 25 21 24 26 29 23 53 63 61 61 45 49 61 44 41 30 30 37 38 40 43 45 43 44 41 44 47 46 48 49 47 46 50 53 52 58 59 53 55 56 54 49
40 46 33 25 35 38 37 39 36 38 62 74 81 52 39 41 39 40 40 43 47 47 48 50 45 43 44 44 43 43 44 46 51 52 50 50 48 46 46 51 54 53 49 45
32 50 65 35 26 24 26 34 42 76 63 83 86 62 40 40 37 37 39 43 45 45 48 48 46 43 40 39 38 38 41 47 50 50 54 56 50 45 44 48 50 47 46 47
45 56 74 55 44 34 29 28 47 63 68 58 83 74 38 42 38 35 47 46 47 51 54 55 50 46 41 37 36 35 32 38 35 47 56 57 55 53 49 47 44 44 43 41
52 44 52 71 40 34 30 28 32 57 84 70 72 49 38 52 50 54 54 52 55 57 55 55 53 46 39 35 31 24 22 24 26 37 56 56 61 66 47 50 55 46 42 34
51 70 61 48 39 35 30 31 31 32 43 59 51 48 57 57 56 55 55 56 56 57 54 53 52 44 37 26 24 23 23 22 25 30 40 49 50 61 67 72 59 69 48 32
71 90 74 58 51 51 48 45 42 36 33 34 34 55 51 50 51 56 61 61 59 56 54 52 48 40 30 27 26 26 27 29 29 31 33 34 62 74 77 75 79 57 34 29
90 95 89 87 78 84 73 47 46 34 34 32 49 54 58 61 60 72 69 61 60 60 56 53 47 31 28 27 27 28 28 30 32 34 42 60 69 78 82 93 71 47 40 32
97 94 96 92 85 71 54 36 36 43 43 48 58 62 62 62 65 66 60 59 58 53 52 48 34 25 25 26 26 28 30 31 33 42 56 60 60 71 88 82 60 47 42 33
78 94 95 95 94 62 49 38 44 49 58 64 73 70 65 58 54 63 55 50 48 47 37 28 23 23 24 26 27 29 32 34 38 59 59 62 61 62 67 78 56 50 35 35
87 91 91 97 94 79 60 44 43 43 78 74 74 77 72 64 92 78 62 51 42 29 28 24 22 22 25 27 29 32 36 38 49 61 64 64 67 68 64 72 56 47 34 38
98 92 93 97 87 80 61 40 41 76 72 85 79 75 73 79 83 71 67 40 30 28 25 22 23 25 27 28 31 36 39 41 51 58 59 65 63 65 61 57 42 35 38 53
87 96 92 90 87 87 49 44 60 72 79 88 78 72 71 65 66 66 38 36 31 29 24 24 26 28 28 31 36 39 43 48 51 55 57 57 54 46 49 42 38 39 49 51
72 83 91 81 81 59 53 57 81 83 86 82 75 65 60 65 55 39 39 36 32 26 27 29 29 29 31 36 38 41 51 55 57 59 60 59 50 48 46 47 45 46 49 56
51 51 78 68 54 47 67 74 75 76 81 77 74 62 59 63 38 38 40 35 32 30 30 29 30 33 39 39 40 48 54 57 57 64 64 60 61 57 55 50 50 52 58 61
70 57 55 68 54 64 75 78 76 72 67 69 57 56 56 35 39 37 40 35 34 34 33 36 41 45 46 44 52 57 58 57 58 65 66 67 66 62 60 58 57 67 66 70
64 62 80 81 65 73 85 79 69 68 64 64 66 44 36 33 39 34 36 38 39 39 42 45 50 51 51 57 62 60 66 60 61 66 70 70 71 66 69 71 73 71 67 68

GFSCGP_925_rhum_006.txt.gz
RH
21 24 24 17 17 16 16 19 24 19 15 13 23 31 30 41 47 47 50 56 54 52 48 54 56 60 69 72 69 64 60 59 46 41 40 38 36 35 36 38 38 40 42 42
25 24 17 17 22 23 21 25 26 20 17 15 26 31 35 40 44 44 49 53 54 52 48 50 49 44 44 43 42 41 44 44 42 43 38 35 36 37 40 44 46 45 43 41
28 20 16 23 27 28 34 30 25 23 20 20 26 32 38 34 36 37 42 49 52 53 54 52 50 40 36 36 35 34 36 36 36 34 33 34 34 38 42 44 45 45 42 39
21 22 24 27 27 27 36 27 26 24 27 23 21 44 33 40 42 43 49 54 54 54 53 51 50 44 39 38 36 34 33 32 32 32 32 33 40 47 45 44 49 46 40 37
29 29 31 30 25 24 31 24 25 25 31 31 28 44 38 38 44 46 51 53 58 56 56 58 51 42 40 38 35 33 34 34 34 34 36 39 44 40 43 51 46 42 38 36
25 23 24 24 25 22 22 28 40 39 44 58 38 49 52 49 42 43 46 50 52 56 57 52 45 42 39 37 36 35 36 37 36 37 39 42 41 44 51 44 42 42 42 39
31 30 25 25 31 29 31 48 69 63 73 65 43 59 54 40 37 45 52 51 50 53 59 57 49 42 37 36 38 38 38 40 40 39 44 47 48 46 44 55 59 51 44 46
44 53 30 25 27 29 32 43 67 64 72 54 41 56 48 39 44 43 41 47 47 49 53 56 49 47 46 49 48 46 47 44 46 46 46 47 49 54 60 61 63 60 59 58
46 40 27 23 23 30 34 38 34 59 68 64 56 42 34 34 35 32 32 38 48 52 52 52 52 51 50 49 49 48 47 46 43 42 46 49 49 52 52 51 59 59 56 54
33 41 27 22 29 30 24 27 52 65 56 64 54 52 56 47 42 40 50 55 56 56 55 55 52 51 47 41 39 40 46 49 51 50 51 48 51 50 49 49 52 55 54 49
42 41 37 36 36 37 40 41 45 50 67 72 79 58 44 49 47 53 55 54 56 59 60 59 52 46 40 39 39 40 38 44 42 40 45 49 53 54 50 56 56 54 52 54
40 52 64 36 27 26 28 37 49 70 58 86 85 61 37 45 47 50 51 53 54 58 59 57 51 44 41 40 32 24 25 26 26 28 42 55 58 56 50 57 57 64 54 48
40 55 71 58 50 39 34 33 56 62 68 58 77 60 42 49 49 51 57 59 63 63 61 59 51 46 41 27 23 24 24 26 26 25 27 31 33 42 64 63 58 50 47 66
52 61 53 71 48 41 30 30 49 54 78 67 70 45 57 62 64 64 66 68 67 62 59 57 54 48 30 26 27 27 26 27 26 26 28 36 46 55 74 56 62 66 94 73
56 62 56 43 45 40 35 37 38 41 51 60 52 56 66 65 67 66 66 64 60 60 57 54 55 45 30 30 28 27 26 27 28 30 34 49 56 59 63 67 74 75 62 64
76 75 73 49 63 68 48 47 48 44 36 40 65 73 60 61 69 71 66 64 63 59 56 53 49 36 32 30 28 26 27 29 32 34 45 49 54 63 72 78 79 75 79 46
87 91 78 72 88 79 63 43 46 39 52 39 55 69 66 73 76 74 68 63 62 56 55 54 47 32 30 28 27 27 28 31 34 40 53 52 56 64 66 80 86 87 68 72
97 93 93 75 72 56 52 45 42 69 66 68 70 70 66 72 74 67 60 61 61 57 52 48 29 28 26 26 26 28 31 35 38 45 50 56 61 60 69 77 75 87 75 58
74 90 99 73 90 50 46 43 46 45 78 70 75 74 67 72 67 64 59 55 52 47 36 31 25 25 26 26 28 31 33 37 40 46 55 59 61 66 68 71 68 67 72 41
88 85 80 99 62 53 50 47 46 45 75 76 77 80 74 68 91 79 66 58 46 32 31 26 25 25 27 28 29 33 38 41 43 51 55 55 59 61 60 60 70 64 43 47
98 94 91 98 88 78 54 52 44 71 61 83 80 82 81 83 79 67 65 56 33 32 28 26 28 29 29 32 36 39 40 43 48 54 55 58 58 57 50 50 44 44 49 59
82 93 97 98 96 82 54 50 61 63 83 86 84 80 80 75 69 68 55 36 36 31 30 29 30 31 34 37 39 39 42 48 53 54 56 62 58 53 54 50 49 48 54 56
62 70 83 77 78 56 54 54 62 80 86 89 83 76 72 70 67 46 44 41 35 32 31 32 34 38 41 41 42 44 46 53 55 56 58 61 60 62 57 56 50 55 57 61
59 66 85 74 59 64 58 79 83 81 83 84 76 74 68 64 47 47 44 41 36 35 36 40 43 48 50 49 52 58 61 63 62 60 61 62 65 66 63 64 57 61 64 68
65 60 64 75 60 73 76 76 85 82 80 79 73 71 66 45 44 43 43 42 40 42 45 46 48 55 57 61 65 64 71 68 71 64 64 63 67 70 69 63 71 71 68 71
71 62 78 66 59 62 71 85 79 80 76 73 69 42 38 38 44 40 46 44 46 50 44 45 55 59 64 70 64 66 81 75 84 78 76 71 67 72 75 72 72 71 68 70

GFSCGP_925_rhum_009.txt.gz
RH
22 24 21 19 18 17 16 20 21 22 16 33 40 49 60 58 62 67 63 63 63 65 62 66 73 84 81 79 78 72 78 59 55 44 48 50 40 41 42 44 46 45 44 40
25 24 19 24 26 21 24 24 26 23 24 35 46 50 51 51 59 64 62 60 60 59 56 56 53 60 61 62 59 54 54 46 50 49 41 40 40 42 49 48 46 45 42 40
26 20 18 24 30 30 34 28 25 26 31 34 39 47 43 40 49 55 61 62 58 59 63 59 50 46 48 47 39 38 38 39 40 41 33 36 39 44 48 45 44 43 40 38
26 30 26 28 28 30 34 28 25 28 36 44 32 64 41 46 56 60 62 63 64 58 57 53 48 42 37 35 32 30 31 32 32 32 33 33 34 41 49 49 46 42 39 38
31 29 31 29 26 26 31 26 26 26 34 34 36 54 49 48 60 62 62 61 58 56 58 58 49 40 37 35 35 34 35 35 35 35 37 40 44 49 54 48 43 52 46 46
28 25 25 26 25 25 24 34 44 50 47 58 39 52 56 56 53 56 53 56 56 62 63 57 48 44 43 45 42 40 41 43 40 41 43 46 52 53 47 55 56 58 56 60
33 32 29 26 30 28 35 45 65 60 72 67 47 55 59 44 44 49 54 58 60 64 64 60 54 53 50 46 45 46 45 46 48 47 48 49 48 45 46 45 50 50 48 61
46 53 30 26 28 31 36 44 68 58 75 53 46 58 52 44 48 47 49 53 56 63 61 62 60 57 52 47 45 43 43 44 44 44 45 45 46 47 48 51 49 47 48 62
45 40 29 24 24 31 34 43 39 69 72 68 62 45 39 44 52 46 50 53 62 61 62 64 60 55 50 46 47 49 49 49 49 47 49 49 51 52 54 55 53 56 61 65
38 38 30 25 29 30 29 35 51 67 56 65 60 56 63 48 50 44 52 64 66 64 63 66 60 49 42 41 44 44 50 50 38 38 42 50 58 61 61 57 53 60 61 56
43 38 37 34 37 38 41 41 51 58 70 71 81 69 47 50 49 60 68 66 64 67 66 65 55 45 43 40 34 34 29 26 25 25 25 25 27 26 33 54 58 58 58 58
43 53 65 38 34 34 31 40 47 65 58 87 84 62 44 54 57 59 62 65 68 66 64 57 50 46 42 27 27 25 26 25 26 26 25 27 31 32 36 56 69 64 66 63
40 57 71 60 50 38 35 42 57 60 70 73 73 56 50 52 57 57 67 68 69 66 64 59 52 47 31 30 28 27 26 26 25 24 25 27 30 34 38 45 64 65 57 49
55 62 52 67 50 44 32 35 50 50 73 64 70 47 64 66 68 71 73 72 70 66 60 58 56 42 33 30 28 27 27 26 25 25 26 30 35 42 47 54 57 55 58 71
55 55 55 52 57 43 39 35 50 55 53 60 52 57 58 72 75 76 73 71 66 63 58 56 57 42 33 30 28 27 26 26 26 28 31 35 41 48 56 57 62 76 78 80
68 78 68 58 68 69 46 41 46 47 43 54 61 72 65 67 75 74 71 68 66 57 53 50 49 40 33 30 27 26 26 27 30 32 35 40 45 51 56 65 74 89 90 85
81 92 63 51 84 70 50 51 48 41 48 53 77 66 72 80 76 77 74 69 65 57 53 52 52 35 31 28 26 27 27 30 33 36 41 46 55 59 60 64 75 78 72 78
97 94 87 74 72 45 37 46 48 48 64 68 72 73 70 74 74 71 68 67 65 59 57 56 44 30 29 28 28 27 29 33 37 40 48 53 54 53 59 69 73 76 76 77
74 90 97 71 78 47 34 53 67 55 60 71 75 73 69 76 70 70 66 61 62 60 51 40 30 27 28 28 27 30 33 38 41 40 47 53 56 61 69 65 63 71 74 71
81 83 74 97 54 43 36 51 46 45 70 77 74 79 80 79 94 82 68 61 59 51 35 34 29 28 27 29 33 37 39 39 40 43 51 54 59 65 61 55 55 51 45 51
98 96 82 99 78 69 50 50 44 64 54 80 76 77 81 82 78 63 72 70 52 35 30 30 30 32 34 37 40 39 42 43 42 47 53 57 59 59 56 56 53 52 52 60
87 93 98 96 95 63 53 53 62 61 71 77 82 82 79 72 70 73 74 44 35 34 32 31 32 35 39 41 39 48 49 48 50 55 58 59 60 61 60 59 51 50 61 59
70 65 78 72 73 53 53 54 54 70 78 86 84 81 76 79 77 72 51 44 36 34 35 37 40 42 40 45 56 58 63 64 67 68 66 65 64 65 64 62 55 58 60 61
68 68 81 70 53 62 59 60 74 82 78 85 80 78 78 74 64 49 47 43 39 38 41 42 43 47 52 51 63 64 58 63 77 68 72 72 72 68 68 65 61 62 65 68
70 70 68 79 67 69 70 77 77 83 83 83 78 75 72 66 50 44 46 45 42 43 45 42 49 56 56 60 70 68 70 80 83 73 81 79 93 77 72 64 70 75 72 69
74 64 78 71 57 64 59 67 82 88 87 81 76 60 47 41 43 43 49 44 44 49 47 50 54 59 61 71 76 78 80 89 95 99 99 98 99 85 79 76 74 72 71 73

GFSCGP_925_rhum_012.txt.gz
RH
23 26 24 19 18 14 17 17 19 20 22 51 63 67 69 76 77 77 78 79 76 75 68 82 85 89 89 89 84 81 78 79 67 55 58 50 46 46 44 45 45 44 43 41
26 25 20 25 26 25 24 27 27 29 34 52 56 58 54 57 66 70 74 75 73 68 66 64 71 69 70 71 76 78 62 50 52 50 50 48 44 48 47 47 45 43 41 39
27 21 23 26 31 31 33 28 27 32 43 46 48 55 55 52 63 64 67 63 63 67 68 61 57 57 54 52 54 50 50 45 47 43 35 37 40 47 56 51 44 43 41 39
32 29 27 29 29 31 30 29 28 41 41 51 40 73 49 55 64 65 64 66 68 63 58 52 46 41 39 40 37 36 36 37 36 35 35 36 40 48 57 48 43 47 48 47
32 29 31 30 27 28 32 32 29 29 37 37 42 65 54 60 68 70 70 68 66 60 56 51 45 41 40 39 39 40 39 38 39 39 40 43 50 53 53 47 54 51 47 45
32 27 28 27 28 26 28 37 46 52 50 56 41 53 60 69 64 65 62 65 65 63 59 57 53 48 47 42 40 40 42 45 45 46 48 50 52 51 48 47 46 49 52 51
35 33 30 28 31 30 41 45 65 61 72 69 49 55 52 50 54 58 61 64 64 64 67 65 59 57 53 51 51 49 48 45 46 47 47 46 45 46 48 50 53 58 53 50
47 50 30 26 29 34 38 44 66 57 78 60 48 60 53 45 46 52 55 60 66 66 67 65 64 56 49 47 46 46 47 49 50 52 54 55 57 58 58 59 59 59 56 55
46 40 29 26 27 32 37 44 43 71 70 68 65 49 46 58 57 56 56 60 70 73 74 73 66 58 53 52 52 50 49 43 38 37 32 35 44 46 41 36 44 55 56 61
41 38 33 27 30 34 31 39 48 68 54 64 65 60 67 59 61 58 60 66 72 71 73 72 60 54 52 50 54 52 36 26 24 23 23 23 22 22 23 26 30 36 62 74
39 39 38 34 39 40 41 44 56 59 70 69 81 69 53 57 55 57 63 70 72 72 74 66 56 50 44 40 36 30 25 24 25 24 23 23 24 23 22 23 26 52 66 67
44 55 64 38 36 40 34 40 45 62 48 87 84 62 45 56 52 62 71 70 73 71 67 60 52 44 32 29 26 25 26 26 25 24 24 25 26 30 31 34 38 51 65 62
42 58 73 53 44 37 36 51 57 60 73 73 79 59 56 64 66 66 77 76 74 72 67 62 54 46 33 29 27 28 28 26 24 24 26 29 32 34 37 42 48 53 56 63
54 60 50 60 45 47 36 46 50 48 72 65 72 43 59 64 70 79 80 77 74 70 65 63 57 44 34 30 29 30 27 25 25 27 30 33 35 40 44 47 54 64 76 78
50 54 54 60 62 48 40 36 55 51 49 54 49 54 46 65 71 78 77 76 73 69 64 63 60 45 33 34 33 29 26 27 27 31 33 36 39 44 48 50 56 65 74 80
64 70 60 62 70 68 50 44 46 51 48 60 55 59 58 70 81 81 76 75 73 68 60 57 55 44 37 35 30 28 28 27 30 33 36 38 43 49 50 50 59 67 81 78
71 88 57 44 76 62 50 47 50 47 49 50 63 49 79 79 80 79 81 74 72 65 55 54 52 48 38 32 29 29 26 28 32 36 38 39 49 53 52 58 68 70 77 78
95 87 80 71 68 43 36 43 45 49 52 62 61 65 74 72 76 74 72 73 73 63 53 53 51 46 35 31 31 28 29 32 36 38 40 42 52 55 58 66 66 60 66 81
70 86 94 69 74 45 29 57 64 58 49 72 67 73 74 79 71 71 71 69 67 64 54 49 42 39 30 30 29 30 33 36 39 39 41 45 55 57 58 61 59 55 69 67
79 81 71 91 53 42 36 43 48 43 70 70 71 78 82 76 90 69 71 70 63 54 51 38 35 30 30 32 35 39 40 40 42 45 47 52 56 59 60 58 57 55 52 51
98 98 76 99 75 63 46 47 45 63 56 79 72 75 87 81 75 65 68 68 58 50 33 30 31 32 34 39 42 38 46 51 56 56 56 59 62 64 61 62 60 56 59 66
90 94 96 96 88 53 49 49 60 59 57 73 78 79 76 73 73 75 74 60 38 36 34 33 33 38 42 40 42 53 59 63 56 59 68 69 68 71 63 66 61 57 61 71
71 64 75 66 67 48 50 57 53 59 60 74 78 80 72 81 77 77 60 44 39 35 36 39 40 40 38 43 53 66 61 59 62 71 71 71 77 74 74 71 68 62 63 61
71 65 78 66 48 61 61 56 62 68 70 69 80 81 80 80 81 67 46 44 40 40 41 40 40 43 48 50 57 70 67 71 74 86 85 87 81 86 74 69 66 64 63 68
73 70 69 77 68 65 64 73 66 72 78 80 82 80 79 79 66 50 45 45 41 42 43 41 46 54 56 59 66 74 78 85 89 97 94 94 99 96 92 72 66 71 77 72
75 64 79 75 52 50 51 48 68 80 84 86 83 83 71 63 50 45 51 46 47 46 46 47 54 60 62 69 75 77 88 93 90 81 83 85 96 100 97 86 78 75 72 72

GFSCGP_925_rhum_015.txt.gz
RH
24 21 19 20 16 13 16 17 18 24 35 49 60 58 59 60 59 60 60 61 62 63 77 88 95 93 92 91 89 87 85 82 74 61 53 53 51 50 45 44 44 44 42 40
23 26 22 26 26 24 24 26 33 36 41 46 50 58 58 57 63 62 61 63 62 67 71 81 86 89 89 83 79 79 78 69 57 55 53 50 48 48 47 46 45 42 41 40
27 23 24 27 30 32 33 29 31 36 44 43 44 50 59 59 61 63 63 61 63 67 72 72 78 85 91 91 78 58 55 54 53 50 43 43 48 55 57 52 46 43 43 46
32 30 26 28 31 30 35 30 38 45 37 38 37 30 55 62 65 64 62 62 62 61 58 58 61 65 67 63 58 54 51 48 44 42 42 44 54 59 61 48 44 47 50 51
33 30 30 32 30 30 35 33 33 31 32 34 40 37 48 61 66 63 59 59 58 53 49 45 47 50 49 44 43 43 43 44 45 45 46 48 50 49 48 47 50 52 55 54
33 28 29 29 34 31 39 37 40 44 40 41 38 36 43 63 58 57 56 57 55 50 48 48 51 52 55 50 49 48 47 47 46 45 43 42 45 47 52 58 62 64 57 55
34 34 29 29 33 33 34 38 48 51 57 47 47 47 36 41 47 49 54 52 53 51 52 52 51 54 60 62 54 49 48 50 47 47 46 46 49 53 59 64 63 56 58 66
37 34 29 28 31 34 40 38 55 57 60 49 46 54 37 41 38 44 45 48 54 54 57 54 57 56 57 58 55 54 54 55 44 39 33 30 31 34 26 20 25 39 49 56
45 40 29 28 30 32 39 37 42 60 63 56 46 43 38 49 44 50 52 53 54 55 57 56 57 58 57 56 53 45 48 37 26 23 23 22 21 21 20 19 20 22 21 44
42 40 34 30 32 36 33 38 43 48 52 50 43 52 41 55 48 50 54 53 55 58 59 57 58 61 62 60 52 38 28 25 25 24 23 22 23 22 22 22 24 28 32 56
37 40 40 37 38 39 40 43 52 47 55 43 49 35 45 45 45 48 48 51 57 59 60 57 54 57 58 62 48 28 28 27 26 24 23 24 24 25 26 28 32 40 41 55
45 52 54 38 36 40 36 41 42 48 46 66 64 40 38 47 45 49 49 56 58 58 58 51 51 50 49 42 35 29 28 33 29 24 25 27 27 29 32 37 42 45 54 60
45 54 60 45 36 36 39 48 48 55 65 68 76 36 44 56 52 48 49 59 63 61 54 50 50 39 36 31 30 28 36 42 27 27 27 29 32 34 40 47 48 49 62 76
52 53 49 49 39 44 44 52 46 43 56 55 60 40 37 50 56 59 62 63 60 58 54 50 48 41 36 32 29 44 50 34 29 28 28 32 36 39 45 47 52 63 67 82
47 50 54 59 58 51 41 44 49 41 44 50 43 45 36 40 49 57 63 63 61 58 56 53 49 43 35 33 43 48 41 30 29 28 31 34 38 43 47 48 53 64 65 82
58 62 58 65 64 60 52 44 44 51 51 44 48 47 39 48 56 65 66 64 62 59 54 50 50 45 38 36 43 42 32 30 29 30 34 36 40 45 49 52 58 71 78 78
63 78 54 48 64 52 51 47 43 47 46 44 52 37 58 62 64 59 65 62 61 58 54 51 51 48 40 40 38 35 32 29 29 33 35 39 41 43 51 55 67 69 75 77
78 67 64 62 66 48 33 46 41 43 44 41 47 48 55 58 65 62 59 62 61 58 52 50 51 50 50 43 36 34 31 30 33 36 40 42 44 48 55 60 67 69 67 78
61 72 78 70 57 43 27 40 54 56 37 45 46 52 67 70 65 63 61 58 57 57 52 48 49 49 41 33 33 31 33 37 39 41 44 48 50 59 69 69 67 66 66 65
69 74 65 74 51 48 34 32 52 44 59 44 55 66 74 65 76 50 60 62 62 60 56 52 42 35 32 33 34 37 39 37 48 56 59 60 63 71 74 74 68 66 72 65
96 93 71 79 69 57 40 44 47 51 45 60 63 64 72 68 61 56 63 65 58 56 41 35 33 36 37 40 40 37 39 51 58 55 54 68 73 73 75 76 69 68 68 64
70 82 82 84 73 57 44 51 59 54 52 58 66 65 70 62 66 63 66 57 47 38 39 38 42 44 42 37 34 44 54 58 56 65 76 80 76 77 79 78 75 68 69 79
66 63 66 59 62 46 46 58 52 57 55 55 66 63 63 72 65 68 61 44 38 37 39 40 40 39 35 40 44 58 66 65 67 79 85 89 91 85 83 84 74 73 73 76
68 61 68 63 46 54 52 49 52 50 57 56 61 60 70 68 69 67 46 40 37 38 41 45 39 43 48 46 52 61 72 72 79 89 93 96 93 96 90 87 74 71 75 74
67 66 68 71 61 55 51 56 54 55 63 67 67 71 72 71 72 54 44 44 45 48 57 46 45 50 54 54 60 67 71 75 92 93 80 78 82 88 95 99 79 72 71 77
69 62 73 71 47 47 47 42 53 63 65 68 75 79 75 67 59 45 49 53 59 75 54 50 52 55 59 63 70 69 72 88 92 95 89 85 94 90 97 99 88 78 79 75

GFSCGP_925_rhum_021.txt.gz
RH
20 20 21 14 13 11 10 10 8 9 11 9 9 13 15 17 19 22 22 25 28 30 31 41 43 44 43 50 58 82 87 94 93 76 69 67 59 56 53 49 53 53 52 51
19 19 14 11 11 10 9 10 12 12 12 15 11 13 14 17 18 20 21 23 25 28 34 41 48 50 50 56 61 78 79 83 73 60 53 51 49 45 44 49 54 51 51 51
21 19 17 14 12 12 12 11 16 14 15 14 13 16 21 21 20 24 23 22 24 27 36 43 48 52 56 61 68 69 68 65 51 50 53 51 49 49 44 46 44 50 54 53
36 19 17 13 14 13 17 16 14 16 18 18 14 18 18 23 25 27 29 28 28 29 33 41 48 54 59 61 60 55 54 51 56 44 38 39 37 39 47 44 48 50 52 55
19 18 15 15 18 18 29 17 18 16 17 19 18 16 44 25 25 27 27 29 30 32 38 42 47 48 51 52 50 49 49 43 44 46 47 44 45 46 46 46 45 40 34 31
39 17 16 17 19 17 18 20 19 17 14 24 14 18 23 24 20 24 29 32 35 39 39 34 37 41 46 47 48 46 41 44 47 49 51 50 46 41 37 34 28 26 24 24
19 17 18 18 20 19 17 19 27 27 29 28 18 19 15 10 18 18 30 35 39 38 34 30 32 34 40 45 46 44 43 47 49 46 42 42 40 32 29 28 25 28 26 27
22 28 19 17 19 18 19 17 26 27 26 23 21 20 13 18 15 18 26 32 37 35 30 28 29 32 38 44 45 42 44 44 42 40 37 34 36 37 32 31 32 30 30 30
18 23 18 19 18 16 18 24 19 27 31 33 17 11 14 22 22 22 27 31 36 32 28 28 30 34 39 44 44 44 42 38 36 36 42 43 39 35 35 37 36 32 32 32
17 23 19 22 20 21 22 18 26 22 32 32 14 14 11 23 22 24 28 31 32 29 28 29 30 37 41 42 46 44 38 35 40 45 45 41 34 34 37 38 38 35 36 38
15 18 26 25 24 18 25 23 21 22 29 33 24 16 14 14 19 23 25 27 30 29 29 30 34 38 41 44 46 41 34 40 44 41 37 34 34 36 37 38 39 37 39 40
18 19 29 25 22 21 21 22 22 33 27 30 41 23 15 18 18 21 24 25 26 28 27 29 35 39 41 44 42 36 38 42 40 37 35 34 35 32 34 37 38 38 40 42
26 22 34 30 27 24 23 20 20 20 33 28 50 23 15 18 19 18 21 23 26 27 27 30 35 39 40 43 38 36 41 42 37 38 33 30 32 33 35 38 38 40 40 42
34 24 27 33 26 22 30 22 20 24 35 29 26 16 14 16 16 15 19 20 23 26 28 31 35 37 39 42 37 36 41 45 47 36 26 25 29 34 37 39 39 42 42 46
31 35 26 24 25 24 22 19 21 22 21 30 21 14 10 10 11 13 14 20 20 26 30 33 36 35 37 39 36 35 43 53 40 30 27 27 30 36 39 39 40 41 45 46
32 37 39 43 28 29 27 22 18 17 18 16 15 16 11 13 12 16 16 21 23 27 31 34 35 34 35 35 35 34 49 40 37 31 31 31 32 36 38 37 41 41 42 43
40 51 43 33 33 34 55 37 24 17 16 18 24 17 12 17 19 19 18 22 25 27 31 34 34 34 34 34 33 33 44 36 34 32 31 31 34 36 34 35 34 36 40 45
57 45 47 45 64 76 15 17 15 18 16 13 14 14 13 15 20 22 22 22 26 28 30 31 33 35 36 35 32 40 34 34 34 32 34 35 34 28 31 33 34 37 43 46
31 41 54 81 35 23 18 14 20 22 20 15 18 15 14 20 29 26 24 24 23 25 28 31 33 35 37 36 34 34 35 32 37 36 32 30 29 34 34 34 36 41 45 48
37 47 44 51 82 85 30 24 26 25 26 19 19 20 20 25 36 21 25 24 25 26 30 33 35 37 38 37 34 34 40 46 32 30 31 32 33 33 34 38 44 46 52 49
66 72 75 58 73 43 21 22 28 32 37 28 27 24 27 29 26 35 31 25 28 28 32 35 38 38 39 34 39 42 36 42 32 35 35 36 36 38 43 47 48 53 52 54
50 62 80 63 91 76 20 28 37 38 27 25 29 28 35 35 32 32 35 33 31 33 36 39 38 34 37 39 56 65 51 32 41 46 45 44 43 50 52 54 55 54 53 56
47 38 43 37 37 27 23 23 22 27 32 31 31 29 30 32 33 32 35 37 36 38 37 35 34 42 65 81 77 41 36 50 52 53 51 49 52 55 59 60 61 58 57 60
34 33 41 40 22 22 23 23 25 26 29 28 29 32 34 36 38 39 38 40 39 33 32 39 59 84 89 63 40 43 57 66 58 55 53 56 60 57 60 59 61 68 65 63
37 35 35 38 28 23 24 27 32 35 36 36 36 39 44 48 44 43 44 39 34 44 67 84 78 60 49 52 58 64 67 66 61 65 68 65 69 67 63 60 65 72 72 76
35 31 50 48 38 44 35 38 47 47 50 50 50 49 46 47 48 42 37 44 72 84 66 64 71 62 56 68 68 67 73 83 84 77 74 71 68 64 64 62 68 72 73 75

GFSCGP_925_rhum_024.txt.gz
RH
19 23 21 24 19 14 14 15 13 10 10 11 12 13 12 14 17 23 26 28 30 30 30 33 33 31 29 53 68 70 82 87 85 75 76 72 72 63 55 51 53 52 53 51
19 24 19 17 16 14 12 14 11 9 10 11 9 10 11 13 17 19 21 26 29 30 31 38 40 41 40 54 74 85 81 87 83 76 70 64 55 53 49 54 54 53 52 53
28 32 28 17 14 14 13 15 18 12 9 7 21 11 13 12 14 16 18 19 22 26 36 39 43 47 48 66 78 80 80 80 77 66 55 52 48 47 49 51 53 54 56 55
38 23 26 16 17 12 20 20 17 20 16 19 19 32 49 36 17 16 18 20 22 23 32 37 43 49 67 69 75 72 72 67 55 50 49 48 46 48 47 47 52 52 52 51
42 18 17 17 24 20 29 20 21 16 15 31 32 35 33 36 32 24 24 26 26 26 31 40 44 60 63 63 65 66 56 53 51 42 45 45 49 48 47 47 42 38 31 27
18 16 21 26 18 18 20 22 19 14 16 57 27 43 29 32 33 58 23 25 27 29 34 37 43 49 52 54 51 51 46 43 45 48 49 47 44 41 39 30 29 30 26 26
21 16 14 20 15 15 14 17 30 57 65 49 16 19 36 25 45 65 62 26 29 34 39 42 44 45 48 52 50 44 42 46 50 52 48 44 35 32 34 37 32 31 29 29
23 39 15 14 15 42 37 16 37 81 88 36 20 22 16 20 19 29 27 30 36 40 41 38 41 42 46 48 48 42 44 49 48 44 40 35 37 39 35 33 34 32 32 32
49 36 28 16 14 15 17 21 17 36 41 40 21 12 11 17 18 16 29 32 39 39 36 34 34 38 42 46 46 43 45 45 43 39 39 44 41 31 33 37 38 34 34 35
73 84 38 19 16 16 18 14 29 24 38 38 20 16 19 23 19 20 26 33 37 36 32 31 30 36 40 44 45 44 43 41 39 40 48 45 40 35 37 38 38 38 37 39
19 36 24 22 22 16 23 24 18 17 34 55 50 23 15 16 16 20 23 31 34 36 32 31 31 35 39 44 46 47 42 37 39 47 47 36 36 35 38 38 39 40 39 40
16 19 40 21 16 17 18 23 19 58 38 50 61 36 14 16 14 18 20 22 30 32 30 30 31 36 40 43 46 47 39 36 43 45 39 39 34 36 37 36 38 39 39 40
22 26 41 27 22 21 23 19 16 22 44 49 70 39 15 15 15 14 18 21 26 30 30 30 33 36 39 42 46 44 38 40 44 42 39 36 36 35 34 35 38 39 40 41
34 24 26 43 26 24 30 23 17 20 62 50 42 20 14 15 16 14 18 19 21 28 28 28 33 37 39 41 46 43 38 42 42 39 40 35 31 33 34 37 40 39 41 43
28 34 26 22 20 23 26 22 18 20 23 37 31 20 14 12 14 12 14 18 19 19 25 27 33 38 39 41 44 40 38 42 44 47 40 30 28 30 34 38 40 39 42 44
29 44 42 46 29 26 28 23 21 18 16 17 16 17 12 12 15 17 16 15 18 20 20 24 29 36 38 39 42 40 38 42 52 49 36 29 31 32 36 39 38 38 38 40
42 64 61 49 34 36 49 40 25 20 17 17 25 20 14 14 14 19 19 19 19 22 23 26 30 34 36 36 38 38 37 42 47 39 34 32 33 37 39 34 33 34 35 39
64 60 65 69 66 62 20 15 15 16 15 12 12 14 13 22 22 20 17 21 23 23 26 28 30 32 34 34 35 36 34 40 40 35 33 40 43 34 30 34 39 36 37 42
35 59 73 94 53 32 22 16 18 20 21 18 18 17 16 19 21 24 22 25 26 28 25 25 26 30 33 35 36 34 38 36 35 42 49 54 33 34 37 39 42 42 42 44
35 56 70 66 80 79 34 23 21 21 37 22 23 26 25 22 57 36 33 28 25 23 23 25 28 32 35 37 35 36 41 46 54 55 49 52 40 44 50 47 48 48 49 53
75 77 86 72 87 65 22 22 23 39 52 29 29 29 31 36 39 36 34 34 29 26 29 32 38 39 37 39 43 54 60 64 72 66 53 51 58 57 52 51 52 54 56 55
66 80 93 79 98 87 20 25 44 44 34 32 31 32 38 38 38 37 32 30 34 32 36 37 40 54 66 72 75 77 73 67 69 60 62 65 66 61 55 56 59 62 63 60
52 49 63 55 63 32 21 25 22 27 31 32 33 31 34 39 35 34 35 38 38 34 39 40 66 82 84 82 77 71 63 56 59 64 80 76 64 57 60 61 63 64 65 70
32 31 52 47 22 22 21 21 22 26 35 33 34 37 40 46 47 43 40 41 34 35 44 68 78 75 69 62 64 62 61 61 78 80 72 58 63 64 64 65 62 60 65 73
41 33 35 38 31 26 26 36 42 44 42 45 45 46 48 48 47 43 40 47 50 71 72 66 64 76 85 80 73 69 72 80 74 66 72 75 75 73 73 68 64 63 65 68
35 35 62 69 45 47 48 48 46 49 48 46 45 46 44 40 42 47 64 71 65 65 75 79 78 72 74 74 67 68 68 76 81 83 80 80 75 75 71 70 69 68 66 66

GFSCGP_925_rhum_027.txt.gz
RH
31 32 36 28 24 23 23 22 21 16 14 23 24 22 22 21 34 43 48 50 40 41 38 28 29 47 59 59 63 68 69 75 74 54 67 81 81 65 70 56 56 54 50 48
35 31 23 22 21 26 24 23 22 15 14 16 17 18 19 20 25 43 44 44 44 44 42 41 39 45 65 70 74 74 77 81 72 54 62 73 64 64 52 53 54 51 52 52
37 35 26 22 29 32 26 30 25 18 11 10 17 25 30 20 20 32 40 37 37 41 48 50 47 59 75 85 78 82 83 81 75 70 69 74 61 54 53 53 53 53 53 54
43 30 27 28 33 20 22 23 24 20 26 22 24 37 39 32 21 22 27 35 37 39 46 50 53 57 82 89 85 85 78 73 72 75 80 65 56 54 52 53 52 54 54 49
40 35 33 34 33 20 28 21 23 25 27 30 34 39 39 31 24 29 38 33 36 42 48 53 58 76 80 82 78 81 70 68 74 79 53 50 48 52 56 54 50 37 34 30
33 22 27 28 24 18 22 22 27 33 37 56 31 40 45 49 30 37 38 32 31 44 51 56 69 71 74 68 68 68 69 56 46 51 51 49 48 48 40 35 33 29 28 27
22 21 26 24 26 25 29 33 50 58 77 70 39 42 42 37 32 32 30 28 36 52 55 67 69 67 70 67 69 62 49 50 49 48 48 48 48 42 40 33 34 31 29 30
35 42 35 29 24 28 25 34 65 72 83 64 38 44 33 26 26 28 32 34 41 55 60 62 61 64 59 52 46 44 48 52 52 50 43 37 38 36 35 38 32 31 31 32
48 42 40 34 27 24 23 30 33 66 68 76 48 20 24 30 39 48 47 45 57 60 58 58 57 57 53 50 45 46 50 52 50 48 43 40 37 42 34 35 34 34 33 34
60 50 51 46 32 25 21 24 39 52 51 53 33 27 43 32 29 42 52 56 57 53 50 52 53 55 50 48 46 47 50 50 45 40 38 39 43 33 36 37 37 37 37 37
54 56 56 44 42 32 29 29 24 32 57 64 74 44 19 23 28 35 48 50 52 49 45 46 49 51 48 47 47 47 48 46 42 37 39 47 37 37 37 38 39 40 39 40
52 53 69 42 26 21 21 29 43 65 39 70 76 52 20 18 22 26 28 43 48 46 41 42 45 49 52 50 47 46 47 44 40 45 47 40 37 39 38 39 39 40 39 40
34 37 62 41 33 29 27 25 24 41 64 54 68 53 20 17 16 18 23 26 46 46 42 40 44 47 51 53 49 48 44 38 40 46 45 38 37 39 37 38 38 40 40 41
39 35 43 56 40 32 33 36 32 32 71 60 65 39 27 23 23 21 20 20 40 43 40 39 43 45 50 51 53 50 40 38 44 45 43 40 39 37 36 36 39 41 40 42
39 42 32 38 38 33 29 32 30 29 38 50 43 37 30 19 22 22 25 23 20 25 32 43 44 48 47 53 54 50 43 41 44 42 41 40 39 34 39 37 41 41 40 40
37 60 44 42 37 35 34 33 30 29 28 23 25 29 20 21 22 23 23 22 24 26 27 32 48 52 49 55 54 48 44 43 42 41 42 44 37 35 40 42 44 37 36 36
52 68 67 54 46 39 45 30 32 32 27 25 30 28 32 32 30 29 28 29 29 26 33 36 45 52 49 51 49 49 44 44 46 48 46 40 39 42 40 37 40 34 33 42
64 63 77 76 65 44 34 19 18 25 25 26 26 29 31 27 32 36 33 37 36 35 34 34 35 38 44 44 48 46 44 47 50 48 43 42 44 46 56 51 40 41 57 55
62 74 84 72 78 48 33 29 28 25 33 31 36 34 32 29 33 50 42 39 33 29 30 29 33 39 43 44 44 43 49 51 50 55 49 48 49 56 52 52 49 62 59 54
49 67 72 82 80 68 53 27 26 24 59 38 39 42 42 38 71 61 40 39 42 42 47 44 46 50 50 54 50 58 67 68 68 64 63 70 73 68 51 60 66 58 58 56
85 81 78 94 89 76 46 28 25 42 55 38 37 40 43 50 61 46 38 40 44 45 53 65 72 75 73 70 70 78 82 83 79 80 87 83 74 72 78 63 60 61 61 61
77 93 95 96 99 82 33 29 37 61 40 39 36 36 38 41 44 44 48 45 42 55 72 77 80 82 73 69 70 78 85 84 85 84 82 73 79 76 70 64 60 60 60 64
71 75 83 73 81 58 28 33 37 38 40 44 49 51 52 60 61 57 47 48 59 75 83 77 72 66 60 61 60 66 71 80 74 69 76 73 66 68 64 62 62 62 63 66
41 42 73 52 34 35 32 50 53 54 60 60 57 56 60 63 56 44 51 66 71 78 75 72 67 66 64 58 62 67 71 71 74 72 70 69 67 66 66 66 70 68 67 66
62 44 48 52 38 64 64 63 61 57 57 54 51 52 51 53 63 68 75 71 66 65 68 72 77 82 83 76 73 71 68 68 68 74 73 71 72 72 74 76 73 69 67 67
49 52 70 81 61 69 68 61 57 61 63 62 68 77 74 69 76 70 69 66 70 80 79 76 74 73 72 68 67 67 66 68 72 74 72 76 78 73 72 73 74 74 71 73

GFSCGP_925_rhum_030.txt.gz
RH
32 35 37 30 30 24 23 27 30 24 17 24 26 27 45 49 46 49 57 51 46 49 49 55 72 75 73 72 72 67 66 72 68 66 61 74 76 71 64 61 59 57 56 53
36 37 27 25 25 29 31 32 32 25 19 24 26 24 34 35 41 45 46 45 45 47 44 50 65 70 71 72 76 68 65 76 72 64 59 64 72 67 67 63 56 52 48 48
38 31 28 25 26 30 31 34 32 29 19 15 22 32 26 22 38 41 40 40 41 42 42 47 58 67 73 77 79 70 72 75 75 66 58 72 74 68 59 55 53 52 50 51
35 30 27 30 30 31 35 26 27 26 28 24 24 43 37 30 30 43 40 46 44 43 40 52 56 72 76 81 82 75 77 78 77 69 60 73 69 61 57 55 54 54 54 52
32 34 28 32 31 28 35 22 23 26 34 33 31 34 33 35 24 37 35 38 45 46 45 55 72 82 82 84 81 84 81 80 76 74 67 74 68 60 56 54 54 55 53 40
29 29 28 30 27 27 24 25 36 45 46 55 42 38 40 41 30 23 30 35 38 50 59 62 82 89 96 88 87 85 83 84 84 80 76 79 70 58 57 56 56 44 29 30
33 29 24 25 26 26 26 34 49 49 70 60 43 43 38 33 33 32 32 33 43 53 68 82 90 93 98 98 88 82 79 81 77 80 84 76 64 55 56 53 40 30 30 30
38 44 36 32 27 31 31 34 59 53 70 53 43 51 39 28 28 31 32 42 56 66 67 75 82 87 92 92 88 83 74 57 58 68 63 57 52 53 47 38 33 32 31 33
47 42 42 41 31 31 30 32 34 66 74 73 56 32 28 35 37 37 47 43 62 77 82 78 78 78 77 74 68 64 53 50 50 51 52 45 42 41 36 36 33 32 33 34
45 41 43 40 28 28 30 24 36 57 56 58 40 36 43 31 29 37 48 46 65 72 73 73 71 71 65 58 56 53 51 50 50 48 42 38 37 39 37 35 34 34 38 36
53 37 42 37 41 35 33 31 30 40 56 57 69 46 26 30 32 44 51 51 66 66 67 68 66 64 57 49 48 48 49 50 55 49 44 41 43 35 36 37 38 38 39 40
48 54 71 41 31 33 31 33 42 62 37 76 77 49 28 26 31 43 48 51 62 56 60 61 61 62 61 56 52 51 51 50 49 45 42 40 42 36 38 38 38 40 40 41
43 46 62 44 32 30 32 29 33 50 64 58 68 52 25 24 20 28 40 54 56 57 54 55 59 60 61 59 57 56 54 51 47 41 41 43 38 38 38 38 40 40 40 40
41 42 42 54 34 33 34 34 36 43 71 61 65 39 31 28 26 22 24 35 55 56 51 49 55 56 56 58 59 64 57 52 47 41 43 43 36 37 39 37 40 40 41 41
37 40 36 36 39 36 32 36 34 36 41 50 41 44 32 24 23 26 26 23 42 54 51 52 51 54 55 56 58 60 52 51 46 46 45 44 39 36 38 40 43 43 44 48
44 50 46 41 42 36 32 32 34 33 30 40 32 34 33 30 30 34 30 30 32 33 33 36 50 56 58 60 61 59 53 51 47 46 46 43 40 42 45 45 46 50 45 41
54 69 66 55 49 37 53 38 32 32 30 29 37 33 33 39 37 33 36 39 38 41 43 52 58 58 58 60 58 59 56 52 51 51 45 46 47 45 44 48 52 56 56 48
64 65 75 74 58 55 41 30 28 38 35 34 36 34 41 46 49 46 40 40 38 36 40 47 52 56 55 58 62 62 62 57 54 53 52 47 51 56 63 76 79 78 64 58
61 82 86 68 70 51 33 28 29 33 39 34 40 38 36 44 50 50 44 52 56 58 54 56 60 58 60 60 59 62 63 59 56 61 66 67 74 83 82 82 79 74 68 60
70 72 73 92 70 59 47 35 27 34 64 40 46 45 45 42 80 65 53 54 53 62 66 68 70 68 69 71 68 68 75 74 74 71 73 84 88 88 89 89 78 71 61 62
82 86 76 96 78 68 48 36 27 34 43 42 46 45 43 54 62 58 56 64 68 71 73 72 73 75 76 76 73 81 82 85 87 88 88 90 95 97 86 79 66 64 63 62
67 86 95 95 90 64 46 32 37 48 52 46 42 42 57 66 67 56 54 67 72 76 78 76 76 75 72 66 63 78 80 82 86 93 96 91 81 72 70 70 66 62 61 62
57 68 78 72 74 53 34 38 48 48 53 55 69 66 69 71 58 57 70 78 79 77 70 64 64 68 73 72 72 83 93 87 75 73 72 69 63 65 70 67 65 64 65 68
49 60 73 61 56 58 70 70 67 67 69 60 62 66 62 56 61 69 76 76 76 72 67 66 69 77 77 72 71 72 70 67 66 66 65 67 68 69 69 68 66 73 74 73
62 52 57 66 73 70 72 68 65 62 65 65 62 64 68 72 76 73 74 70 70 75 80 80 84 79 75 70 68 67 65 64 63 64 63 62 64 71 72 69 68 72 71 73
56 56 68 72 60 70 74 70 67 70 74 74 77 80 74 69 70 71 79 80 81 81 75 75 73 69 69 65 64 64 64 64 65 66 62 59 63 60 64 73 74 72 75 76

GFSCGP_925_rhum_033.txt.gz
RH
34 37 38 32 31 27 29 33 35 28 23 25 34 30 46 52 54 63 65 67 81 77 66 74 78 78 84 92 87 77 75 70 73 80 72 68 64 64 64 65 70 65 65 60
36 38 30 30 28 30 31 33 32 31 23 25 30 27 42 54 50 54 57 58 58 76 73 73 78 83 89 88 82 78 73 74 79 73 66 66 70 68 65 68 61 58 56 55
37 29 28 25 25 29 30 33 36 34 24 22 28 29 28 29 43 46 50 47 48 57 69 70 78 84 86 86 79 79 72 72 75 71 68 68 80 74 76 66 58 53 51 52
36 32 30 30 31 30 37 29 33 29 28 22 25 38 36 33 41 47 47 56 47 49 54 58 70 80 81 82 82 84 79 73 76 74 69 66 77 79 72 65 56 54 55 54
33 38 32 31 28 31 34 30 30 27 35 34 35 36 34 36 37 45 48 48 48 44 46 53 64 72 76 78 78 82 82 81 83 77 70 77 80 71 64 57 56 59 57 52
31 31 27 26 26 31 27 27 37 48 46 55 41 39 40 40 32 32 42 41 45 57 57 65 56 68 78 83 84 86 90 86 89 82 77 80 80 65 60 59 61 54 44 35
32 29 27 28 26 28 30 35 46 46 66 58 43 43 40 28 31 31 39 40 41 44 64 83 86 83 89 94 88 97 95 97 87 87 82 77 80 67 59 58 57 44 36 33
42 39 32 32 28 32 33 33 54 49 65 46 47 57 38 30 32 32 32 36 44 60 59 80 86 90 96 96 97 100 92 89 86 89 87 88 81 73 63 59 52 40 33 33
44 38 38 39 31 28 31 36 35 65 75 71 55 42 29 31 33 50 48 50 64 76 77 86 89 92 98 98 97 93 85 86 86 84 85 86 83 82 68 64 40 34 32 33
36 35 38 39 33 31 29 32 38 57 50 58 49 40 43 32 28 36 55 50 69 81 89 91 92 95 97 93 96 95 84 78 75 67 67 78 66 59 57 42 35 35 38 39
50 34 36 42 40 36 35 34 36 43 59 58 67 50 32 32 29 29 36 46 60 86 87 84 82 85 86 86 87 84 80 69 57 59 59 55 49 47 41 37 35 38 40 40
46 49 65 41 34 33 31 31 40 64 43 79 79 53 28 26 30 34 39 42 60 76 79 78 78 78 75 76 76 74 67 55 52 53 52 50 46 40 39 37 35 38 37 40
47 50 64 46 37 33 32 36 45 53 65 61 70 51 28 29 24 25 40 43 58 70 72 76 78 74 69 68 70 69 65 61 56 54 50 42 41 42 39 37 36 37 38 41
43 46 46 57 42 36 36 35 39 47 73 60 67 41 30 28 31 27 26 35 58 69 65 72 75 74 68 65 64 65 66 62 60 56 48 45 44 41 39 38 38 40 41 43
40 42 35 34 30 40 36 36 44 44 44 52 44 50 38 27 26 28 29 25 39 64 64 64 69 74 69 70 68 68 67 63 57 54 51 48 47 43 40 40 43 45 47 45
46 51 42 43 42 39 37 36 36 40 36 45 40 39 34 31 33 40 38 37 42 46 53 58 58 64 65 65 68 70 67 63 60 58 58 55 50 50 53 52 54 50 48 51
51 66 66 53 50 41 58 43 38 34 36 36 39 34 33 38 39 43 49 46 47 48 52 59 60 58 58 62 62 65 67 65 66 63 59 55 55 55 53 53 57 72 86 87
64 64 75 75 58 62 44 33 34 37 37 37 38 37 43 48 52 52 46 45 48 55 60 63 67 71 72 70 70 70 68 66 64 66 64 58 54 68 78 80 84 91 91 87
61 78 82 70 71 50 35 35 38 36 36 36 44 47 51 53 55 57 60 61 61 64 67 72 71 74 73 72 72 68 65 65 67 71 72 74 78 85 88 93 92 88 85 71
62 72 74 86 64 62 50 36 29 38 62 40 44 47 49 45 74 68 60 64 72 73 74 76 77 76 73 74 71 71 75 74 76 81 90 93 96 96 94 92 90 86 73 66
83 88 80 96 76 64 44 36 28 42 48 51 50 52 54 53 61 69 72 76 76 76 77 77 81 82 79 73 67 78 80 90 95 89 89 91 93 94 91 85 78 74 69 67
70 86 94 91 78 59 44 41 36 45 52 52 50 50 62 76 68 74 75 78 78 78 75 75 79 82 78 78 78 91 97 96 92 94 94 93 83 77 76 72 71 70 66 65
56 66 77 69 69 50 44 36 42 54 52 52 56 65 72 65 69 79 82 80 75 69 67 72 74 71 73 76 78 85 81 74 72 71 72 72 67 65 66 70 69 68 68 70
57 64 66 60 57 55 64 71 67 63 69 71 72 75 63 69 77 80 77 75 74 70 70 71 73 78 75 72 70 70 70 68 64 60 59 58 58 59 61 66 68 71 72 76
66 64 71 80 77 72 71 73 70 70 70 72 70 67 71 76 78 78 78 77 81 80 80 78 79 78 75 71 73 74 72 70 69 69 70 71 72 71 68 63 62 65 65 71
65 65 73 79 73 64 75 75 72 73 77 75 74 76 72 70 73 73 81 81 81 82 78 75 74 75 76 77 80 81 78 78 81 84 86 88 88 86 87 87 82 73 71 71

GFSCGP_925_rhum_036.txt.gz
RH
36 37 38 33 32 28 31 33 35 32 25 28 42 46 59 74 76 84 90 93 95 82 68 66 72 70 72 74 84 82 80 80 82 78 83 95 94 87 72 66 66 70 82 76
37 41 32 31 32 30 31 33 35 31 24 28 33 40 55 66 70 74 77 78 80 81 75 69 78 75 72 72 77 85 83 81 83 76 83 88 79 71 65 67 69 71 76 66
40 29 29 26 28 27 32 32 35 35 30 24 29 32 56 48 56 57 64 62 64 73 80 75 83 82 78 79 79 88 87 82 84 82 83 79 72 70 74 71 64 63 65 58
38 33 31 31 30 30 34 31 34 36 30 27 28 33 37 45 56 53 52 62 57 60 69 76 78 84 86 88 85 87 88 80 80 80 80 76 70 76 76 68 62 61 62 58
38 33 36 33 31 30 34 30 33 30 35 35 36 36 31 40 44 51 48 52 54 53 56 70 75 78 82 83 86 87 88 82 85 78 80 76 75 78 77 70 62 61 60 58
34 32 30 29 27 31 28 30 35 46 48 54 39 42 43 48 36 36 41 45 48 50 55 61 63 68 83 84 84 84 88 88 86 85 83 80 79 84 77 73 64 62 58 49
32 31 27 28 28 30 31 36 47 44 65 60 43 48 45 30 29 34 36 40 45 48 52 62 68 75 80 82 85 86 88 94 95 94 88 86 83 85 76 69 62 58 48 39
44 41 35 30 29 32 32 35 55 43 65 44 46 51 34 29 36 42 39 37 52 57 54 57 64 67 80 84 89 90 87 69 89 95 91 90 88 86 77 66 62 56 49 40
45 36 35 37 32 28 34 38 36 66 77 70 54 43 27 31 44 46 41 43 51 55 60 60 70 75 80 89 89 92 94 86 95 96 91 94 93 91 83 67 66 56 45 37
38 32 35 34 36 32 30 37 43 56 49 53 50 42 39 31 29 44 46 48 52 66 78 81 90 89 84 89 85 92 89 84 93 94 97 95 94 91 82 73 66 52 44 36
41 30 32 42 40 36 38 38 44 46 59 57 64 48 36 31 33 32 34 48 52 70 86 91 93 94 90 86 86 80 86 92 93 90 93 95 93 88 85 82 67 56 38 35
41 45 52 38 35 33 35 38 44 65 45 79 77 57 29 29 28 29 33 35 49 66 84 90 91 94 98 96 96 96 93 94 90 85 81 80 84 85 80 76 64 40 35 42
47 48 61 46 37 34 36 38 45 55 66 64 71 52 29 33 29 26 30 34 47 69 83 86 90 91 90 90 90 88 89 86 81 77 72 71 70 62 59 55 42 36 38 44
40 51 45 50 40 38 37 40 50 48 72 63 66 42 33 31 32 31 30 31 36 64 76 85 88 88 80 77 82 83 82 77 72 64 64 62 55 54 50 46 42 39 40 41
38 41 44 37 32 36 36 35 49 46 46 52 46 51 39 37 30 31 31 30 37 60 71 76 80 84 78 78 75 77 78 75 72 67 63 61 56 53 51 48 44 43 46 48
47 46 39 46 43 42 42 40 42 47 43 47 44 44 38 34 36 44 37 46 57 62 62 61 62 67 77 76 74 72 70 70 69 67 67 64 59 59 56 51 50 54 53 55
52 68 62 51 50 41 59 48 42 41 41 41 49 43 38 38 41 45 50 54 58 63 68 68 80 85 76 70 71 80 80 78 76 72 69 65 64 62 61 58 63 75 81 85
65 62 70 75 62 59 38 36 34 40 39 38 38 37 42 48 55 63 62 54 63 65 70 74 80 82 83 82 80 77 77 75 73 72 70 67 64 65 75 85 91 97 97 97
62 73 77 69 75 50 37 38 42 40 36 41 43 57 60 61 58 68 64 71 75 78 78 82 79 77 74 73 73 72 73 71 72 82 84 82 83 90 96 99 96 85 85 93
62 73 70 80 67 65 50 37 34 33 50 44 52 62 64 55 63 65 71 75 79 80 80 81 78 76 73 73 70 72 81 84 92 90 93 95 91 85 87 92 91 93 97 94
84 88 78 94 76 69 49 34 34 43 48 50 53 58 60 50 57 77 80 82 80 80 84 83 82 84 80 78 76 91 94 99 92 81 80 87 91 94 96 90 81 82 78 72
77 87 88 88 78 70 44 40 43 48 51 55 54 59 59 80 81 82 81 81 79 81 84 84 85 88 84 81 82 96 100 99 98 98 94 86 82 80 78 75 72 72 74 74
63 68 75 68 70 52 50 42 40 49 54 54 55 63 72 79 82 82 85 79 75 78 79 79 82 81 80 80 78 82 82 73 70 63 61 62 62 64 65 67 69 70 70 73
61 60 62 58 53 57 56 63 58 55 56 64 66 73 66 78 82 84 76 74 75 78 79 76 78 79 80 77 76 76 73 68 65 70 73 76 80 79 78 78 75 74 70 72
67 63 73 69 76 72 70 72 65 74 77 74 73 68 75 79 82 79 80 80 83 86 82 80 80 84 86 82 84 81 78 75 78 81 84 83 81 79 77 75 77 79 78 83
71 68 73 65 62 57 56 75 75 77 79 77 78 82 78 76 80 78 85 86 88 84 79 82 83 91 96 84 82 82 80 78 79 79 79 79 77 76 81 88 91 81 84 91

GFSCGP_925_rhum_039.txt.gz
RH
36 32 33 28 31 26 30 31 32 29 24 34 41 40 57 74 77 75 69 69 73 70 65 68 72 74 76 83 88 88 94 86 90 93 77 88 94 88 93 98 92 90 86 77
35 39 31 31 32 32 31 31 31 29 23 28 27 32 43 67 69 64 66 69 69 67 67 66 71 76 77 74 83 92 91 82 85 90 74 80 92 95 95 88 76 78 80 80
38 29 31 33 32 33 31 30 33 33 30 26 30 28 39 51 60 59 60 60 62 64 66 63 69 73 75 75 80 90 94 82 82 86 78 80 88 91 90 85 78 79 83 72
35 33 32 31 31 29 31 28 32 34 31 27 28 27 28 42 51 54 54 56 57 56 58 60 64 70 76 76 80 82 87 83 84 87 90 83 84 84 89 80 71 75 72 64
35 34 38 36 32 30 30 33 34 33 33 34 34 28 25 38 42 47 48 48 51 52 53 58 60 62 72 80 87 86 92 90 93 86 92 93 90 85 77 74 66 69 67 61
34 32 33 31 28 30 31 32 33 40 40 42 38 33 30 32 30 32 38 43 43 45 49 50 57 64 67 83 88 89 94 98 97 97 94 91 92 82 77 75 68 66 66 62
34 34 30 29 30 32 31 34 39 36 50 43 43 42 31 26 28 28 29 34 38 40 43 47 52 61 68 85 90 90 94 96 93 96 96 93 90 82 78 74 68 66 64 61
36 38 33 32 29 32 36 33 44 42 48 35 43 40 23 27 27 34 39 36 31 40 43 44 45 51 65 78 86 92 93 94 80 88 89 97 94 89 83 79 74 68 63 60
47 38 34 37 32 27 34 36 35 58 70 57 42 34 24 27 30 35 38 40 36 39 45 44 44 51 61 76 85 89 92 91 80 65 98 100 99 98 91 84 80 75 65 58
38 37 36 35 36 36 32 33 42 49 54 55 41 39 26 24 26 30 33 35 38 45 44 51 50 56 64 75 82 93 92 88 75 92 100 100 100 100 94 88 84 79 67 58
40 31 33 42 39 34 37 38 42 39 48 46 47 35 31 25 25 30 32 33 39 41 48 53 58 70 74 79 85 88 88 86 95 97 96 94 98 100 100 99 94 82 70 61
38 44 46 33 35 32 33 37 40 52 46 59 59 40 26 29 27 27 27 30 39 41 44 56 65 76 85 87 89 93 96 96 94 87 87 93 99 100 100 100 96 84 74 65
44 43 44 35 35 34 38 38 43 49 55 58 67 41 26 28 27 27 27 25 31 46 53 62 69 74 81 90 95 96 96 93 92 92 94 95 98 100 100 97 94 87 75 63
38 49 41 36 34 36 43 42 45 44 57 53 51 37 29 26 29 27 29 30 28 31 55 64 72 74 79 84 86 89 93 93 91 90 89 91 93 91 93 88 80 76 67 50
40 44 47 38 33 34 35 40 46 41 44 49 38 41 31 30 29 29 33 33 44 56 62 66 68 70 74 78 83 85 83 82 80 77 75 77 78 75 69 59 55 52 48 46
48 45 43 42 45 41 44 40 44 43 44 42 40 40 33 31 31 37 38 51 58 61 65 66 62 66 74 78 79 84 85 84 81 80 76 76 66 62 58 56 55 54 54 59
54 65 57 49 49 42 59 48 40 40 42 42 46 35 35 35 39 44 52 53 57 60 64 68 73 78 82 83 86 85 86 85 81 80 79 75 66 64 66 67 66 72 83 91
62 61 62 68 61 64 37 37 35 39 37 36 36 34 34 37 52 52 49 51 57 60 66 69 70 73 77 80 83 83 81 81 79 77 76 77 81 88 88 93 99 99 86 78
56 68 72 73 60 48 37 37 38 40 28 31 33 36 44 54 51 56 62 60 63 68 70 73 74 75 75 75 76 75 76 78 80 83 86 89 92 94 98 92 89 85 89 89
63 64 64 71 63 62 45 35 36 30 42 36 38 50 55 54 54 49 64 66 69 72 73 74 76 75 76 78 79 81 85 86 88 89 91 92 90 88 86 88 92 96 98 99
72 75 70 74 70 62 45 35 36 45 37 44 43 50 55 48 48 61 68 70 72 75 78 79 77 80 84 86 86 88 92 95 97 99 99 99 100 96 88 84 86 86 85 83
68 73 81 77 78 63 42 39 44 46 44 47 50 54 58 69 73 70 70 72 73 74 77 79 82 86 91 89 90 98 99 100 100 92 81 78 73 67 68 69 72 73 79 80
70 63 62 59 63 52 44 41 40 42 42 52 51 54 64 73 71 71 73 72 72 73 78 80 82 84 84 83 80 79 80 75 66 62 70 67 66 69 71 78 80 78 81 83
63 58 63 59 51 50 52 50 53 48 49 50 48 55 61 67 71 72 69 71 71 74 74 75 75 76 81 83 85 82 73 69 72 84 88 86 83 80 81 78 78 76 79 82
66 62 63 60 55 67 60 60 55 60 65 65 61 60 64 69 70 65 69 70 71 74 75 74 76 82 89 93 95 82 78 77 81 84 84 82 78 74 69 70 77 76 76 80
64 61 66 62 45 46 41 51 65 68 66 64 66 72 68 65 67 65 70 74 76 78 78 79 86 86 90 92 84 80 66 57 67 68 68 71 71 73 70 68 65 75 80 73

GFSCGP_925_rhum_042.txt.gz
RH
25 25 20 15 14 17 19 17 18 18 18 22 21 22 24 38 45 41 37 39 44 41 44 58 62 62 62 64 64 67 75 79 82 91 77 61 56 62 81 93 96 94 83 84
28 26 21 23 22 23 23 20 20 21 20 21 16 18 20 30 42 40 37 37 38 39 41 45 54 59 61 62 68 69 68 74 80 77 74 59 60 60 69 82 96 97 89 82
25 22 24 24 24 26 24 23 23 23 23 20 22 20 24 29 37 40 39 32 34 36 39 43 45 51 57 57 62 65 68 72 75 71 72 63 67 76 82 96 95 94 91 81
24 21 24 24 23 23 24 20 22 25 25 22 22 22 20 22 33 37 35 37 31 34 37 36 41 44 48 53 55 60 64 69 72 74 68 68 61 60 70 82 85 82 88 80
24 25 27 24 21 22 22 23 24 25 23 24 22 19 17 22 20 23 29 32 32 27 31 34 36 40 44 49 55 60 63 70 71 76 74 74 69 60 62 79 74 80 83 80
20 22 22 21 22 21 24 25 26 28 25 30 22 22 18 16 14 14 18 23 29 31 31 30 32 38 42 47 54 60 64 66 74 82 86 84 83 75 86 81 76 76 79 79
25 24 20 23 25 25 24 26 34 33 34 33 28 27 18 15 17 18 18 17 22 27 30 31 31 34 39 46 58 65 65 60 77 85 76 88 93 88 91 84 76 73 76 82
27 29 22 21 23 22 24 24 32 37 36 27 31 27 18 17 18 19 22 23 23 21 25 28 30 32 36 44 56 68 69 70 84 96 83 83 96 98 99 87 82 78 80 83
25 23 22 23 22 20 27 30 23 34 46 34 22 19 15 17 18 18 20 24 23 22 21 24 27 30 35 43 53 65 69 72 77 92 72 58 86 100 97 92 87 84 79 74
24 29 26 30 26 28 26 23 32 29 40 38 25 24 17 16 14 16 15 17 21 25 25 27 27 30 36 41 52 64 69 64 71 91 80 92 98 99 98 96 95 89 85 75
19 24 33 32 30 24 30 29 28 26 30 35 35 24 15 15 15 18 17 17 19 22 26 31 32 38 42 46 53 62 66 63 66 80 83 96 99 98 100 99 99 95 91 82
21 24 34 25 25 24 19 22 25 33 31 36 43 29 14 15 18 18 17 18 21 25 24 29 36 45 49 53 55 60 62 62 64 70 77 88 97 100 100 100 100 100 96 88
26 28 35 30 28 27 25 23 22 28 37 36 51 31 18 19 20 18 19 18 20 24 26 33 41 44 51 58 64 67 72 70 73 76 81 88 96 100 99 99 98 99 97 90
31 24 28 31 23 18 29 25 24 28 39 33 36 24 18 17 17 15 17 20 20 20 23 32 42 45 52 61 66 69 77 80 80 79 79 82 87 91 94 99 100 98 91 80
27 28 25 20 16 16 17 18 26 28 28 30 27 22 19 15 16 14 22 23 27 31 36 43 43 48 53 61 68 71 76 78 77 75 72 80 80 79 77 77 78 79 78 78
27 27 30 30 23 23 22 20 18 23 21 24 24 22 15 16 20 22 25 30 37 43 46 47 49 52 58 62 64 71 72 75 71 69 68 71 70 70 70 73 75 70 66 67
38 34 37 32 30 30 46 35 24 23 26 26 27 20 16 19 23 24 29 35 42 47 49 50 51 53 56 63 65 66 70 70 68 68 69 70 70 73 77 80 77 69 83 75
47 44 41 42 64 71 22 24 21 23 22 20 22 19 18 19 20 31 32 38 43 46 49 49 51 56 59 63 66 67 67 68 67 66 67 70 74 79 83 84 86 90 82 80
39 44 53 73 47 27 29 30 28 29 24 18 19 18 17 26 35 42 40 37 42 47 49 52 55 57 59 60 61 62 62 64 66 68 70 72 74 76 78 81 86 85 83 89
47 50 52 59 49 62 24 20 22 22 34 16 19 21 23 35 42 28 45 47 50 50 52 55 58 59 61 62 62 63 64 66 68 70 71 73 73 73 76 84 98 95 96 95
64 62 70 57 60 37 28 26 24 37 32 22 19 22 30 38 29 39 45 49 49 52 55 57 57 60 64 64 64 64 67 71 75 80 86 93 92 84 78 71 64 62 59 63
57 62 74 55 76 65 30 29 30 25 34 26 29 28 35 38 48 48 48 51 51 53 58 60 64 66 67 68 68 75 83 86 87 84 73 62 57 53 52 53 54 54 54 59
65 46 47 44 42 29 32 23 24 28 24 32 30 31 36 50 50 49 52 52 51 53 56 60 64 67 68 68 68 70 74 68 60 54 54 59 61 60 61 58 60 55 59 60
49 56 63 53 28 35 34 26 29 28 27 28 29 34 44 47 49 51 52 52 51 53 55 59 62 64 64 62 61 60 57 55 57 59 60 59 61 57 54 47 44 42 49 55
36 49 47 45 33 40 38 34 28 33 36 37 31 36 40 44 48 50 52 52 50 53 58 59 61 63 65 66 67 65 64 57 56 58 56 52 48 41 38 39 48 54 58 71
43 42 55 53 32 37 25 28 31 35 42 39 39 43 40 43 48 48 51 52 54 57 59 60 62 65 67 68 67 63 59 54 48 43 43 54 51 50 42 41 41 57 62 63

GFSCGP_925_rhum_045.txt.gz
RH
19 22 22 15 12 11 13 14 17 19 13 15 17 16 26 27 30 27 31 32 39 48 48 55 52 54 51 52 56 59 64 63 78 80 59 51 48 46 46 52 58 65 72 80
21 26 15 14 14 14 15 15 14 13 14 16 15 19 13 22 26 26 25 29 30 32 44 52 52 45 52 50 52 54 58 62 75 74 63 51 47 42 47 53 72 83 78 77
22 18 17 17 16 18 17 18 21 17 18 15 15 16 14 16 22 24 23 24 28 30 32 41 44 44 44 45 48 51 53 58 60 57 58 53 47 44 47 52 62 84 80 74
18 16 19 18 18 16 20 14 17 18 19 22 19 30 33 16 22 26 25 24 24 26 27 30 35 44 46 46 47 50 51 53 61 57 55 52 46 47 51 57 74 80 83 81
20 19 21 20 18 16 18 18 19 19 21 20 17 16 22 14 17 20 23 24 21 22 24 28 29 31 40 46 47 51 51 51 53 57 55 55 52 48 50 54 64 78 75 82
17 14 15 16 14 16 16 21 20 20 21 31 18 17 28 15 12 10 16 20 21 20 22 24 27 29 31 35 44 50 51 50 50 52 57 58 57 59 54 60 68 66 73 80
19 19 16 16 21 18 20 24 33 33 32 33 26 19 17 32 11 12 12 13 17 20 20 22 23 27 30 34 40 46 49 47 51 55 64 68 70 70 70 80 75 71 73 76
25 26 19 17 19 21 22 22 32 65 34 27 24 21 17 13 12 12 13 14 14 17 21 21 20 22 26 32 38 46 47 49 48 61 72 73 86 74 84 72 88 83 84 82
22 22 13 14 16 17 20 25 19 34 28 30 21 15 12 11 11 12 13 16 17 17 16 19 20 20 23 28 36 45 51 50 50 65 79 83 87 89 89 99 97 90 86 83
17 24 16 17 17 17 20 18 29 26 39 45 21 19 17 15 13 12 11 13 15 19 17 16 17 19 23 26 32 44 53 55 61 83 88 86 90 92 93 98 98 94 87 84
16 20 21 23 26 24 23 26 23 22 28 41 36 22 16 13 12 13 13 12 13 14 21 22 21 21 24 26 32 41 52 54 62 74 80 76 78 86 92 95 97 91 89 90
16 21 31 28 19 17 18 21 22 32 30 29 33 29 14 13 12 13 14 13 13 15 16 20 26 30 32 34 35 43 51 53 51 76 74 77 80 83 93 97 99 95 95 88
18 22 34 27 24 21 22 20 18 21 23 32 54 33 14 14 14 13 14 13 13 16 16 21 28 33 36 40 42 47 51 51 51 54 69 81 95 98 100 100 99 98 97 93
27 21 27 33 28 21 24 20 18 20 36 33 28 21 16 15 15 12 12 13 14 15 15 19 27 32 37 45 49 54 57 58 60 61 63 72 88 96 99 99 99 100 100 96
24 26 22 20 18 17 18 19 18 20 20 28 23 19 16 14 14 11 17 16 15 18 18 20 28 32 40 49 53 60 67 68 67 65 67 79 80 81 88 90 91 94 91 82
22 29 24 24 20 17 18 15 14 14 16 17 16 17 13 11 10 12 14 16 18 22 26 31 33 38 45 53 57 64 67 70 68 66 69 71 69 68 70 70 75 77 78 77
26 33 31 38 23 22 33 21 16 15 14 17 22 17 14 13 12 14 16 17 24 30 34 37 40 45 50 55 60 63 64 64 62 62 63 65 66 68 68 67 69 71 78 78
35 35 34 45 58 57 24 16 15 17 15 14 15 15 13 13 12 15 18 20 31 35 40 42 43 47 50 51 54 56 56 58 58 60 63 66 68 70 68 71 73 79 82 82
31 42 47 59 48 30 20 18 19 19 18 13 14 14 13 12 18 26 24 25 32 37 36 38 41 45 47 49 51 51 53 56 57 60 63 65 66 67 68 72 77 79 78 80
37 39 56 52 52 56 28 18 15 14 30 14 13 14 15 17 35 21 30 31 36 37 38 41 44 46 47 49 50 51 52 55 57 59 62 64 65 66 72 81 86 89 88 83
69 66 75 63 55 34 19 15 14 34 30 15 14 14 15 18 22 26 33 38 36 37 40 44 45 46 49 51 51 51 55 56 60 64 70 76 78 81 77 67 57 52 49 51
64 60 74 59 61 66 26 23 28 25 21 20 20 16 18 19 35 36 37 37 37 38 44 44 48 50 51 51 52 55 60 68 72 75 74 62 48 41 44 45 45 44 46 54
54 49 54 41 40 31 29 26 23 17 18 21 20 18 20 32 37 38 38 38 39 40 42 46 50 54 55 56 59 62 66 68 65 52 45 45 44 44 45 45 48 42 44 47
24 38 53 41 32 28 30 27 22 22 22 20 20 19 24 36 37 38 38 39 40 39 42 46 52 55 57 56 56 60 59 53 49 48 48 47 44 44 39 35 32 35 46 50
32 38 42 37 25 26 23 26 27 23 23 22 22 21 26 34 36 37 39 39 37 39 43 49 52 54 52 52 52 50 49 47 45 45 45 44 39 32 32 35 41 48 71 58
25 34 48 46 26 35 35 27 23 26 25 29 28 25 29 32 35 36 39 39 39 41 47 50 53 53 54 54 53 51 47 44 44 41 41 47 46 40 32 32 53 54 51 52

GFSCGP_925_rhum_048.txt.gz
RH
17 23 25 20 16 13 11 13 19 20 19 26 16 18 55 59 39 30 33 43 45 51 55 60 56 69 69 70 72 68 62 67 72 73 66 68 56 57 54 51 49 60 67 74
21 27 19 16 14 14 13 14 14 12 16 15 12 15 38 62 43 26 31 38 42 45 57 52 53 56 61 65 66 70 70 73 78 74 69 66 58 53 55 52 50 62 68 75
23 20 16 16 17 16 14 15 16 23 17 15 15 15 21 26 21 22 25 29 36 41 54 56 53 53 54 65 68 70 69 70 75 78 72 63 51 48 45 47 55 63 72 76
19 15 17 19 16 13 17 13 14 17 18 20 18 28 19 17 31 22 23 28 31 31 47 52 54 55 57 55 60 60 59 62 64 71 72 64 54 50 45 46 58 65 65 78
22 18 17 22 17 14 16 17 18 18 19 20 22 28 18 17 23 23 24 25 29 30 31 46 46 46 48 49 53 54 55 57 60 59 64 62 54 46 45 46 50 60 74 73
17 13 15 17 15 14 14 17 20 20 22 34 21 20 31 28 32 19 21 23 24 26 28 31 36 40 42 44 49 51 50 51 53 58 52 60 57 51 50 55 60 66 74 74
18 16 14 14 17 15 16 22 36 38 39 41 19 22 24 23 23 17 18 21 23 23 25 28 31 32 39 44 48 51 54 52 51 60 58 60 60 63 53 58 63 70 67 89
24 28 17 16 18 21 21 22 40 65 69 52 32 26 18 17 13 12 11 12 18 22 24 26 28 31 31 37 48 51 53 54 51 52 56 57 46 61 62 63 69 71 60 70
25 23 14 15 15 17 21 27 21 50 47 56 41 29 19 13 11 12 12 13 17 16 22 24 24 29 32 33 38 48 50 52 50 52 56 58 54 62 70 86 81 74 66 84
22 29 16 14 14 16 18 17 31 28 52 56 24 19 21 17 13 12 11 15 17 18 18 20 22 25 27 33 37 42 47 47 49 49 65 64 60 67 84 88 91 90 92 97
19 24 23 16 19 20 21 24 30 27 29 49 49 31 38 22 13 14 13 14 13 16 23 21 22 20 23 26 35 44 49 48 50 54 76 84 84 83 90 92 90 89 96 96
20 27 33 22 16 17 18 22 25 39 39 42 64 38 17 19 14 14 15 14 14 14 16 25 24 24 24 25 29 46 50 51 56 64 77 80 70 82 86 85 89 97 99 90
22 27 38 28 27 20 22 20 20 24 28 39 66 41 15 14 14 14 14 15 16 17 16 20 28 32 31 33 32 36 45 49 60 63 77 81 83 79 93 96 99 100 97 95
34 26 29 43 35 24 26 22 24 30 49 45 39 29 20 16 19 14 16 15 14 16 16 17 27 33 36 38 40 44 49 51 57 62 76 87 89 93 99 100 100 100 99 96
29 37 28 24 20 20 22 22 20 22 21 32 29 24 18 16 19 21 18 16 14 14 15 17 22 34 40 46 49 52 64 64 66 81 89 90 90 92 93 94 96 98 98 96
26 36 33 38 23 21 26 26 18 18 17 17 18 20 13 12 14 16 12 12 16 16 15 20 21 32 44 48 55 65 68 67 66 79 80 81 86 91 92 94 93 90 86 83
35 42 40 48 28 26 36 27 20 18 15 16 21 18 14 14 14 13 14 14 16 18 24 28 30 42 48 54 62 66 69 67 67 69 70 68 70 72 74 74 76 78 81 80
40 43 48 67 61 57 27 20 17 19 17 15 14 12 12 13 13 12 15 15 22 27 31 36 43 49 57 59 62 64 64 65 64 64 65 67 68 67 68 68 74 79 81 84
37 47 68 67 56 39 25 22 22 24 22 15 16 14 12 11 17 19 19 20 29 34 39 41 44 49 52 55 58 56 57 57 60 63 65 67 67 68 71 75 79 80 80 78
38 48 64 73 64 63 37 23 18 18 34 17 15 17 17 15 33 24 27 28 35 36 38 41 45 48 49 50 51 52 54 56 58 62 63 65 66 68 75 78 79 81 81 85
68 70 82 72 75 56 24 20 18 37 36 22 18 17 18 20 22 29 29 34 33 35 37 41 43 45 47 48 49 51 53 55 58 60 62 66 71 75 79 82 81 74 64 58
88 83 88 75 76 72 25 24 30 28 32 26 22 23 22 24 37 35 34 36 36 36 38 41 43 46 47 48 49 51 55 58 66 70 75 77 72 61 56 50 45 43 50 57
71 60 75 51 52 42 35 32 28 29 28 30 29 24 24 40 38 36 38 39 36 36 40 41 45 48 49 48 50 55 64 69 74 70 55 43 41 42 43 48 47 47 51 50
27 40 58 54 46 45 36 36 30 29 34 26 24 24 23 41 38 39 38 38 38 36 39 42 47 51 53 52 55 62 66 67 54 46 45 44 44 43 40 36 34 46 55 51
36 28 41 42 37 30 26 39 38 33 30 29 26 26 31 32 38 38 38 38 38 38 39 44 51 54 56 56 59 61 59 50 48 48 46 46 40 34 33 41 48 57 50 49
29 32 42 57 34 41 40 39 34 32 29 27 29 31 28 29 37 36 38 38 38 39 43 48 52 54 52 54 53 50 48 46 46 46 48 45 38 32 34 46 45 47 48 49

GFSCGP_925_rhum_054.txt.gz
RH
25 32 40 34 33 28 28 30 32 24 23 40 50 49 49 59 64 88 95 91 94 95 91 93 92 97 100 99 94 97 98 88 72 74 75 63 62 58 56 42 46 50 50 53
29 35 28 28 29 30 31 33 32 22 23 26 51 51 51 57 65 68 81 92 91 89 95 92 99 97 100 100 99 88 84 81 83 86 78 71 59 52 43 46 45 43 33 36
33 29 24 27 28 31 32 34 29 23 23 23 45 50 63 56 58 55 64 79 80 82 91 91 92 96 97 99 100 99 89 76 84 86 77 66 56 55 47 48 51 40 42 50
34 23 26 30 31 28 36 25 22 25 28 32 25 39 57 61 58 58 61 71 71 77 75 82 86 90 92 95 95 95 93 80 77 77 80 64 56 58 64 64 61 52 52 54
37 32 32 33 29 26 31 25 25 26 31 33 32 39 36 56 62 60 58 63 66 70 73 76 78 81 84 88 88 86 83 81 77 73 81 68 60 59 60 65 66 55 52 53
27 22 26 27 24 25 22 22 30 37 39 51 38 39 43 65 49 52 48 52 60 67 68 67 70 72 77 80 82 79 76 76 73 69 76 76 66 64 70 71 71 63 53 54
28 27 23 23 25 23 24 33 49 53 65 61 40 47 42 40 40 45 45 50 52 64 67 66 66 68 71 72 75 76 70 68 67 63 67 71 67 61 73 78 72 60 56 59
44 48 28 23 25 28 30 34 57 57 83 66 50 49 32 26 29 36 40 39 43 51 64 63 61 62 65 68 69 72 72 65 61 61 60 54 61 69 78 84 76 62 58 50
48 40 24 21 21 25 29 36 35 63 68 74 60 46 31 22 21 26 37 35 40 48 53 62 59 58 59 63 69 70 69 68 66 67 69 72 75 79 86 87 79 69 59 59
32 46 28 22 20 22 26 28 44 60 70 68 64 52 43 29 21 19 24 32 36 39 45 52 58 60 57 59 64 71 71 71 70 74 75 76 74 73 81 82 74 70 61 73
29 37 37 29 32 30 30 32 36 46 64 67 66 50 43 36 27 21 18 25 33 36 39 45 52 54 57 58 62 66 70 68 68 70 72 74 75 78 84 84 74 69 77 82
30 35 41 34 27 25 26 31 37 55 56 64 75 50 31 29 24 22 22 23 30 34 35 35 40 48 51 52 55 61 63 69 66 65 62 75 75 83 91 89 81 69 80 78
32 42 53 40 31 27 29 29 29 42 58 66 74 60 33 31 28 25 24 24 24 33 36 39 42 41 41 44 49 55 62 65 67 70 77 77 83 94 94 79 92 81 78 89
57 43 37 46 42 36 36 30 28 38 70 58 62 46 36 32 27 25 22 22 25 27 34 40 48 51 47 43 44 49 63 64 68 72 76 81 85 86 88 66 95 81 84 93
57 47 39 33 31 30 29 33 35 36 40 50 43 45 37 36 32 29 25 25 24 24 25 42 44 52 59 59 51 49 61 73 74 76 78 83 87 87 90 94 98 98 100 100
70 75 40 48 34 34 36 28 32 32 34 40 40 44 32 27 27 27 28 26 24 24 26 33 44 54 68 76 69 64 66 71 76 77 78 89 100 99 100 100 100 100 100 100
85 92 87 55 38 35 50 40 36 30 35 36 43 40 30 29 30 28 28 26 26 24 26 27 39 58 73 81 78 85 81 77 83 95 100 100 100 100 100 100 100 100 100 99
78 86 90 76 59 65 36 26 28 32 28 33 26 22 25 24 24 26 24 24 28 27 24 28 52 72 78 82 87 94 95 99 100 100 100 100 100 100 100 100 99 98 99 98
74 88 99 84 65 46 39 31 34 37 35 28 24 21 21 19 20 23 25 26 26 30 42 62 67 79 84 87 86 89 93 94 96 97 99 99 98 99 98 94 88 84 86 84
85 74 90 94 92 64 44 33 27 27 51 28 26 25 28 25 35 34 28 35 42 51 66 82 79 82 84 82 81 83 84 85 88 89 90 91 91 94 91 86 84 81 80 78
98 99 97 98 99 80 53 45 29 44 40 27 26 26 25 32 38 28 36 45 53 63 72 74 78 82 83 79 77 80 80 82 81 79 78 79 80 81 82 82 82 76 75 83
88 98 99 98 99 90 50 46 38 52 55 37 38 33 36 37 34 40 49 57 61 67 72 72 78 77 74 74 72 77 79 77 75 74 73 74 74 74 74 75 79 83 86 91
74 72 89 90 94 57 56 51 64 53 51 46 51 47 38 46 43 51 56 60 60 64 69 67 72 71 69 69 70 76 79 74 73 74 78 80 79 80 80 82 87 88 87 83
61 55 85 78 61 56 48 54 59 50 51 51 47 46 42 43 46 54 57 60 60 63 64 64 67 71 72 67 68 70 75 74 74 82 85 82 81 83 83 84 84 82 73 82
55 70 66 66 54 44 41 37 39 46 56 51 51 43 43 42 53 52 58 59 56 59 61 62 66 71 75 72 75 76 76 74 78 78 77 77 74 70 66 70 72 70 70 68
60 69 77 74 51 51 45 38 40 42 41 39 51 46 47 44 50 53 59 55 56 60 65 68 72 76 80 79 80 78 74 70 70 61 61 62 63 64 60 55 48 50 59 60

GFSCGP_925_rhum_057.txt.gz
RH
28 34 40 31 33 30 28 31 34 31 25 39 48 49 51 68 85 96 97 99 98 97 93 94 92 99 99 100 100 92 94 89 81 82 78 81 74 68 62 60 64 65 60 62
31 39 26 30 31 33 34 37 38 32 26 39 36 38 49 65 71 89 93 97 94 97 99 98 88 97 100 98 99 100 95 83 85 68 76 66 64 58 56 55 53 53 54 55
40 31 26 30 33 36 37 40 38 38 28 32 42 38 57 52 60 67 82 88 88 91 98 95 89 94 99 100 99 99 98 91 81 75 73 63 57 57 54 53 54 52 48 44
39 28 29 33 32 33 40 32 32 30 32 37 29 44 33 60 57 65 68 89 92 89 91 96 89 96 94 98 99 96 94 89 83 76 75 72 60 56 55 52 47 45 44 43
45 37 35 33 30 31 37 32 35 34 36 35 34 41 36 62 59 51 62 75 86 83 86 94 93 96 90 90 97 99 89 85 83 81 76 73 73 62 53 52 47 41 42 43
32 26 30 32 29 30 28 30 34 43 44 52 38 40 46 66 54 40 50 63 72 76 80 82 86 90 91 92 97 97 93 82 74 74 72 78 72 64 56 51 52 48 48 49
31 31 26 23 29 27 31 34 52 50 62 62 44 50 44 36 42 36 44 54 64 67 76 78 84 86 85 91 94 93 92 92 87 78 74 79 75 67 60 54 58 56 59 64
39 47 32 28 29 31 35 38 60 54 72 54 52 56 41 31 28 35 40 42 53 65 66 73 74 76 78 82 88 89 86 86 84 82 74 75 81 79 66 62 62 65 68 69
51 46 28 26 24 26 34 42 35 60 73 79 61 47 35 28 27 38 50 48 51 60 65 67 69 68 70 75 79 82 80 79 77 78 77 72 70 75 73 68 68 72 73 67
36 45 32 25 23 25 28 32 47 61 75 74 59 54 50 36 27 30 34 51 47 48 60 65 64 67 67 67 72 75 76 72 70 69 71 69 66 68 71 69 69 76 80 85
32 39 38 30 35 33 34 38 39 49 63 64 66 57 44 38 34 27 24 30 44 46 51 59 63 61 64 67 70 73 73 71 68 62 61 62 62 60 68 76 74 77 86 87
40 47 47 36 28 26 27 36 39 55 54 68 75 46 30 35 35 29 24 22 32 43 43 47 53 59 61 63 67 73 78 75 70 67 63 62 65 70 78 81 86 74 70 90
53 50 51 44 36 32 34 33 34 48 59 68 67 55 34 35 31 29 28 27 25 32 42 44 49 56 61 62 62 68 74 79 76 76 73 74 80 83 84 88 96 79 77 77
65 54 48 55 43 37 38 33 32 40 61 50 57 41 36 34 32 32 30 28 25 27 37 44 47 51 55 58 62 65 69 72 76 78 78 79 81 85 84 89 88 84 96 94
69 79 71 48 35 32 34 37 36 39 40 46 39 51 35 35 34 31 29 29 24 27 34 44 46 46 47 52 56 59 64 70 72 76 76 76 83 92 87 95 93 98 100 100
67 86 89 67 43 37 38 33 32 34 39 43 40 44 37 32 32 34 31 29 27 28 28 32 43 49 56 50 49 52 56 63 72 74 77 80 89 94 87 99 100 100 100 100
73 84 92 92 73 48 58 42 34 36 37 40 50 44 33 33 35 34 32 32 30 27 27 29 41 46 48 52 55 56 53 60 75 78 86 91 96 99 100 100 100 100 100 100
85 86 96 99 82 91 50 33 30 36 33 33 34 31 28 29 31 31 30 31 31 30 29 30 33 51 49 59 66 66 69 72 84 86 93 98 99 100 100 100 100 100 100 100
74 88 99 98 96 82 52 38 35 39 36 31 34 31 24 21 23 27 23 30 31 30 30 30 30 58 68 69 71 79 90 96 98 100 100 100 99 100 100 100 100 100 100 100
84 81 82 99 95 85 61 42 33 31 48 32 30 32 31 30 41 38 28 30 34 34 42 65 65 74 85 90 85 91 99 100 100 100 100 100 100 100 100 99 99 99 99 99
90 98 92 94 95 88 65 56 56 69 53 40 30 28 30 36 31 28 32 34 42 52 73 78 82 88 88 89 90 95 97 99 99 99 99 100 100 100 99 97 95 94 92 92
89 96 94 96 99 92 66 68 90 66 52 49 51 49 51 46 39 35 34 42 55 63 81 84 90 92 89 86 87 92 94 92 94 96 97 98 98 98 97 93 93 91 90 93
75 74 91 87 84 73 59 72 68 77 71 51 46 48 54 54 49 50 47 54 60 67 82 84 87 89 86 84 83 88 88 86 87 89 91 91 93 95 94 92 94 95 94 100
62 62 69 78 55 56 42 48 46 48 56 58 59 56 48 51 54 54 55 58 63 73 80 79 82 84 84 80 81 81 84 82 83 87 89 89 88 92 91 90 92 96 100 100
62 67 69 73 56 50 46 44 41 46 51 54 56 52 51 51 58 57 61 61 65 74 71 74 80 82 84 80 82 84 82 81 88 91 91 90 90 91 92 93 93 93 96 91
86 93 94 94 85 94 69 67 66 50 47 50 52 50 49 54 52 51 62 62 64 71 75 78 80 84 87 84 85 85 84 80 82 87 87 85 82 83 82 79 78 75 78 83

GFSCGP_925_rhum_060.txt.gz
RH
37 43 46 34 34 29 29 32 34 33 28 29 36 48 40 60 94 87 93 98 99 98 95 96 97 100 100 100 100 100 99 99 97 74 89 81 83 76 70 60 58 50 51 46
37 44 34 30 33 33 33 35 38 34 30 34 37 42 44 66 80 83 87 94 98 99 97 92 86 90 98 99 99 100 100 94 97 88 82 80 79 73 72 72 67 66 62 62
41 36 28 32 38 38 39 41 40 38 36 32 40 44 40 48 62 80 89 88 92 94 94 88 85 91 99 99 99 99 97 88 95 92 83 78 84 72 71 64 54 39 44 67
40 33 32 34 35 34 41 36 34 37 36 45 35 58 34 36 56 70 75 93 92 93 96 87 83 87 94 97 95 98 97 94 84 78 79 73 71 77 68 57 59 55 46 58
44 43 37 38 36 32 31 34 38 38 42 38 38 45 39 59 45 49 64 76 88 92 93 97 91 89 92 95 94 94 97 94 88 78 79 79 70 63 64 54 51 53 52 51
35 31 35 31 30 32 29 32 36 47 48 59 44 43 49 40 41 38 43 59 76 91 92 93 94 96 100 94 90 91 97 95 90 85 80 68 70 60 56 54 55 51 44 49
33 37 28 25 32 34 34 40 55 55 67 66 44 50 41 35 35 40 37 50 66 81 89 94 98 98 99 100 95 95 100 98 93 88 86 79 70 64 60 54 51 50 48 47
39 42 33 28 32 36 41 41 63 60 68 53 52 62 42 33 33 32 38 41 69 81 81 86 89 92 93 95 100 100 100 100 94 89 84 77 76 73 67 61 54 51 48 45
44 40 29 30 30 27 36 46 38 62 73 79 60 46 36 29 29 28 42 51 63 78 77 79 81 83 86 88 93 95 94 95 93 89 83 80 74 78 82 72 64 59 53 49
42 45 34 28 26 28 32 36 52 63 75 78 59 58 45 33 31 31 33 53 56 66 73 73 75 78 79 78 81 84 81 82 83 84 85 83 76 72 75 77 76 70 62 58
36 40 39 30 35 36 36 40 42 51 64 60 62 60 47 36 34 37 31 34 50 58 66 70 70 71 72 74 77 78 80 79 76 74 77 79 76 73 72 74 74 73 69 65
39 46 51 36 31 29 30 40 41 57 54 70 72 45 30 36 34 37 36 28 25 48 55 61 68 68 72 71 76 80 80 77 72 69 70 72 77 74 68 69 70 74 73 74
53 53 60 53 38 34 36 35 36 51 57 66 64 52 34 35 34 33 32 29 30 30 50 58 67 71 69 72 72 76 80 75 75 74 71 69 62 64 72 73 74 75 75 76
67 61 59 62 51 40 41 38 34 44 63 57 64 43 34 36 36 30 34 34 33 29 35 50 59 64 67 67 69 73 76 76 76 75 74 74 69 67 68 73 69 73 81 83
67 73 81 72 59 51 42 39 38 42 44 50 39 50 38 35 35 34 31 31 31 28 26 42 54 58 62 66 68 67 70 74 80 81 78 76 76 73 77 84 86 82 88 88
66 75 80 66 66 62 60 40 38 39 40 44 43 45 36 34 34 35 35 35 34 31 28 29 44 52 58 61 64 66 67 71 76 81 82 79 80 80 84 91 95 96 98 98
78 82 89 84 78 71 64 47 45 39 37 39 44 42 35 36 39 38 36 36 34 32 30 30 33 43 47 51 57 63 66 69 76 79 81 82 83 83 87 96 100 98 99 100
83 86 98 98 75 92 57 42 46 46 41 39 39 36 33 36 33 34 35 35 37 36 32 31 30 38 42 44 48 50 56 62 72 81 82 83 85 88 97 99 100 100 100 100
85 89 98 98 86 66 52 40 48 61 56 39 40 35 32 31 24 28 26 28 29 32 37 37 30 28 30 41 54 62 63 63 72 84 84 86 94 98 98 100 100 100 100 100
91 80 82 98 95 85 53 58 60 62 56 53 51 44 41 33 46 40 26 27 29 34 39 38 35 31 44 53 68 75 95 89 93 92 98 100 100 100 100 100 99 99 100 100
93 99 90 91 80 82 66 64 62 71 53 80 75 67 58 52 45 42 44 34 34 43 54 64 70 77 71 77 81 88 100 99 100 100 100 100 100 100 100 100 100 100 100 100
82 94 99 97 99 92 59 63 66 65 77 65 62 70 63 58 56 56 55 50 48 47 61 79 86 87 90 89 88 98 100 100 99 99 100 100 100 100 100 100 100 100 100 100
74 76 87 83 85 63 63 56 63 74 71 66 62 57 61 68 54 59 56 60 65 69 74 87 90 96 96 94 91 98 100 100 100 100 100 100 100 100 100 100 100 100 100 100
59 66 73 68 52 62 55 53 56 61 69 51 45 51 57 66 59 60 65 67 72 79 84 85 88 94 94 90 90 91 94 95 97 100 100 100 100 100 100 100 100 100 100 100
60 68 69 75 73 77 66 74 80 79 71 53 41 50 59 62 58 63 74 76 77 81 82 85 89 91 94 90 93 95 92 90 94 96 95 96 98 96 98 99 100 100 100 92
94 87 89 85 91 94 88 82 84 88 83 75 74 69 69 75 81 80 73 76 78 86 87 88 92 93 92 93 96 96 93 90 92 95 95 96 96 96 97 99 100 100 100 100

GFSCGP_925_rhum_063.txt.gz
RH
39 40 38 27 30 27 28 29 29 25 22 26 30 32 26 37 71 72 72 76 89 88 80 90 88 97 98 100 100 100 100 100 93 89 91 79 84 79 67 68 47 60 51 48
40 46 34 30 30 27 28 30 30 27 27 27 27 28 24 39 47 60 60 67 79 89 87 86 82 96 100 99 100 100 100 100 100 98 99 82 91 95 73 69 64 59 58 49
37 31 32 31 34 33 33 33 34 28 30 28 33 30 27 30 48 57 59 54 66 82 88 84 81 86 96 98 100 99 100 99 100 98 91 90 85 83 80 71 52 40 58 51
30 29 34 33 33 30 36 31 29 31 29 35 30 38 30 24 31 47 48 63 66 74 76 76 76 82 89 93 98 100 100 100 99 93 89 86 79 81 80 75 72 60 55 54
38 40 35 35 29 30 25 31 32 32 34 39 36 36 29 34 29 24 31 51 60 69 76 75 73 79 83 88 94 96 99 98 100 92 87 82 78 75 75 75 67 64 62 54
30 34 30 24 31 29 28 30 38 43 42 52 36 35 29 30 26 25 27 37 52 65 74 72 75 79 82 89 92 94 95 93 94 96 87 77 76 73 69 67 64 58 54 41
38 34 30 30 33 32 30 34 45 52 58 50 39 40 28 26 24 27 26 26 44 58 70 77 83 81 86 92 91 92 89 88 91 88 86 81 81 71 68 65 63 64 58 50
44 46 34 31 33 35 35 31 48 53 55 42 46 44 27 28 26 28 27 29 36 59 65 72 76 80 86 95 89 90 90 90 91 91 86 82 81 79 74 66 64 58 64 60
41 38 27 31 30 29 39 41 32 53 66 58 44 41 30 24 22 24 24 38 44 58 62 66 71 77 79 85 90 92 91 92 91 91 91 86 85 80 77 75 69 60 53 51
40 46 33 27 26 28 31 32 40 50 52 59 48 48 33 27 24 24 28 27 40 51 60 63 67 74 76 78 84 92 90 88 88 90 91 88 84 82 79 80 77 70 66 64
39 37 38 35 33 34 34 36 42 40 50 47 47 41 41 30 29 28 32 30 28 42 54 59 62 67 73 74 80 88 87 85 87 87 88 88 87 84 83 82 78 73 69 70
37 47 49 40 31 28 28 33 36 46 53 59 58 38 29 31 31 34 30 29 26 23 38 52 57 63 68 71 74 80 84 83 85 86 86 88 86 86 86 82 79 81 82 80
62 51 53 45 36 34 33 32 38 47 51 46 57 40 30 32 29 30 31 28 26 27 28 45 56 60 63 66 70 73 78 80 78 80 82 85 88 88 85 81 79 79 84 83
67 67 58 52 55 53 46 37 33 36 57 47 48 37 31 30 29 24 28 30 27 28 27 32 48 55 58 64 66 70 75 76 75 76 76 76 80 80 80 78 81 80 79 78
68 76 73 68 58 58 56 50 40 38 37 42 36 38 31 32 29 25 28 32 30 29 30 28 34 43 53 61 66 67 69 75 76 75 73 71 73 75 75 75 77 79 77 75
52 73 76 66 57 53 56 49 43 38 38 39 37 37 30 27 31 32 30 28 27 28 27 28 30 34 47 56 61 65 68 74 78 77 75 73 74 75 74 73 75 79 80 77
62 78 76 64 72 58 63 52 45 43 39 39 46 36 30 29 33 36 32 30 32 31 30 30 30 35 38 45 55 60 64 69 78 78 76 77 77 78 80 78 80 86 89 91
63 83 87 76 72 61 49 48 42 47 42 41 39 42 37 35 31 28 29 31 31 31 32 33 31 32 32 37 47 54 59 68 74 74 75 78 81 82 82 84 86 92 96 99
62 65 95 83 66 53 35 47 56 59 47 67 63 61 56 48 37 30 27 30 32 33 32 32 30 31 30 35 41 51 63 68 72 75 77 78 82 83 85 91 94 100 99 100
69 69 90 94 91 73 49 51 55 60 54 64 61 60 62 54 60 47 43 49 44 32 31 36 37 36 35 37 55 59 60 65 68 73 77 85 90 91 100 99 98 100 100 100
88 90 95 98 85 65 53 54 59 50 47 56 63 59 58 58 53 53 53 48 47 47 44 55 67 66 71 76 76 73 79 76 88 94 97 99 99 98 99 100 100 100 100 100
79 82 85 83 93 82 52 58 58 54 56 60 58 56 54 54 57 58 50 50 54 60 65 76 78 86 96 99 89 95 95 100 99 99 100 100 100 100 100 100 100 100 100 100
63 72 77 74 72 59 61 62 62 67 70 67 65 56 47 54 51 58 52 55 58 65 73 83 85 88 94 95 93 93 100 100 100 100 100 100 100 100 100 100 100 100 100 100
56 64 70 65 49 59 59 63 74 70 76 72 66 65 60 52 51 59 58 63 64 68 77 83 84 88 94 98 98 100 100 100 99 99 100 100 100 100 100 100 100 100 99 100
51 64 64 67 60 65 72 83 80 73 71 70 64 66 69 67 69 71 68 75 78 77 82 86 86 88 92 97 100 100 100 100 99 100 100 100 100 100 100 100 100 100 100 99
78 79 78 69 88 87 82 75 77 76 76 72 71 70 67 68 70 73 72 72 73 77 84 82 82 82 86 90 94 98 100 99 99 99 99 100 100 100 100 100 100 100 100 99

GFSCGP_925_rhum_066.txt.gz
RH
32 31 32 22 21 16 14 16 16 12 13 17 15 15 15 14 24 34 33 38 47 50 50 58 71 84 95 99 99 100 99 99 98 99 92 91 94 94 78 91 84 79 75 74
36 41 24 20 18 20 17 18 17 13 17 18 12 16 15 13 18 21 29 34 40 51 56 59 68 76 88 100 100 100 100 99 94 91 89 76 88 87 77 64 65 74 80 54
31 25 26 25 23 23 19 19 18 17 19 17 20 20 17 13 20 25 28 27 34 45 53 60 63 72 86 97 100 100 100 99 96 93 96 87 92 81 80 73 60 71 77 50
24 17 25 27 28 21 23 16 18 20 22 16 22 25 16 15 15 17 20 32 32 40 47 51 55 64 73 90 97 97 100 100 100 98 96 86 82 78 73 72 69 79 74 63
29 22 22 26 22 19 22 16 22 21 22 20 17 26 15 16 18 14 13 19 31 37 45 49 52 56 63 75 88 88 93 100 100 100 95 92 78 72 71 79 77 70 82 69
38 22 21 19 18 20 20 22 23 23 21 32 22 26 19 15 17 14 14 17 24 34 43 44 50 54 56 70 75 79 84 93 100 100 98 92 80 78 78 81 87 83 81 62
44 28 24 21 20 21 22 24 34 36 39 32 22 28 22 15 14 16 17 16 21 31 41 44 48 50 52 62 73 77 76 77 95 100 96 89 82 81 80 82 81 78 69 75
38 46 27 26 23 27 25 24 30 39 38 31 27 32 22 15 14 17 16 16 19 29 38 43 44 49 52 59 66 75 73 69 81 92 90 80 79 80 75 71 78 79 75 72
36 38 25 25 24 22 28 32 21 33 41 34 29 24 21 16 15 14 16 18 23 25 33 39 42 49 52 57 62 68 66 64 71 78 88 85 76 74 64 67 71 71 70 68
27 36 25 24 24 23 26 22 35 33 44 46 30 30 26 19 16 14 18 18 22 29 32 36 41 50 53 56 59 64 64 62 66 72 75 77 72 72 66 65 64 62 59 60
30 32 34 24 33 27 29 31 30 26 28 38 40 31 23 20 17 18 18 18 20 26 32 36 38 45 52 55 58 62 64 61 63 69 71 72 72 72 71 70 67 63 61 61
31 38 37 31 23 19 20 25 27 35 39 35 37 31 22 22 19 21 18 17 18 17 22 31 36 41 49 54 55 58 63 62 62 64 67 71 74 72 73 73 71 69 69 67
47 36 37 34 29 27 28 24 24 25 28 37 51 32 19 24 20 17 19 16 16 18 20 25 33 39 43 49 53 55 61 61 60 62 64 68 72 72 72 72 72 71 72 70
52 48 37 31 29 34 34 28 25 30 40 35 30 26 22 20 19 17 16 16 18 18 18 22 29 34 38 43 48 52 56 60 59 60 62 62 68 72 72 72 72 72 71 70
47 86 63 52 51 47 46 44 34 29 28 34 28 27 23 20 19 19 19 19 18 18 19 19 21 26 31 38 44 48 51 56 59 58 58 58 64 67 68 71 72 72 73 73
43 78 58 51 43 44 47 39 37 33 31 31 30 30 21 20 21 22 22 20 18 19 19 18 18 18 22 30 39 45 48 52 58 59 58 56 58 62 66 66 68 69 71 71
51 64 62 57 42 38 48 42 37 36 32 32 37 31 27 27 27 27 24 25 24 20 20 20 21 21 20 22 30 38 45 49 56 57 57 58 58 60 62 65 66 66 67 70
48 72 57 62 60 67 44 35 32 35 37 34 35 41 39 38 35 29 33 36 34 28 27 21 20 21 22 25 24 32 36 44 53 55 56 57 59 60 61 64 65 65 67 71
47 52 77 56 52 38 28 37 37 35 50 39 38 39 39 35 32 34 37 38 40 36 32 27 25 25 29 27 26 29 31 36 43 50 53 54 58 61 62 65 68 69 72 80
45 47 58 75 58 45 31 44 42 45 36 31 40 38 37 36 51 36 36 39 38 37 36 40 41 45 44 44 41 32 34 35 39 44 49 52 58 62 65 67 73 84 88 98
73 67 69 69 64 42 34 44 47 39 44 38 35 34 37 38 35 37 37 37 35 39 42 53 52 56 66 73 66 52 42 41 43 49 56 60 65 69 71 84 99 100 100 100
62 62 69 60 68 76 46 36 40 52 43 48 47 47 56 52 46 37 34 37 38 41 48 61 63 69 77 79 73 67 70 91 85 83 87 91 93 98 99 100 100 100 100 100
58 44 52 46 48 50 48 47 57 60 62 61 60 54 56 53 50 46 40 41 45 46 52 62 68 73 85 92 86 83 100 99 99 100 100 100 100 100 100 100 100 100 100 100
38 42 46 44 39 42 49 55 56 56 60 56 54 54 54 58 54 53 53 55 55 52 58 64 66 73 83 92 97 100 100 100 100 100 100 100 100 100 100 100 100 100 100 100
37 42 38 39 34 47 61 59 65 62 58 58 55 55 57 58 55 59 59 59 58 61 67 68 69 74 80 88 94 98 98 98 100 100 100 100 100 100 100 100 100 100 100 100
43 43 51 48 74 79 68 64 69 70 66 63 62 60 56 58 60 60 63 67 69 70 74 78 84 89 86 90 96 100 96 98 99 100 100 100 100 100 100 100 100 100 100 100

GFSCGP_925_rhum_069.txt.gz
RH
15 24 29 24 22 18 15 14 15 14 10 13 14 12 11 10 13 17 20 20 27 33 30 38 50 60 87 99 99 100 99 100 99 99 100 100 100 100 99 86 73 67 68 72
15 23 19 18 19 19 17 16 16 13 11 13 13 11 9 9 10 13 16 19 22 31 33 39 50 61 77 99 99 100 100 100 98 96 94 91 97 95 89 68 74 64 59 60
34 16 19 22 22 22 20 21 19 17 13 15 15 15 12 10 10 11 13 14 17 26 34 40 45 54 70 86 91 100 99 99 97 90 89 92 92 92 86 84 82 82 71 71
42 20 22 26 27 21 24 16 16 16 17 21 13 18 14 11 12 12 13 16 16 22 32 36 42 48 62 81 94 95 98 94 92 87 81 85 79 90 85 78 86 81 81 73
64 35 23 28 26 21 24 17 17 17 20 20 18 17 14 12 11 11 10 12 18 20 30 35 40 43 51 74 90 94 99 96 91 88 84 86 83 70 81 73 77 84 77 82
54 37 39 23 17 19 16 19 19 20 22 31 22 20 18 14 12 12 10 10 16 20 26 32 36 40 42 60 81 87 97 100 97 92 93 87 80 70 74 78 68 80 83 81
55 48 35 30 20 21 18 23 32 36 35 36 18 20 18 12 11 12 12 11 15 18 26 32 34 37 38 49 64 76 85 92 100 100 94 84 79 77 71 80 79 73 89 85
86 74 38 26 22 23 22 23 32 44 42 30 19 25 19 13 11 12 13 13 13 18 26 31 32 35 37 45 55 62 69 77 93 100 97 88 82 77 68 66 72 81 82 77
56 52 32 36 22 22 24 27 19 26 34 36 24 21 17 15 13 12 12 14 15 17 24 29 30 34 38 42 51 58 60 60 75 90 99 95 86 80 76 74 77 77 73 72
49 51 34 44 28 26 29 20 30 25 49 52 32 26 23 18 15 13 14 16 17 18 21 27 30 34 37 40 45 54 58 54 57 78 89 92 84 80 75 75 77 77 75 70
32 34 44 33 47 36 30 28 26 24 28 39 42 33 18 18 17 15 16 15 17 22 22 26 28 32 37 40 44 50 55 52 51 59 68 79 80 76 74 71 68 69 70 76
28 34 50 39 28 29 27 27 28 36 37 31 37 40 17 17 16 16 16 14 15 15 22 24 27 30 37 40 44 46 50 51 49 53 58 65 73 73 73 71 67 63 64 68
69 45 48 49 41 24 34 30 25 27 33 61 53 33 18 18 17 15 15 14 14 15 16 20 26 29 33 38 42 44 48 48 48 50 54 60 64 68 69 70 70 66 65 64
53 57 53 49 41 28 32 26 24 28 42 37 39 31 21 18 18 17 15 15 15 15 16 16 21 26 29 34 39 42 44 49 48 48 50 55 62 65 67 68 69 70 69 68
53 89 71 38 46 34 32 29 26 27 28 34 29 25 19 18 18 17 18 18 17 15 14 15 16 20 25 30 35 40 42 46 50 48 48 49 58 63 64 66 68 69 69 69
58 82 96 62 36 38 37 31 29 28 29 29 28 29 20 18 19 21 21 20 18 17 16 17 17 16 16 21 29 33 39 43 48 51 50 50 52 57 60 64 67 68 69 69
52 77 92 92 60 48 53 41 38 38 31 33 36 33 30 25 27 28 28 26 33 29 24 22 20 17 18 18 19 28 33 38 44 50 51 50 52 54 58 63 65 66 68 70
51 62 68 92 77 81 54 30 31 40 36 30 33 29 28 27 25 28 31 36 37 36 35 30 25 22 21 24 21 22 24 33 39 44 48 49 50 52 54 58 61 63 66 69
42 51 71 77 79 74 36 41 44 55 49 30 34 31 27 24 25 33 31 33 34 34 34 38 39 38 35 34 36 29 23 23 31 39 45 46 47 50 52 54 58 62 64 66
38 44 60 65 88 76 46 38 38 30 63 29 30 31 30 26 31 25 28 32 32 30 34 44 46 50 59 61 59 52 39 28 27 28 38 42 45 47 50 54 58 62 64 67
55 55 60 63 55 36 32 35 36 51 71 36 35 38 41 42 39 36 31 30 28 32 36 44 50 59 67 69 66 57 54 62 64 48 41 41 43 47 50 53 58 64 76 92
52 58 59 52 55 58 36 34 47 52 42 45 42 44 48 45 43 43 40 34 33 36 39 46 51 62 75 81 78 77 88 96 96 91 91 91 87 89 81 84 98 99 100 100
53 38 45 39 42 42 42 53 49 49 50 51 50 46 48 48 47 45 46 42 45 40 44 49 53 63 76 85 94 95 99 100 100 100 100 100 100 100 100 100 99 99 100 100
34 38 44 47 41 50 50 47 49 48 52 49 47 49 49 54 50 49 47 47 46 47 51 55 58 64 73 84 91 98 100 100 98 100 100 100 100 100 100 99 100 99 99 100
45 35 31 32 42 43 46 53 57 53 52 52 50 51 52 53 52 52 51 54 54 56 62 66 70 72 80 89 95 99 100 100 97 98 100 100 100 100 100 100 100 99 100 99
29 45 42 58 61 57 55 57 57 57 59 57 56 56 52 53 55 54 57 62 66 69 70 72 78 80 80 84 94 100 99 100 100 100 98 97 100 100 99 100 100 100 100 100

GFSCGP_925_rhum_072.txt.gz
RH
20 29 33 28 25 25 22 20 18 13 11 13 14 13 11 10 11 15 16 17 21 30 29 34 44 55 78 94 100 100 95 98 100 99 100 100 100 100 99 99 95 78 69 65
40 37 33 24 22 22 23 26 23 15 12 13 13 14 11 10 10 11 15 17 18 27 30 38 47 57 77 88 98 99 99 99 97 99 99 100 100 100 99 86 88 86 85 71
65 43 27 31 19 26 25 26 25 20 14 13 13 16 15 11 9 9 10 13 15 26 32 38 47 55 77 83 96 100 99 99 98 98 100 100 100 100 100 96 91 86 78 72
80 66 34 49 44 20 28 21 21 20 21 25 15 23 16 13 12 10 11 14 14 18 30 35 43 53 64 77 86 94 99 99 97 95 98 98 97 97 89 79 74 58 58 63
66 66 53 53 43 23 28 27 31 21 22 24 19 22 18 12 13 12 12 14 16 16 31 34 41 46 58 72 82 93 93 97 95 93 91 93 92 88 85 67 67 79 72 66
50 43 59 62 46 30 26 32 44 29 26 35 24 24 22 17 14 11 11 11 16 18 31 32 38 42 51 71 81 89 94 94 91 92 85 86 84 84 83 77 74 87 84 82
56 52 55 52 59 38 35 59 76 56 44 43 22 24 22 15 12 11 11 11 15 20 28 32 39 40 45 68 81 92 94 91 95 92 88 84 82 82 84 77 74 82 84 84
76 81 56 55 52 55 38 50 49 64 53 38 22 27 20 13 10 11 12 11 14 18 27 32 36 39 40 62 73 82 88 90 92 96 93 86 84 80 79 81 73 69 79 84
71 63 42 48 49 53 53 47 32 39 40 50 30 20 18 13 12 12 12 13 14 16 25 30 33 38 39 48 63 72 84 88 96 98 95 90 88 82 78 79 80 71 71 78
54 90 48 49 43 55 57 42 57 36 60 81 40 32 25 20 16 13 13 16 17 16 21 28 31 39 38 43 52 63 64 71 87 90 97 95 87 84 80 75 76 78 78 78
49 84 60 64 79 66 53 41 43 34 33 55 60 42 44 25 16 16 18 18 19 21 22 29 30 35 36 40 48 57 60 58 69 87 93 92 91 87 85 79 74 70 78 80
63 71 67 50 32 46 41 47 39 52 53 36 48 41 28 21 17 18 16 15 18 17 23 26 30 35 36 40 43 53 58 58 54 71 82 88 89 87 86 83 80 79 78 80
66 72 62 55 39 59 62 53 50 45 52 58 75 39 24 20 18 16 16 16 16 17 20 25 29 32 37 38 42 44 52 56 54 54 64 78 85 86 84 83 80 78 78 77
68 69 69 67 69 77 68 48 45 51 78 64 66 41 39 26 19 17 17 19 19 20 18 18 25 29 33 37 40 44 47 51 52 51 54 61 73 80 80 80 78 76 74 72
80 100 91 84 69 66 72 55 51 52 48 52 41 43 38 38 31 21 21 19 18 18 21 19 20 23 28 33 38 41 44 48 50 49 49 54 61 68 74 76 76 75 73 70
64 87 80 70 54 57 94 48 47 55 46 36 28 37 27 23 23 28 34 35 35 33 30 26 24 22 21 26 32 36 41 45 49 50 49 49 52 61 66 69 71 73 73 74
55 76 98 93 87 74 62 58 51 43 35 39 51 53 32 30 27 37 39 39 40 38 36 37 35 34 31 26 28 28 36 41 45 50 52 51 50 52 60 66 69 70 72 73
52 67 89 95 86 86 53 56 46 51 56 52 48 43 33 27 31 33 35 38 39 38 39 44 43 44 47 52 55 51 44 29 41 45 48 52 52 53 54 59 64 67 70 72
46 55 82 97 85 79 51 67 76 49 73 66 52 40 28 23 36 35 29 33 36 36 39 45 50 57 61 66 65 61 52 43 32 44 44 46 51 53 53 55 58 63 67 70
40 52 69 86 87 91 56 62 66 72 99 57 49 41 42 33 54 48 37 32 31 33 41 45 57 66 75 78 76 75 81 82 80 89 86 78 49 49 51 54 56 59 64 67
61 66 76 77 88 48 35 57 64 88 87 60 48 46 48 52 48 43 40 38 35 36 43 46 61 72 80 85 83 89 92 96 99 98 95 97 96 88 76 55 54 57 62 69
59 69 75 62 65 67 45 50 60 67 63 46 47 51 53 49 45 44 43 46 42 43 46 49 57 68 78 85 90 92 97 99 99 100 99 99 99 99 100 98 94 82 88 95
56 46 57 45 50 55 52 55 51 52 54 52 51 48 49 51 49 47 48 49 46 47 52 57 59 66 78 86 92 96 99 100 98 94 98 99 99 99 99 100 100 100 100 100
54 49 67 52 63 61 54 49 49 50 53 50 49 51 52 55 52 52 52 55 54 56 60 65 68 71 76 84 91 96 99 99 98 96 94 95 94 99 100 100 100 100 100 99
50 48 41 79 84 85 61 56 53 53 52 52 50 52 55 54 55 54 59 61 62 66 69 72 76 78 81 86 92 98 100 99 98 100 100 99 98 95 98 100 100 100 100 99
59 68 71 98 66 82 70 60 54 58 60 56 58 59 58 59 59 57 63 67 70 73 76 77 81 84 87 92 99 100 100 100 100 100 100 100 100 100 98 95 98 93 97 100

GFSCGP_925_rhum_075.txt.gz
RH
34 31 34 32 40 37 35 34 34 23 16 17 18 15 14 14 14 22 23 21 33 40 44 52 73 74 85 87 95 93 100 96 99 100 100 100 100 100 100 96 90 86 71 70
47 44 33 28 30 32 34 35 33 26 21 21 22 25 16 15 16 16 22 24 28 42 50 57 85 84 87 95 87 96 99 100 98 97 99 100 100 100 100 100 93 74 73 75
56 47 42 46 30 38 37 38 31 29 23 23 21 21 17 15 14 14 19 19 24 40 54 59 81 88 92 99 98 97 97 99 100 96 100 100 100 100 100 100 98 82 75 77
80 62 62 63 46 36 52 37 31 27 32 60 36 37 24 17 16 15 14 21 25 39 50 56 70 88 89 87 84 89 99 95 100 99 100 100 98 98 98 98 95 87 81 76
61 72 67 78 53 37 45 41 43 48 63 61 52 36 26 20 20 17 14 21 24 38 50 57 64 82 84 80 98 98 100 99 98 100 100 99 100 99 98 91 92 89 84 80
56 44 63 69 48 41 49 57 48 60 64 84 58 42 32 24 21 19 14 18 21 39 46 52 59 70 82 86 90 100 100 96 99 100 98 98 97 96 95 90 86 88 87 80
53 54 50 58 66 52 54 67 90 91 94 90 39 38 28 24 18 16 18 20 25 40 44 52 61 68 79 83 83 94 94 97 98 99 98 95 95 90 88 81 77 80 82 80
71 80 59 54 66 64 54 87 84 92 87 56 31 38 28 19 16 15 13 22 27 40 42 50 54 62 78 83 81 85 90 94 95 96 95 93 90 89 85 76 70 70 77 77
68 66 51 50 53 62 74 96 62 83 60 91 59 26 21 18 17 17 16 18 30 40 42 48 50 55 75 85 86 89 86 82 95 94 93 90 91 89 87 82 71 67 73 82
58 86 50 47 64 69 69 56 83 99 93 93 60 52 34 23 21 19 17 20 21 34 40 46 47 51 68 79 88 90 91 89 89 92 94 92 87 86 84 87 79 71 69 76
54 87 67 70 93 94 86 93 91 88 89 77 90 76 55 42 28 24 27 26 28 34 40 44 44 46 55 72 81 85 91 91 94 92 94 93 91 87 84 83 86 80 73 69
80 95 91 62 49 56 60 89 86 99 83 64 67 80 49 34 26 25 25 22 22 27 38 41 43 46 50 58 72 78 81 88 90 91 89 89 83 90 90 86 81 84 84 78
70 95 96 63 48 39 69 75 74 84 85 94 91 73 51 29 25 22 25 26 26 29 36 43 45 46 49 51 59 67 71 69 74 89 90 90 88 86 85 87 81 79 80 84
68 74 80 88 86 96 99 91 70 81 99 80 74 57 58 55 37 31 31 32 32 33 28 39 49 46 47 49 55 60 65 64 60 83 88 92 91 91 85 82 86 82 84 80
80 97 80 76 65 75 76 83 94 78 85 96 73 56 70 60 56 47 41 40 40 41 43 42 41 40 44 53 50 52 59 64 62 61 78 85 89 88 90 89 91 90 88 87
76 91 84 78 56 74 83 81 89 88 73 79 74 76 70 60 64 46 44 43 44 46 49 50 51 57 60 60 67 60 55 59 60 60 58 61 76 88 89 89 89 90 88 86
82 81 90 93 76 88 100 85 90 78 76 76 91 74 72 75 52 47 49 45 46 52 52 59 64 64 67 70 69 68 61 61 63 59 58 56 55 66 79 85 85 86 86 86
66 79 87 97 90 98 72 56 67 80 79 68 69 62 57 64 45 44 44 44 48 54 59 67 71 75 80 83 81 80 76 78 85 88 80 68 64 59 64 71 77 81 82 84
59 75 91 92 94 75 69 87 85 81 92 82 86 76 68 65 52 54 45 46 54 58 68 74 76 80 83 87 88 89 90 90 93 94 97 98 92 88 66 64 68 72 76 78
48 64 78 91 96 96 73 79 64 63 99 78 76 76 69 54 82 68 52 52 53 56 73 75 76 79 82 86 88 90 92 93 94 95 97 100 100 100 96 98 93 73 75 77
67 73 90 90 93 79 63 67 57 96 99 87 70 63 58 64 62 60 51 52 53 56 62 68 76 81 83 87 88 91 95 95 96 97 98 99 99 99 100 100 99 98 97 83
68 92 92 84 85 82 66 78 96 90 81 65 66 67 63 58 56 58 56 58 59 62 65 69 74 78 82 87 90 92 96 98 98 98 97 98 99 99 100 99 100 99 99 100
78 67 79 68 73 71 69 83 62 57 63 63 63 59 58 61 60 61 62 64 65 66 70 72 73 76 83 89 94 96 98 99 96 97 99 100 98 99 95 93 94 98 99 100
70 47 65 63 74 70 64 59 58 58 59 57 57 59 59 64 63 64 65 66 68 70 72 75 76 79 84 90 96 100 100 100 97 99 100 100 99 100 100 100 100 97 96 99
99 72 89 100 99 88 82 62 62 60 59 59 60 62 65 64 66 67 70 70 71 74 76 79 82 83 87 91 98 100 100 99 98 100 100 100 99 99 100 100 100 100 100 98
98 97 100 100 98 97 94 70 63 66 65 63 64 65 65 65 67 69 74 75 77 79 80 83 86 90 92 94 100 100 100 100 100 100 100 100 100 98 97 97 99 99 100 100

GFSCGP_925_rhum_078.txt.gz
RH
35 40 48 32 40 44 43 46 46 37 28 29 33 27 23 19 20 14 16 25 43 46 51 73 85 98 94 88 81 81 94 98 99 100 100 100 100 100 100 100 98 87 88 72
53 55 40 30 34 37 40 45 44 35 27 26 28 28 26 22 22 16 18 25 36 58 63 81 95 100 100 99 84 85 92 95 97 98 99 99 100 100 98 100 99 93 86 79
62 52 40 37 51 62 46 44 43 42 38 31 29 36 35 27 22 16 19 22 30 54 65 87 92 98 99 100 96 99 93 94 99 96 99 100 99 100 100 100 100 96 86 76
67 66 62 67 68 58 75 35 38 46 53 64 41 68 42 33 29 19 18 22 33 51 60 80 88 98 98 100 94 94 95 97 100 100 98 96 98 98 100 100 98 97 86 79
59 62 67 75 73 61 66 36 44 56 65 72 49 68 44 32 29 21 19 21 36 50 59 80 87 93 100 99 100 94 92 98 96 89 99 99 100 97 98 100 100 98 90 86
55 48 59 64 58 56 43 54 53 58 69 85 49 63 51 37 28 21 19 18 32 52 56 71 80 89 97 98 98 89 97 98 100 97 92 100 98 95 99 100 100 98 93 87
57 57 50 59 67 57 61 70 87 90 91 80 40 53 44 32 25 22 19 17 31 51 59 72 89 89 92 100 100 97 100 99 99 100 98 98 98 99 93 93 96 95 92 90
77 74 61 62 62 74 77 85 98 88 95 71 43 56 37 25 22 20 18 22 39 53 59 69 79 83 91 96 99 96 99 98 98 100 100 100 96 96 96 92 91 88 87 85
72 71 51 56 56 62 91 98 72 99 96 96 72 46 24 20 20 20 21 40 50 54 57 64 72 78 87 90 94 93 92 92 94 100 100 99 97 96 92 90 86 81 82 83
62 80 55 62 57 64 80 81 100 100 96 96 64 55 44 46 38 24 22 38 49 50 55 60 68 77 81 86 89 84 82 84 93 99 100 99 96 94 92 87 83 81 77 79
69 77 71 72 84 84 94 96 93 86 91 98 98 81 51 63 56 38 29 32 46 49 54 57 62 74 80 86 90 89 86 82 86 86 96 95 96 94 92 89 82 76 75 76
82 84 91 77 52 65 79 94 86 93 96 82 89 82 71 73 57 34 29 33 37 45 51 54 56 70 80 87 93 95 94 89 89 87 88 90 92 95 94 91 90 82 74 70
73 84 84 72 59 70 74 74 79 93 91 99 97 80 74 65 66 45 43 45 42 44 55 55 56 62 76 82 88 91 95 93 93 94 92 91 89 90 92 90 90 89 83 78
69 81 85 87 79 85 100 96 95 96 100 83 87 69 83 74 75 62 48 52 52 52 54 60 65 64 62 66 79 84 89 93 93 95 97 96 95 92 88 84 89 88 88 86
82 90 86 79 70 66 65 84 77 92 96 93 63 71 85 92 83 65 51 53 59 64 70 71 75 77 82 82 78 65 72 79 84 93 94 93 91 89 89 87 84 86 88 86
82 90 82 86 62 62 78 76 68 67 87 86 74 80 78 89 87 59 51 53 64 71 72 74 74 77 80 82 83 86 87 83 71 81 93 93 96 96 93 90 87 84 88 90
96 100 93 92 72 72 91 81 71 64 75 77 92 65 83 91 87 79 55 60 73 76 75 78 81 80 84 88 87 89 90 92 86 83 80 81 88 94 95 93 92 91 91 94
94 93 91 96 90 97 81 62 78 93 91 71 72 77 88 78 77 73 69 78 85 80 78 78 81 82 85 87 90 91 92 93 94 95 94 93 90 92 91 96 97 97 95 97
72 83 93 88 94 64 68 90 92 98 97 87 84 86 81 68 62 70 67 76 77 76 72 76 80 83 84 85 88 89 89 89 91 93 96 99 100 99 99 100 99 99 96 96
67 72 81 97 92 82 84 70 70 82 100 90 84 90 89 76 93 82 64 64 67 68 73 78 82 84 85 86 88 90 91 92 92 92 94 97 99 100 100 100 100 99 97 100
85 90 89 86 88 78 57 74 80 99 99 81 79 85 85 92 79 69 62 66 67 68 71 75 80 82 85 89 90 92 95 94 95 96 95 96 98 97 100 100 100 100 100 100
78 90 88 92 92 83 68 77 97 96 90 86 82 76 80 77 71 69 66 69 69 70 72 74 77 81 85 90 91 93 96 96 96 95 96 99 100 99 98 99 100 100 100 99
98 72 86 71 76 83 82 92 86 80 83 74 74 67 69 72 70 68 71 72 70 73 74 75 77 80 87 91 97 97 100 98 99 94 100 100 100 100 100 100 100 100 100 100
96 83 74 69 99 92 82 69 72 71 68 64 64 64 65 70 70 72 72 73 73 75 77 77 78 81 88 95 99 100 100 98 98 99 100 100 100 100 100 100 100 100 100 100
100 99 98 100 100 97 97 94 70 67 66 66 64 66 67 70 74 74 75 75 77 79 80 84 86 87 93 98 100 100 100 99 97 99 100 100 100 99 99 100 100 100 100 100
100 99 100 100 100 100 100 82 66 71 70 66 68 71 68 70 75 74 77 79 81 84 85 88 90 93 97 99 100 100 100 99 98 99 100 100 98 96 96 95 98 100 100 98

GFSCGP_925_rhum_081.txt.gz
RH
35 38 45 36 43 40 48 51 52 46 36 36 35 36 30 27 25 28 24 22 20 38 44 73 88 88 89 90 94 94 99 99 98 98 98 100 100 100 100 100 99 100 100 97
55 59 42 35 34 34 41 49 50 42 35 35 39 40 31 27 26 25 26 23 20 57 88 92 97 98 100 98 93 96 99 98 99 99 100 100 99 100 100 100 100 100 96 88
67 56 46 44 41 47 51 62 52 49 41 38 40 41 32 25 29 30 28 20 22 56 81 94 90 94 96 99 100 100 92 98 98 93 100 100 100 99 100 100 100 100 98 88
62 57 61 58 67 62 77 54 51 43 57 66 52 69 49 40 34 29 27 23 33 53 64 85 91 89 94 98 100 99 94 95 93 92 99 99 99 98 99 100 100 100 97 96
61 67 67 72 68 63 67 61 55 56 67 70 60 76 52 38 38 32 28 23 28 44 63 84 93 86 93 98 100 100 94 98 100 95 88 100 98 97 99 100 100 100 100 97
55 52 60 61 58 57 58 59 59 58 70 90 62 64 57 43 35 28 24 22 25 44 59 74 87 89 94 98 99 100 98 100 100 92 97 94 99 99 100 100 100 100 99 97
58 61 54 60 69 62 66 74 94 93 94 80 49 57 47 35 30 29 27 23 27 44 64 85 97 94 96 98 98 100 100 100 100 98 95 96 93 91 99 100 100 100 100 100
77 66 62 63 65 71 81 82 92 88 94 83 43 61 43 31 27 25 26 25 24 41 63 85 92 94 94 95 98 100 100 99 99 97 93 100 97 96 94 98 99 99 99 98
76 71 52 65 59 61 78 94 74 99 89 98 78 63 36 58 30 43 42 33 37 46 65 80 86 88 96 95 96 96 96 97 100 99 94 100 99 99 98 92 88 95 95 96
62 72 55 66 59 63 74 81 100 93 96 92 74 64 82 87 72 54 42 38 41 57 66 77 81 87 90 97 97 97 95 96 97 100 99 100 100 99 97 96 93 92 91 90
70 65 68 72 77 78 85 84 98 96 92 96 96 90 73 86 73 69 55 51 58 59 64 72 76 83 89 95 99 100 98 94 93 96 98 94 97 98 93 92 92 91 88 88
85 79 82 79 57 67 75 78 88 100 100 95 91 81 78 75 67 63 58 58 50 55 60 68 76 84 90 92 96 95 93 90 91 95 99 96 91 93 94 89 87 86 85 82
76 73 86 56 71 82 84 84 86 96 97 90 96 75 67 63 67 66 62 67 63 66 68 73 84 87 90 92 94 94 93 89 87 89 92 97 91 87 93 88 86 86 83 80
64 82 79 74 71 87 88 79 78 96 99 98 85 71 81 76 71 70 68 74 80 82 85 89 82 85 90 93 93 94 95 94 92 94 97 99 96 88 81 88 88 82 84 83
76 82 87 82 77 75 76 74 67 72 80 93 65 89 66 87 84 78 74 73 80 86 87 88 91 93 91 92 93 88 90 92 92 96 99 99 96 94 92 91 90 87 80 81
86 86 86 88 66 66 72 54 59 68 74 71 72 84 75 87 87 90 80 74 82 88 88 88 88 88 89 91 93 95 96 93 97 96 98 97 96 96 96 95 92 91 92 89
86 92 96 92 69 74 83 77 74 74 71 65 82 71 84 90 91 91 89 85 83 86 85 87 87 84 87 89 91 92 94 96 98 98 99 99 100 98 96 95 96 95 94 94
88 93 94 98 85 80 55 70 84 85 84 82 69 60 68 89 96 93 85 85 85 83 85 85 81 82 84 87 87 87 87 90 91 93 96 97 98 99 99 100 100 99 96 94
79 90 92 97 96 62 49 80 94 100 95 84 88 87 84 83 81 94 88 83 82 80 80 81 83 84 86 87 88 87 86 88 89 90 93 96 98 99 100 100 100 100 100 100
81 76 85 96 97 82 63 66 72 79 98 94 80 86 86 80 95 100 90 86 79 74 78 80 82 84 87 88 90 89 90 93 92 92 93 95 96 98 100 99 99 100 100 100
95 96 92 84 92 75 57 80 73 99 100 92 94 91 88 95 97 99 86 78 72 75 78 80 82 85 88 89 91 93 92 93 96 97 100 100 99 99 100 100 99 100 100 100
81 96 93 91 93 81 86 75 98 95 91 89 92 91 96 99 94 88 79 77 74 72 74 76 80 85 89 93 92 96 96 95 92 94 99 100 100 100 100 100 99 99 99 99
94 76 87 75 91 91 88 93 92 85 88 87 90 89 84 86 81 77 77 74 75 75 77 77 79 86 93 96 98 99 99 98 97 98 100 100 100 100 100 100 100 100 100 100
99 100 95 89 100 100 96 95 89 84 84 71 69 68 70 76 77 77 76 77 76 80 83 82 84 89 96 100 100 100 100 97 98 98 99 100 100 100 100 100 100 100 100 100
98 99 100 100 100 100 100 100 98 90 78 69 67 69 72 74 76 74 77 79 80 82 86 88 90 93 97 99 100 100 100 97 98 100 99 99 98 99 100 100 100 100 100 100
96 98 98 100 100 99 100 100 98 88 79 72 72 76 73 73 77 75 80 82 84 88 90 91 93 94 95 99 100 100 100 100 99 98 100 100 100 98 97 98 99 100 100 100

GFSCGP_925_rhum_087.txt.gz
RH
34 40 42 34 32 25 37 42 43 37 29 29 28 29 27 26 25 26 25 24 24 23 19 20 25 49 75 86 84 91 99 100 99 98 99 100 100 100 100 100 99 100 99 100
49 46 36 34 35 36 33 34 36 36 33 39 42 41 31 28 27 24 25 25 24 23 21 23 45 70 79 84 89 98 96 97 100 100 99 99 100 100 99 99 100 97 99 100
53 47 43 35 37 38 39 41 46 47 46 44 44 38 31 27 25 24 23 24 22 22 21 22 53 72 81 86 94 100 92 94 99 100 100 98 99 100 100 100 100 100 99 100
52 43 53 50 49 45 54 45 47 58 59 51 46 46 28 30 30 28 28 28 26 23 24 24 45 68 79 86 98 97 94 93 96 98 94 97 93 96 98 100 100 100 100 100
51 65 64 57 54 48 57 57 57 57 62 63 58 65 42 32 28 29 28 27 28 27 26 26 50 64 80 93 97 99 96 92 95 96 98 99 95 99 93 99 100 100 100 100
42 54 58 54 56 54 55 54 56 60 59 76 54 53 40 35 37 48 47 41 32 28 26 35 62 76 78 93 99 100 100 96 100 99 97 93 99 100 100 100 100 100 100 100
64 61 55 56 57 61 56 64 71 79 78 60 50 58 44 38 60 63 62 56 49 41 31 64 75 75 79 91 93 100 100 91 98 94 91 91 99 100 100 100 100 100 100 100
54 65 63 59 52 60 68 66 63 64 74 66 59 60 42 62 57 56 57 58 59 60 52 58 70 74 79 87 93 98 97 87 97 97 90 92 92 95 100 100 99 100 100 100
58 66 60 60 58 56 76 79 64 81 74 73 52 48 46 54 53 52 54 57 65 68 64 50 67 75 80 87 93 95 94 88 98 96 92 90 93 92 99 99 99 100 100 98
56 76 63 64 57 60 64 67 92 90 90 87 55 53 47 66 64 57 59 62 69 73 66 49 60 76 81 82 93 96 92 90 95 97 90 92 93 89 90 97 100 100 100 100
55 56 72 74 72 74 78 82 85 92 96 84 76 51 64 66 55 62 63 65 79 82 73 73 72 75 77 87 95 97 96 90 99 98 94 90 91 90 91 91 97 100 99 100
71 63 67 63 56 62 67 68 66 90 89 96 88 64 60 45 51 58 69 72 80 81 83 81 80 79 83 90 96 98 96 94 94 94 96 88 96 97 98 98 97 94 99 100
66 68 53 86 74 73 76 94 91 84 88 85 92 60 54 35 43 52 75 77 80 85 89 85 87 87 86 90 94 96 97 98 100 98 97 92 91 100 99 98 94 92 90 93
64 72 52 41 58 69 76 65 56 72 77 58 61 54 44 38 43 54 78 77 78 85 86 91 86 87 87 91 91 95 95 92 94 96 94 97 87 83 95 91 92 90 90 90
65 68 72 67 65 67 63 61 59 65 56 64 44 45 42 46 49 67 76 75 80 86 88 90 94 95 93 94 92 87 95 94 93 93 92 88 93 94 94 92 94 98 97 93
77 81 80 64 61 58 59 51 48 50 54 53 55 62 48 50 52 82 78 78 84 87 88 88 89 90 91 93 96 98 100 98 96 99 100 100 99 99 100 99 99 99 98 96
80 84 85 72 64 60 52 55 50 49 56 66 72 56 52 70 95 93 88 84 88 89 88 89 91 91 91 91 90 93 95 98 98 99 100 100 100 100 100 100 100 99 98 98
81 77 87 76 72 50 44 40 64 75 69 65 75 78 67 89 94 92 89 88 92 92 91 89 89 91 91 92 92 94 94 94 94 95 97 99 100 100 100 100 100 100 100 100
72 79 86 83 73 50 50 76 67 78 74 94 97 93 89 90 83 96 92 95 100 100 95 96 95 91 92 92 93 92 93 95 96 96 97 100 100 100 99 99 100 100 100 100
78 74 75 83 74 66 43 73 67 78 88 96 96 94 92 86 95 97 99 96 95 100 99 97 97 95 94 93 92 92 92 93 98 99 99 100 100 100 100 100 100 100 100 99
87 80 77 74 74 61 93 84 75 86 99 100 98 97 96 94 98 99 99 96 98 99 99 99 98 96 98 97 94 92 91 97 98 99 100 100 100 100 100 99 100 100 100 100
70 81 80 68 81 78 94 73 91 99 100 100 100 99 97 97 97 97 97 96 94 95 97 99 97 97 99 99 93 92 94 97 100 100 100 100 100 100 100 100 100 100 100 100
95 98 90 96 96 97 96 97 98 100 100 100 100 98 96 96 96 96 93 91 92 95 96 96 95 96 100 100 100 98 96 95 99 99 99 100 99 99 100 100 100 100 98 98
82 81 92 95 97 94 92 93 94 96 97 96 97 96 95 94 94 94 91 88 81 84 86 84 88 93 96 98 97 100 100 99 95 93 95 96 97 96 95 99 100 99 98 97
87 87 91 99 99 94 91 95 95 95 96 94 94 94 94 91 91 90 91 90 91 88 89 88 87 89 93 94 98 100 99 96 94 94 94 94 94 94 99 100 99 100 100 99
90 94 92 92 96 91 95 95 94 92 93 91 83 81 78 77 81 79 82 84 84 85 86 87 89 91 95 96 100 100 100 96 92 92 96 99 96 94 90 90 98 100 100 100

GFSCGP_925_rhum_093.txt.gz
RH
23 18 20 17 16 14 15 14 14 10 7 14 16 15 11 9 8 9 9 9 9 8 8 9 10 11 12 11 16 28 40 74 95 99 99 99 100 100 100 100 100 100 100 100
24 26 15 15 14 17 20 19 23 14 9 10 11 16 12 10 10 11 11 10 9 8 8 8 8 11 13 14 18 31 39 55 92 96 94 80 88 86 93 96 98 99 100 100
24 20 16 18 16 21 22 24 21 17 14 14 17 18 16 12 10 10 10 10 10 11 11 10 10 10 13 16 22 31 38 49 88 89 80 74 79 90 94 95 99 99 99 99
19 17 18 25 20 21 30 19 19 22 23 26 20 22 14 11 10 11 13 18 22 23 20 18 13 12 12 15 26 32 38 51 88 74 61 67 85 88 90 92 98 99 99 99
20 13 22 30 24 21 29 20 20 22 29 31 25 25 16 11 10 15 20 24 25 26 24 22 16 14 12 14 24 36 40 48 73 68 56 66 72 64 72 84 96 100 99 100
23 10 19 23 25 24 20 26 32 34 35 41 27 22 15 13 20 27 29 27 28 28 28 24 19 16 13 13 30 44 46 49 60 62 62 63 63 60 57 76 88 99 100 99
23 17 40 24 27 26 29 41 52 49 41 36 16 19 17 20 30 32 30 29 30 31 32 29 25 17 15 18 38 52 53 51 57 63 66 65 65 62 65 72 88 100 99 100
40 29 31 29 29 33 34 35 38 38 36 27 19 29 17 23 28 26 28 29 30 33 38 34 28 28 25 31 59 65 52 51 57 64 65 64 64 68 68 85 98 100 99 99
36 31 19 26 23 27 35 44 27 40 42 46 35 21 30 26 35 30 28 30 34 38 45 43 37 30 35 50 76 81 55 52 59 65 66 67 70 72 79 91 99 100 100 100
71 58 36 25 24 24 32 26 50 46 51 41 21 16 43 45 36 27 26 34 37 45 56 64 46 31 38 65 80 88 68 58 62 67 69 71 76 77 85 99 100 99 100 100
66 63 50 30 36 31 37 52 42 39 34 42 36 38 42 33 25 24 25 33 41 53 67 75 67 46 43 62 80 88 76 62 65 66 74 78 78 80 89 94 99 99 100 100
58 84 71 37 29 22 30 37 42 53 55 39 54 56 33 29 20 24 28 36 42 54 69 76 80 72 65 73 80 87 78 70 73 68 77 78 77 85 86 93 99 100 100 100
99 93 88 85 63 47 39 34 33 48 49 58 51 39 26 18 22 27 30 40 44 58 68 77 79 88 80 81 86 88 85 79 76 76 80 77 78 82 86 92 99 100 100 100
99 93 74 71 48 52 64 54 47 47 56 42 37 27 22 23 29 31 42 48 49 60 72 80 83 83 86 90 87 90 90 84 76 79 80 74 76 79 82 83 93 95 99 100
97 67 49 49 39 34 42 42 39 44 41 37 28 24 24 34 42 43 54 55 59 64 73 82 86 86 86 90 96 91 91 87 83 85 77 76 75 78 82 84 84 84 90 96
88 65 34 33 26 26 31 28 27 26 26 26 27 29 37 36 44 64 70 67 68 73 75 81 85 85 88 92 95 98 100 90 75 81 83 78 75 83 86 86 89 92 90 88
78 36 33 44 26 25 32 26 26 25 32 49 54 52 41 47 67 93 91 82 84 79 82 84 87 90 94 97 98 97 99 99 98 99 99 99 99 99 100 95 94 96 95 93
81 43 44 51 41 55 41 30 31 45 60 55 53 52 51 60 90 90 90 90 92 93 94 89 91 96 99 100 100 99 96 97 98 99 100 100 100 100 100 100 100 100 100 100
46 51 46 49 37 32 44 40 44 48 88 74 71 62 62 81 71 86 88 90 93 94 93 98 99 99 100 99 100 100 98 97 98 99 100 100 100 100 100 100 100 100 100 100
43 41 54 44 39 49 70 48 45 50 98 82 72 75 88 86 94 92 93 93 94 96 97 97 99 99 99 100 99 100 99 98 100 100 100 100 100 100 100 100 100 100 100 100
49 55 57 52 45 69 68 53 49 91 100 83 79 84 90 90 94 96 96 95 96 97 97 98 98 98 99 98 99 98 98 99 100 100 100 100 100 100 100 100 99 99 99 99
66 81 69 59 57 81 71 53 84 97 99 97 83 95 87 95 96 96 96 95 95 95 96 98 97 97 98 99 98 98 97 100 99 99 100 100 100 100 100 100 98 96 99 98
78 73 86 80 87 88 74 84 88 85 91 95 87 91 96 94 94 95 93 90 91 95 97 98 97 97 98 99 99 98 98 100 97 97 99 100 100 97 97 99 100 97 96 95
88 61 88 83 90 79 73 75 82 84 94 93 93 94 93 93 93 92 91 90 90 92 92 96 95 96 97 98 98 98 98 98 97 98 98 98 98 98 99 98 98 100 98 95
76 80 81 86 88 84 84 90 90 89 93 90 93 93 93 90 91 91 91 91 92 94 95 96 95 94 96 98 98 97 97 98 98 99 97 98 96 96 98 100 100 100 100 100
77 91 91 93 94 88 92 89 86 87 90 89 84 86 87 86 87 83 78 77 75 77 81 83 86 87 90 94 98 98 97 97 97 98 98 97 96 97 98 97 100 100 100 100

GFSCGP_925_rhum_096.txt.gz
RH
23 26 23 17 16 16 16 16 17 14 9 11 14 15 11 12 12 11 10 12 11 11 10 8 10 10 11 12 11 16 49 84 93 93 97 99 98 96 92 95 99 96 96 92
22 30 22 15 11 14 16 19 19 14 12 13 12 12 9 9 9 10 9 9 9 10 9 9 9 12 12 13 12 19 41 87 88 92 94 95 98 96 96 98 93 90 95 93
18 18 16 18 18 15 18 20 18 20 14 13 14 14 13 12 12 11 10 10 10 11 11 13 14 16 13 16 15 20 31 83 83 93 96 90 92 90 99 100 100 94 96 96
23 15 12 14 19 16 21 15 17 21 23 25 14 25 16 13 12 12 12 12 14 19 22 23 21 22 16 19 16 20 27 37 76 86 91 85 85 89 91 98 97 88 90 98
25 20 20 16 17 16 21 16 20 23 24 24 24 26 19 15 13 12 20 23 24 25 27 28 26 24 17 14 21 22 27 33 81 86 82 81 78 86 88 86 88 89 99 100
21 15 17 19 12 17 24 19 23 25 27 41 28 28 24 19 14 19 27 26 29 31 32 30 28 23 20 14 20 29 33 40 80 81 79 69 79 76 77 83 94 97 99 90
37 27 23 17 13 29 28 37 66 70 56 56 26 24 23 18 28 29 27 29 34 37 42 44 32 27 23 18 22 41 40 44 74 77 72 70 74 64 64 83 88 98 100 100
70 49 25 23 27 51 45 39 60 65 56 44 25 30 28 18 24 25 31 31 36 43 47 53 62 46 31 26 45 46 46 44 60 66 67 61 64 65 65 68 74 92 95 99
69 49 26 23 37 50 48 53 45 61 46 69 75 22 32 32 35 28 29 35 44 47 54 62 64 62 35 58 62 57 52 49 54 63 61 61 65 64 68 73 85 93 99 100
65 90 40 31 34 51 48 37 50 50 93 83 81 55 77 60 37 25 25 39 47 51 61 70 68 72 66 69 74 74 69 62 59 62 66 67 69 67 74 89 93 100 100 98
47 76 58 62 60 51 31 54 45 51 50 77 52 60 65 63 34 28 34 39 53 58 66 73 75 76 84 72 77 81 79 73 68 67 69 72 69 75 88 91 97 100 99 99
55 100 82 80 44 44 21 40 56 61 54 39 67 93 76 45 27 37 39 42 52 56 66 73 79 78 81 92 75 78 80 82 71 69 72 77 78 84 87 93 99 99 98 99
91 76 94 80 64 35 26 24 38 61 50 82 73 93 75 54 40 49 53 50 53 57 64 72 79 82 84 89 94 82 89 84 75 75 77 81 85 84 84 94 98 100 99 100
95 88 84 90 67 39 39 32 50 60 66 63 59 78 56 43 46 59 58 53 54 59 65 73 80 84 86 89 92 98 94 86 82 80 81 84 84 85 78 88 98 99 99 100
100 94 98 96 89 58 70 68 84 75 53 48 36 49 48 48 62 64 61 61 64 68 72 75 82 85 88 90 93 94 97 96 88 84 82 82 82 84 82 92 92 99 99 99
98 94 91 93 70 50 78 84 70 35 36 32 33 41 45 48 70 77 79 76 82 83 80 80 81 87 90 94 96 97 99 100 96 88 84 83 81 83 85 85 90 96 98 99
99 100 52 42 22 27 42 29 27 54 57 55 70 61 53 70 90 94 88 84 85 84 87 85 85 90 95 98 100 99 100 100 100 100 100 97 98 95 98 95 92 94 100 99
99 94 40 48 39 73 47 34 48 74 74 67 63 63 62 87 86 85 86 89 87 87 88 86 87 94 98 99 100 100 100 100 100 100 100 100 100 100 100 100 100 100 100 100
60 54 48 48 70 76 65 53 56 68 95 78 76 72 73 91 73 88 89 92 94 95 93 95 95 98 98 100 100 100 100 100 100 100 100 100 100 100 100 100 100 100 100 100
36 40 45 42 42 71 75 60 46 48 92 85 79 84 86 85 93 92 92 94 95 97 97 96 96 94 97 100 100 98 99 99 99 100 100 100 100 100 100 100 100 100 99 99
63 56 62 57 64 77 74 57 44 85 98 94 84 84 83 88 93 96 94 94 97 98 98 97 98 98 99 99 99 98 98 99 100 100 100 100 100 100 100 100 100 100 100 100
72 93 81 72 88 83 73 60 80 99 97 93 89 90 92 93 94 94 94 94 94 95 96 98 96 97 98 98 98 98 98 98 98 100 99 99 98 100 100 100 100 100 100 100
85 77 88 80 91 88 80 92 95 86 87 91 90 92 86 90 93 94 93 92 94 96 97 97 97 97 98 98 98 98 99 98 98 98 98 98 97 96 97 95 99 99 100 99
77 64 82 84 84 78 80 81 90 86 89 89 93 92 87 92 93 94 93 92 92 96 96 97 96 96 96 98 98 98 98 97 99 98 98 97 98 98 97 98 96 96 98 98
77 75 81 87 84 79 79 89 93 92 91 90 93 92 90 86 90 91 93 92 95 97 97 96 96 96 97 98 98 97 98 98 98 98 98 97 98 96 97 99 98 97 98 97
78 91 91 94 96 84 92 94 89 86 90 89 85 87 91 90 89 83 78 76 78 82 82 77 80 86 92 98 98 98 98 95 98 97 98 98 99 96 96 96 98 99 98 96

GFSCGP_925_rhum_102.txt.gz
RH
20 24 34 44 30 28 26 24 25 21 18 22 21 19 19 18 16 16 14 17 19 19 16 15 12 14 13 14 15 18 49 63 89 100 98 95 87 88 88 88 88 87 90 90
24 29 23 27 36 32 30 30 30 24 20 21 20 20 17 18 16 15 16 16 17 17 13 12 11 9 12 13 15 20 42 61 86 95 93 83 88 96 90 90 92 82 86 90
39 30 23 26 27 29 31 36 35 33 25 22 22 24 20 18 17 15 14 13 12 12 11 12 12 12 12 13 13 19 34 71 79 91 99 94 97 100 100 87 82 86 89 86
29 24 24 22 23 25 33 25 27 26 26 39 30 40 22 22 21 17 15 14 12 11 10 26 53 64 60 44 26 20 44 76 88 97 99 96 94 96 95 98 88 78 81 76
20 18 17 19 16 15 21 30 30 27 32 64 38 48 29 24 23 20 17 43 43 52 71 77 77 74 72 72 64 42 57 87 90 100 98 99 96 94 95 98 100 94 81 89
20 14 15 20 29 34 32 37 34 36 68 77 54 57 39 30 26 22 67 75 78 78 78 76 77 79 83 87 86 63 90 95 99 99 98 95 94 96 98 100 100 100 97 93
38 40 32 31 43 40 41 47 67 87 86 71 40 46 36 40 32 26 72 85 82 85 86 84 83 84 85 92 96 65 100 97 100 99 98 94 90 88 94 100 100 99 99 100
79 62 41 38 39 46 44 70 70 81 81 65 41 53 55 80 74 77 79 90 80 81 82 83 81 82 86 90 96 100 93 97 100 99 99 96 92 93 93 95 88 83 99 92
79 66 43 40 37 61 64 75 55 72 59 70 73 50 61 70 81 81 85 83 86 77 78 76 76 81 87 90 94 99 99 96 100 99 100 98 90 92 92 85 80 88 90 90
68 80 45 37 40 46 69 49 82 89 84 80 73 75 100 98 94 93 93 91 82 76 75 74 78 78 85 89 92 94 96 100 94 99 87 85 88 90 89 88 92 90 92 90
55 75 57 53 58 66 82 92 75 74 88 75 88 98 100 100 98 98 92 81 78 76 77 75 75 80 85 87 88 92 93 100 100 100 95 91 93 91 88 87 91 90 93 97
86 93 89 66 46 40 63 84 74 88 63 77 94 98 100 100 100 91 79 75 72 71 75 77 75 80 85 87 88 91 93 99 100 100 96 91 89 82 85 90 92 89 93 96
76 82 92 67 67 69 88 92 83 83 100 89 98 99 96 95 83 73 76 72 70 69 74 78 80 81 84 87 90 92 94 99 100 100 98 94 92 86 90 92 84 80 87 92
85 92 85 83 58 55 72 87 86 78 94 94 96 97 91 82 84 78 72 69 69 71 76 78 81 83 87 91 93 94 95 100 100 100 100 91 93 87 85 81 78 79 92 100
100 99 92 88 73 65 66 94 96 98 98 95 97 95 92 88 83 79 71 70 74 77 78 80 83 85 88 95 96 96 97 100 100 100 100 100 92 91 89 83 80 83 98 100
78 98 98 96 82 81 91 100 86 81 92 96 91 89 79 73 68 76 80 76 80 81 80 80 82 83 89 95 97 97 98 99 100 100 100 100 100 98 97 98 100 100 100 100
91 99 98 97 94 93 90 97 88 84 82 76 88 92 70 79 81 89 87 84 86 86 85 86 88 90 95 97 97 97 98 99 99 99 100 100 100 100 100 100 100 100 100 100
99 99 99 97 94 85 99 97 75 82 83 79 80 92 80 88 93 93 92 88 87 88 88 89 91 93 98 98 98 95 96 98 99 100 99 100 99 100 99 100 100 100 100 100
97 98 95 97 91 96 80 77 89 88 92 88 85 88 93 93 66 90 91 93 95 95 94 96 98 98 98 99 98 95 96 96 99 100 100 100 100 100 99 99 100 100 100 100
80 89 97 95 85 90 89 73 64 70 96 90 83 85 80 82 89 95 93 92 94 96 97 97 98 96 98 100 96 96 96 96 98 100 100 100 99 99 100 100 100 100 100 100
79 85 89 90 89 87 89 72 59 85 96 93 88 91 92 92 97 97 95 93 97 97 98 98 97 99 100 100 95 95 96 98 99 97 97 97 100 98 99 100 100 99 100 100
88 98 91 84 81 83 87 64 80 96 94 93 92 96 95 96 96 96 95 94 94 95 96 98 97 100 100 100 99 97 98 100 97 97 97 97 96 97 97 98 99 99 99 100
92 98 93 92 93 93 89 93 94 90 92 95 91 93 94 95 96 96 95 93 94 97 98 99 98 98 100 100 100 99 100 99 98 98 97 97 97 97 97 97 98 98 96 98
87 82 90 85 96 95 93 92 91 94 96 95 93 94 91 96 94 95 92 93 94 96 97 96 95 97 100 100 100 100 98 99 98 98 97 96 96 97 97 97 98 98 97 97
91 90 91 96 95 91 92 96 93 95 96 95 94 93 95 91 94 93 93 88 89 88 87 89 95 98 100 100 100 100 98 92 100 100 99 98 98 96 97 98 98 98 98 98
93 98 98 91 95 92 96 97 92 95 94 88 88 92 93 92 92 83 79 76 77 80 83 86 87 94 99 96 94 97 100 99 99 100 100 100 100 99 98 98 98 97 98 96

GFSCGP_925_rhum_105.txt.gz
RH
23 22 29 32 36 38 38 43 42 34 27 26 27 26 22 18 17 16 17 18 17 16 13 15 14 11 14 14 16 17 38 73 94 100 100 100 100 98 91 81 71 78 86 93
28 34 24 21 31 39 40 43 42 33 27 29 30 30 24 21 18 16 16 16 17 17 17 15 12 10 10 10 14 17 32 57 90 95 98 97 100 99 81 87 81 82 84 90
42 33 25 26 29 32 36 40 39 39 28 26 28 30 25 21 19 16 15 17 19 39 29 14 13 14 18 20 19 19 29 58 80 89 98 96 100 98 100 100 99 94 85 88
23 20 20 20 20 19 20 19 26 28 38 46 34 49 33 30 25 22 18 63 87 85 84 76 85 85 85 81 65 50 25 59 78 91 96 95 93 93 94 99 92 100 99 94
25 20 21 22 18 15 17 20 34 43 48 45 39 51 41 31 30 26 42 83 85 80 80 81 84 88 91 96 98 77 34 54 78 94 92 96 90 87 92 100 100 100 100 97
24 19 17 19 24 30 34 41 37 41 50 65 40 51 45 38 32 33 87 87 83 79 79 78 79 83 86 91 95 91 68 59 81 95 94 96 92 93 99 100 99 100 100 100
44 40 34 34 46 41 44 55 81 83 71 61 35 44 40 80 80 86 91 92 87 78 82 84 86 85 86 87 92 94 98 94 94 100 98 98 96 98 92 99 99 100 100 99
81 55 41 44 41 49 48 58 76 69 73 61 50 64 92 86 80 79 79 81 83 87 81 86 85 87 87 89 92 95 96 100 92 94 94 98 98 95 95 99 100 100 98 100
75 69 42 38 38 44 66 68 47 66 59 80 60 44 74 92 95 87 93 89 89 89 91 89 85 85 88 91 92 96 97 99 100 97 93 98 100 97 93 94 98 100 99 99
61 74 45 37 41 40 58 47 88 90 95 91 56 70 97 98 97 98 98 100 95 86 94 87 84 83 84 90 94 94 97 100 100 100 100 98 100 97 94 91 96 95 92 87
63 76 56 54 58 55 77 88 82 78 76 86 78 98 100 99 100 99 95 87 98 88 92 78 75 81 86 88 91 93 96 99 100 100 100 100 99 97 93 94 96 94 91 94
65 98 92 60 42 39 44 62 100 94 87 74 81 99 100 100 98 96 79 73 75 91 76 73 75 80 87 89 90 93 96 99 100 100 100 100 99 96 99 100 99 98 98 100
75 84 92 62 77 70 90 98 97 100 97 84 92 98 97 98 83 83 85 79 73 79 72 74 76 81 85 91 94 93 96 99 100 99 100 100 100 100 100 99 98 98 94 92
70 89 84 74 56 54 90 87 89 98 98 95 97 95 90 88 84 82 84 83 78 72 74 77 80 83 87 90 93 95 96 98 100 100 100 100 100 96 96 93 85 86 87 90
94 97 93 83 69 76 96 98 95 97 95 90 97 92 92 86 88 90 84 74 74 75 79 82 84 84 87 90 92 93 97 98 100 100 100 100 100 100 99 99 96 94 90 95
100 93 97 94 79 96 95 92 75 95 96 95 89 89 81 72 71 74 80 80 83 84 83 83 82 82 88 92 93 93 96 98 100 100 100 100 100 100 100 100 100 100 100 100
98 98 97 97 91 78 83 97 94 90 86 74 84 90 76 80 78 88 84 85 88 89 87 88 91 91 95 97 96 93 94 96 98 99 100 100 100 100 100 100 100 100 100 100
97 98 97 97 96 88 98 95 87 88 88 85 88 89 83 88 93 92 93 92 87 86 88 89 92 94 98 95 97 93 92 95 97 99 100 100 100 100 100 99 100 100 100 100
99 98 98 96 90 95 94 80 87 91 90 88 85 89 88 88 87 85 89 92 96 95 95 96 97 99 98 99 97 95 96 95 97 100 100 100 100 100 95 100 100 98 100 100
78 99 99 89 84 91 90 75 66 71 94 89 82 85 83 88 88 96 94 93 94 96 97 96 98 99 99 100 97 97 97 97 99 100 100 100 100 100 100 98 94 100 100 99
89 93 91 82 86 92 90 81 74 86 94 90 86 90 92 93 96 97 93 92 96 98 97 98 98 99 100 100 97 95 95 98 100 100 100 98 100 98 100 100 98 96 95 98
86 96 90 82 80 88 85 68 80 94 94 91 92 94 98 97 97 96 95 95 95 96 97 99 98 99 100 100 99 98 97 100 100 100 100 100 100 99 97 97 98 97 96 97
92 96 90 92 92 94 90 93 95 93 91 96 91 93 94 95 96 96 95 94 95 98 100 100 100 100 100 100 100 100 100 100 100 100 100 100 100 100 100 99 98 98 98 98
89 83 90 87 93 93 90 91 88 92 96 95 94 94 94 95 96 96 94 95 94 94 96 98 98 99 100 100 100 100 99 96 100 100 100 100 100 100 100 100 98 98 98 97
95 88 87 91 93 88 95 96 94 94 94 94 95 95 96 93 96 93 95 90 88 88 89 92 98 100 100 98 96 96 100 94 100 100 100 100 100 97 99 100 100 99 99 99
96 97 98 88 87 89 99 98 90 93 96 90 90 93 97 94 89 82 82 78 76 78 85 91 94 95 97 96 91 90 92 92 100 100 100 100 98 91 90 91 94 99 98 97

GFSCGP_925_rhum_108.txt.gz
RH
25 27 40 38 39 38 32 44 53 41 35 36 37 32 27 24 25 24 22 20 19 18 15 14 14 14 13 15 14 14 16 22 54 100 99 100 99 100 100 96 83 99 74 100
32 36 27 21 25 36 38 46 49 38 32 32 34 29 22 22 24 25 21 20 19 20 75 74 60 33 26 19 15 14 15 17 46 79 94 95 98 100 99 100 100 90 80 90
40 34 28 27 28 34 39 43 41 37 26 28 30 30 20 20 21 21 22 21 51 86 92 88 81 89 95 93 88 69 22 18 35 78 94 95 98 94 99 100 100 99 97 86
22 22 19 19 20 21 24 22 26 24 28 28 36 42 26 25 27 24 20 22 94 91 84 80 80 80 85 91 93 91 89 45 42 74 93 89 91 88 93 97 100 100 98 86
25 22 26 25 24 17 22 19 23 26 50 56 34 43 25 23 26 41 80 89 87 80 79 80 78 81 83 85 88 93 90 80 53 88 87 93 94 85 86 99 99 100 100 98
24 24 22 25 22 26 28 42 44 44 54 61 33 34 34 42 99 94 88 81 83 78 76 77 78 82 85 87 89 93 93 96 59 88 94 97 92 88 93 99 99 100 100 100
50 43 34 37 44 41 44 52 79 79 93 58 31 43 48 98 98 98 97 90 85 82 84 84 85 85 87 90 92 93 93 98 79 94 98 99 93 90 89 98 97 98 100 100
77 60 45 42 43 50 50 53 66 71 71 62 40 59 97 88 78 89 94 96 89 81 82 84 93 87 90 92 95 97 96 98 99 99 90 92 94 96 96 98 95 95 98 99
63 72 43 34 33 42 60 67 44 55 49 66 66 58 77 69 74 83 95 94 96 93 88 86 86 92 91 94 95 99 98 98 100 100 96 91 89 98 97 100 96 99 99 98
65 81 43 39 40 45 55 53 79 84 98 96 72 80 96 92 88 86 94 95 94 93 95 92 89 95 98 97 97 98 99 100 100 100 100 95 98 96 98 98 98 100 100 97
64 76 54 54 58 53 71 81 72 72 86 93 92 94 99 97 95 94 95 93 97 95 96 96 96 94 100 94 96 96 98 99 100 100 100 100 100 97 96 100 100 100 98 99
60 93 86 64 46 50 48 60 75 95 94 79 86 98 96 94 96 89 80 77 77 95 95 96 97 91 92 90 91 94 98 99 100 100 100 100 100 100 98 100 100 100 100 98
75 84 94 61 84 77 78 92 99 97 96 96 92 98 91 93 74 72 83 84 80 79 85 84 82 80 86 87 91 92 96 98 100 100 100 100 100 100 100 100 100 100 100 100
68 84 83 72 45 50 81 80 95 96 96 94 98 96 93 92 77 76 80 82 87 81 83 83 79 80 85 88 90 92 94 98 100 99 100 100 100 100 100 100 100 100 99 96
87 95 90 84 69 73 97 96 92 98 93 95 97 93 94 92 84 89 90 80 82 86 83 83 84 86 86 89 90 91 94 96 99 99 100 100 100 100 100 100 100 100 99 98
100 93 97 91 74 96 95 95 90 88 95 95 92 91 86 88 87 86 83 82 85 87 82 81 82 85 91 92 93 93 95 97 99 100 100 100 97 100 100 100 100 99 100 100
98 98 97 96 88 87 87 97 95 88 85 84 83 89 87 86 85 89 88 88 89 90 88 88 92 94 96 96 98 96 95 98 98 100 100 100 97 97 99 100 100 99 100 100
98 98 97 96 96 91 94 96 78 82 83 81 83 88 88 89 94 92 93 93 88 87 88 88 93 94 97 97 97 97 95 95 98 99 100 100 98 97 100 99 100 100 100 99
100 98 97 97 92 93 95 84 88 91 93 87 87 88 86 89 93 85 88 92 95 95 95 96 97 98 97 99 99 96 96 96 97 99 100 100 100 100 98 100 100 98 97 100
98 100 98 97 78 92 90 78 73 79 94 88 82 84 85 91 89 94 92 93 94 96 97 97 98 96 97 99 99 96 96 96 99 100 100 100 100 100 100 100 100 100 100 100
95 97 94 88 87 90 85 84 82 95 92 90 82 88 89 92 97 97 94 93 96 97 97 98 98 99 100 100 100 98 96 98 100 100 100 100 100 100 99 100 99 100 100 99
88 95 92 81 83 90 83 76 84 96 92 89 89 95 98 98 96 96 96 95 95 98 100 99 100 100 100 100 100 100 100 100 100 98 100 100 100 100 100 100 100 100 100 98
91 91 87 93 93 93 92 93 95 86 91 94 91 92 94 97 96 96 95 94 96 98 98 98 99 100 100 100 100 100 100 100 100 100 99 98 96 100 100 100 100 100 99 98
95 85 89 87 93 92 88 85 92 91 96 95 93 95 91 96 96 96 95 94 94 95 99 99 99 100 100 97 98 100 100 100 100 100 100 98 100 100 100 100 100 99 100 99
91 88 80 92 93 89 91 94 86 95 95 96 94 93 96 91 95 92 94 88 84 88 91 94 98 98 97 92 87 88 88 92 99 97 92 89 86 89 96 100 100 100 99 100
95 92 95 94 85 87 87 98 91 95 97 93 90 92 96 87 88 84 83 77 77 81 87 88 90 92 93 89 83 78 84 81 86 95 90 74 72 84 84 82 83 99 100 100

GFSCGP_925_rhum_111.txt.gz
RH
24 25 30 26 34 33 34 34 35 34 27 34 32 23 17 16 16 18 18 16 16 17 15 18 49 62 53 36 26 25 21 14 39 78 96 97 99 100 99 94 85 95 98 99
28 31 25 22 25 28 30 32 32 30 28 24 17 16 13 14 18 14 14 17 17 20 29 57 67 73 80 84 84 82 66 36 32 54 75 79 88 96 99 98 99 99 99 99
29 26 27 27 26 29 30 32 29 23 20 16 17 17 14 12 13 17 32 63 72 75 75 70 68 72 76 77 82 84 84 84 75 34 62 81 87 92 100 100 100 98 100 100
29 21 21 20 20 19 23 20 20 21 22 21 21 26 17 15 22 64 75 74 74 74 70 67 68 72 75 78 82 84 86 87 83 79 47 74 79 79 84 92 100 100 100 99
25 23 27 28 24 19 24 21 26 28 30 37 28 36 18 15 44 77 74 71 73 72 72 74 72 76 79 82 88 90 91 89 85 88 67 76 78 76 77 89 95 99 100 100
25 29 26 26 23 24 32 37 37 40 42 40 25 27 23 70 95 90 77 73 75 72 73 71 73 76 82 84 91 93 93 91 91 95 81 79 80 76 78 87 94 96 100 100
39 31 35 36 38 39 35 38 49 53 60 40 35 36 35 91 87 82 85 78 74 68 75 79 77 79 86 91 95 96 97 96 95 100 81 83 85 83 84 86 88 92 96 100
43 35 44 38 39 39 39 39 44 54 47 41 28 32 58 70 64 67 67 68 68 73 74 82 79 82 92 96 97 98 98 98 100 100 98 81 84 82 87 86 88 90 92 97
45 53 42 38 32 32 49 55 36 46 40 50 35 52 71 62 67 67 78 69 75 80 84 89 82 84 86 93 99 99 98 99 100 100 100 95 82 90 92 94 92 93 96 99
53 64 42 34 40 40 38 39 69 59 86 76 49 47 72 89 86 77 82 84 81 82 89 93 92 95 90 95 99 99 99 100 100 100 100 100 94 92 95 96 97 95 96 91
54 52 42 47 47 44 59 59 53 53 54 76 72 82 94 94 90 89 83 80 88 91 94 95 96 96 98 99 100 97 97 99 100 100 100 100 100 92 89 95 99 99 98 99
58 78 77 58 43 53 48 50 77 87 72 83 86 83 86 91 89 90 72 79 74 92 93 95 96 97 96 97 99 98 98 98 100 100 100 100 100 100 100 100 100 100 99 100
73 76 71 60 86 68 62 64 79 97 84 81 88 92 83 91 83 71 80 73 71 75 86 90 94 93 95 91 93 96 97 99 100 100 100 100 100 100 100 100 100 99 99 99
69 78 74 43 31 39 67 72 77 94 90 64 92 91 86 89 76 73 79 72 79 82 87 85 83 86 86 86 92 97 96 100 99 99 100 100 100 100 100 100 100 100 100 100
83 85 83 79 63 66 91 88 89 92 80 83 93 90 91 90 87 85 78 76 76 81 82 88 90 91 87 88 90 92 96 98 100 99 99 100 100 100 100 100 100 100 100 100
92 87 97 94 63 81 89 91 93 93 94 91 92 89 76 76 73 79 82 84 81 83 86 88 86 86 89 93 95 94 96 99 98 98 100 100 100 100 99 100 100 100 100 100
96 93 91 87 86 84 92 94 93 93 89 91 86 80 75 78 78 87 85 85 87 86 88 88 89 92 94 96 97 97 98 99 97 99 100 100 100 99 95 100 99 100 100 100
97 95 88 86 94 92 95 92 75 80 82 76 76 78 79 84 87 89 89 88 86 88 88 84 86 89 95 94 97 93 92 96 97 96 99 99 99 100 98 97 98 97 98 97
99 96 90 94 88 91 92 84 88 87 88 84 80 81 82 86 87 86 84 87 91 91 92 94 96 97 96 97 98 93 93 93 95 98 98 99 99 98 98 100 98 99 99 100
100 98 86 86 86 84 82 73 72 79 90 81 77 79 82 82 82 88 87 87 89 94 96 97 99 99 99 100 99 98 95 95 97 99 100 100 100 100 98 99 98 99 100 100
88 94 90 89 81 82 78 77 79 97 93 84 77 82 83 85 86 89 88 88 92 97 99 100 100 100 100 100 100 99 98 99 100 100 100 100 100 100 100 100 100 100 99 100
91 93 90 87 82 86 77 81 87 89 86 82 84 89 94 91 90 90 89 91 92 95 97 99 100 100 100 100 100 99 99 100 100 99 100 100 100 100 100 100 100 100 99 98
90 93 90 89 84 86 89 91 86 74 83 84 84 84 88 90 92 90 91 87 90 96 98 98 99 95 96 99 100 100 100 95 90 92 97 100 100 100 100 100 99 99 99 98
90 81 79 82 87 88 89 87 82 79 87 83 80 82 81 91 88 90 85 85 87 91 94 94 90 92 95 91 91 99 88 82 75 75 85 95 100 100 100 100 99 97 97 96
85 78 76 87 87 82 86 86 87 90 87 87 85 83 86 81 82 77 80 82 87 87 91 91 91 91 95 95 88 89 87 80 87 82 77 86 91 98 97 100 99 99 98 100
88 87 86 82 76 77 85 89 86 88 90 83 83 84 79 74 73 65 63 65 67 70 72 74 80 83 86 87 92 91 88 86 84 75 73 83 83 85 85 84 82 94 95 98

GFSCGP_925_rhum_114.txt.gz
RH
20 21 21 16 16 18 18 19 17 13 14 18 18 14 10 8 7 8 8 10 10 19 30 38 45 47 50 50 54 54 57 55 35 30 49 53 65 71 69 70 68 70 80 86
24 23 16 18 18 20 20 19 18 15 18 17 12 10 8 7 9 11 10 22 41 44 45 47 51 54 57 59 60 62 62 60 62 42 28 46 52 66 66 64 71 77 81 82
19 13 19 19 19 22 20 22 20 18 13 11 11 11 7 10 10 21 41 43 44 48 51 50 52 56 60 62 64 66 67 66 64 66 57 31 50 55 62 72 80 84 81 83
19 14 20 21 21 19 21 14 16 16 17 15 11 18 13 9 16 37 42 45 47 47 45 46 51 56 60 63 69 72 73 74 71 67 63 55 34 47 57 69 83 84 86 87
20 20 22 23 20 17 18 18 20 21 22 22 18 20 15 9 15 45 55 56 50 48 47 48 50 57 60 62 68 76 78 79 79 78 72 68 49 45 48 61 68 79 91 97
18 19 18 18 18 19 18 23 20 22 25 30 18 15 15 23 69 72 66 63 54 49 50 49 53 57 60 64 71 78 82 81 86 90 85 78 70 50 46 49 64 72 90 100
22 22 20 24 23 23 25 27 29 30 41 31 20 26 16 62 63 64 66 61 54 53 56 58 58 59 65 72 79 83 86 89 90 95 96 93 84 68 56 49 58 65 88 96
26 26 25 28 25 24 30 29 28 24 20 18 24 29 26 54 49 49 52 54 56 58 59 62 65 68 71 78 80 87 94 96 96 98 99 99 93 72 61 56 54 62 83 88
29 26 27 32 29 27 28 38 23 34 30 39 26 18 46 52 56 54 58 60 66 65 66 68 68 73 75 84 85 92 98 97 98 98 100 100 98 80 64 61 62 65 78 86
30 37 25 27 29 26 28 27 53 42 64 53 29 29 59 89 79 72 76 74 73 73 75 77 77 85 82 90 94 94 100 98 100 100 100 100 100 94 72 79 81 76 80 82
34 39 30 34 33 29 39 43 41 42 46 58 57 76 92 93 91 85 70 65 80 78 85 94 93 92 94 94 97 98 98 100 99 100 100 100 100 92 78 88 86 83 81 84
36 52 49 38 31 35 30 35 40 60 62 50 63 69 76 85 80 75 62 59 60 71 78 93 95 96 96 96 97 98 99 100 99 100 100 100 100 100 95 87 88 89 86 96
50 51 55 52 79 56 75 50 40 58 77 69 78 79 76 85 70 71 73 62 61 67 76 84 89 94 96 96 97 97 98 100 99 99 100 100 100 100 100 100 100 100 100 100
54 57 64 43 32 32 51 65 67 77 86 60 75 93 85 85 83 76 70 67 72 79 84 84 86 92 95 96 97 97 97 99 100 99 99 100 100 100 100 100 100 100 100 100
61 66 66 66 51 47 64 71 67 88 73 90 90 88 90 89 88 80 84 74 78 82 80 84 87 92 94 95 95 95 96 99 99 99 99 100 100 100 100 100 100 100 100 100
54 70 79 81 60 63 93 83 79 91 81 93 91 86 86 66 72 74 80 82 81 83 85 84 86 89 92 92 96 95 97 98 98 98 100 100 100 100 100 100 100 100 100 100
96 85 89 82 65 80 91 91 93 91 84 88 86 84 79 71 73 84 81 83 86 84 87 85 87 89 92 96 97 96 98 98 98 98 99 100 99 99 100 99 98 100 100 100
92 94 83 72 87 88 97 88 74 76 85 78 80 68 66 74 80 83 82 83 80 82 82 80 84 87 93 90 91 83 82 89 96 97 98 99 100 100 100 100 100 98 99 100
99 93 85 83 70 83 86 86 80 88 86 67 68 69 70 70 67 79 77 81 88 87 88 91 90 91 94 95 94 88 88 88 95 98 100 100 100 98 99 98 99 99 99 99
100 100 92 67 67 72 72 63 61 63 88 69 64 66 71 69 77 85 81 82 83 89 90 90 91 90 97 98 90 96 96 97 99 100 100 100 100 100 100 99 98 99 98 99
85 95 85 69 76 69 64 65 64 92 94 72 64 70 73 79 79 86 81 83 84 84 87 89 90 95 99 98 90 92 96 100 100 100 100 100 100 100 100 100 100 100 100 99
83 83 79 72 74 74 68 72 84 87 75 76 78 85 87 87 86 85 82 79 79 79 81 87 87 93 99 100 92 91 97 92 95 100 100 100 100 100 100 99 99 99 96 95
87 81 73 78 80 75 79 84 71 65 75 75 78 78 82 85 86 83 80 73 76 80 80 80 86 87 94 96 97 94 96 88 86 93 95 96 95 97 97 96 96 94 93 93
83 88 86 77 78 79 80 73 66 66 78 72 72 76 77 86 83 83 74 70 71 73 76 73 69 76 85 90 89 90 91 87 81 84 81 82 84 84 87 88 90 94 95 92
79 81 79 84 80 75 80 81 79 79 77 78 76 76 78 75 78 75 73 72 69 66 67 67 67 66 69 74 75 75 76 76 70 70 72 70 68 72 70 84 81 82 93 94
72 80 78 79 72 74 85 83 76 80 82 76 74 71 66 61 59 52 49 44 40 42 44 46 50 52 53 56 65 60 62 63 62 58 59 66 64 63 63 64 67 85 87 89

GFSCGP_925_rhum_117.txt.gz
RH
13 16 18 14 13 12 14 16 14 10 8 9 11 12 9 7 6 6 6 6 6 13 26 30 35 38 43 45 48 46 48 49 50 46 28 31 52 57 63 71 64 62 66 78
16 22 16 12 12 16 17 16 14 10 9 11 14 12 8 7 6 6 7 8 23 29 28 31 35 39 44 48 51 54 53 52 53 49 45 34 30 40 52 58 64 65 65 70
16 16 12 14 15 17 15 15 15 14 12 10 10 11 9 7 7 8 22 27 27 32 35 34 34 38 42 47 52 56 59 60 59 60 58 50 47 37 44 58 62 63 67 70
14 11 13 14 17 15 17 11 13 15 16 18 13 20 14 11 10 15 26 34 38 38 35 36 38 40 43 45 51 56 60 65 64 63 62 59 52 40 33 50 63 60 66 70
17 13 18 17 14 14 18 14 17 17 18 20 17 18 15 11 11 23 38 41 41 38 39 40 42 45 47 46 51 58 65 68 68 69 72 72 63 55 50 42 54 63 65 73
17 13 15 14 13 14 14 17 19 19 21 30 21 19 16 26 48 43 43 43 42 41 41 42 45 50 52 54 57 63 67 68 70 74 77 81 81 71 62 54 46 59 68 71
18 17 15 17 20 16 20 26 35 35 31 31 18 18 16 39 43 48 48 46 45 45 46 48 50 55 60 63 65 68 71 74 74 77 80 85 87 85 75 67 60 58 66 72
30 36 18 16 23 18 17 23 33 39 32 24 12 21 28 38 37 40 44 47 50 52 52 55 58 62 67 71 73 76 79 81 82 86 88 90 94 95 84 71 64 61 58 66
24 21 17 22 18 20 19 24 20 31 28 35 23 15 31 42 48 50 54 53 59 59 63 64 65 70 73 78 81 82 88 88 90 95 98 98 99 99 96 79 68 61 61 58
24 32 16 16 21 22 25 18 35 34 54 45 24 20 66 90 75 66 67 60 62 64 68 70 73 78 82 91 90 88 94 91 95 99 100 100 100 100 99 93 74 64 61 61
18 32 25 21 25 26 22 33 29 29 44 55 55 81 88 88 86 82 64 56 68 70 72 90 91 86 95 94 94 92 96 95 97 100 100 100 100 100 100 97 81 73 65 66
24 38 42 25 17 20 22 26 30 53 45 52 43 56 69 78 72 66 68 66 54 64 66 80 89 92 95 97 97 97 98 98 100 100 100 100 100 100 100 97 75 71 73 69
31 38 48 36 35 40 52 38 27 39 57 65 82 72 69 73 65 66 74 66 64 64 66 68 83 91 96 95 96 97 98 98 100 99 100 100 100 100 100 100 100 99 86 83
41 52 58 50 62 42 53 44 44 44 62 50 56 95 87 86 79 72 81 82 80 73 75 74 82 89 93 97 98 98 98 98 99 100 98 99 100 100 100 100 100 100 100 100
42 59 61 50 41 37 42 49 51 73 62 86 78 83 87 90 82 86 86 84 81 82 82 85 88 89 90 92 97 98 98 98 99 99 99 100 100 100 100 100 100 100 100 100
41 64 73 75 50 51 69 64 60 79 82 83 87 88 86 77 77 83 86 87 85 84 86 86 84 80 87 93 97 97 97 98 98 98 98 100 100 100 100 100 100 100 100 100
58 82 82 76 49 60 85 88 78 90 75 86 85 82 81 83 78 87 85 86 87 85 80 77 81 86 88 91 89 92 96 98 98 98 99 98 99 98 100 100 100 100 100 100
90 96 76 71 67 83 93 73 70 85 80 70 71 83 75 71 82 85 83 85 80 78 78 77 81 82 85 78 84 78 77 85 94 97 98 99 99 99 99 99 99 100 100 100
78 88 89 81 65 79 82 81 77 88 82 73 67 62 63 65 65 82 78 74 81 80 76 80 79 76 83 82 79 83 83 86 95 98 98 99 100 99 98 98 99 99 98 100
61 79 91 73 66 70 68 56 49 53 91 57 54 60 63 60 88 88 78 74 73 77 80 81 84 79 90 94 76 89 91 94 98 98 100 99 99 100 100 100 100 100 100 100
98 100 88 68 73 75 51 51 54 90 90 60 54 59 64 76 88 86 75 73 73 77 80 82 87 91 96 96 88 89 89 95 98 97 94 96 98 97 98 97 97 99 96 95
64 78 84 63 80 84 57 58 76 83 66 62 71 92 91 87 85 81 76 74 73 72 74 80 85 90 93 90 90 91 93 90 92 89 91 92 89 96 92 92 92 91 89 89
74 67 85 74 81 72 69 77 64 60 70 72 77 76 81 83 81 76 71 64 66 72 72 73 81 83 87 84 85 85 87 83 84 83 83 84 89 85 85 88 89 89 89 87
68 63 66 70 74 73 73 63 58 61 70 67 67 71 73 81 77 74 66 60 59 59 62 58 56 66 74 75 74 77 74 76 74 77 77 76 76 82 88 79 82 89 91 90
71 66 70 80 73 70 75 70 73 72 70 71 70 70 75 72 72 69 69 63 56 54 54 51 50 48 52 60 58 60 63 64 66 66 69 68 65 69 72 94 86 81 89 87
62 88 78 93 69 69 82 77 70 76 77 71 69 66 63 64 59 51 41 32 29 31 31 32 35 37 39 47 54 53 57 58 57 57 57 64 62 63 64 65 68 83 88 87

GFSCGP_925_rhum_120.txt.gz
RH
17 21 21 17 15 14 15 15 16 14 12 11 12 10 9 8 9 9 8 7 9 10 25 27 32 34 37 41 46 49 53 54 54 55 54 51 39 37 65 69 70 66 77 87
18 22 16 15 16 16 14 16 19 16 11 11 11 12 10 10 9 8 8 11 25 27 29 30 32 35 39 42 44 48 50 54 58 60 58 61 62 57 57 60 67 68 71 76
24 19 14 15 15 16 16 18 19 16 12 11 13 15 13 10 9 8 15 24 30 34 35 34 35 39 43 45 46 48 51 55 60 63 64 60 57 54 47 44 48 68 69 71
18 14 15 15 15 14 19 14 14 14 17 21 13 22 15 13 12 12 31 37 37 36 35 36 38 41 45 47 51 54 56 60 62 65 67 68 70 69 65 60 54 60 66 68
20 16 15 15 15 15 16 13 16 17 20 21 20 22 19 16 17 44 41 39 38 38 40 41 42 45 48 52 57 60 64 64 66 68 70 72 73 74 72 68 61 58 56 63
14 10 13 14 14 13 13 16 17 18 21 33 23 22 21 32 42 45 40 39 42 43 43 44 47 50 54 60 64 68 70 69 71 73 75 76 76 78 82 81 77 70 66 66
18 17 13 13 18 16 16 23 38 39 39 39 21 22 50 44 43 44 47 47 47 48 50 52 54 59 62 65 69 72 74 77 78 78 80 81 81 84 83 85 84 78 71 69
26 30 19 16 19 22 22 21 35 43 46 38 22 27 45 38 41 46 46 48 50 53 56 60 62 65 71 73 75 80 84 86 85 86 86 88 90 90 88 87 89 85 78 70
30 27 14 16 17 18 24 28 18 31 27 40 29 21 44 52 55 53 53 53 58 60 63 66 66 73 78 80 83 84 91 91 92 93 94 96 97 97 96 96 95 93 86 78
26 37 21 19 15 17 22 20 38 33 49 51 30 33 85 87 75 66 64 64 61 64 68 73 78 83 85 89 92 97 97 99 99 99 100 100 100 100 100 100 99 98 94 88
19 24 25 21 23 22 24 31 30 29 34 52 60 68 91 91 85 77 65 60 69 72 77 86 91 90 95 96 100 99 97 99 100 100 100 100 100 100 100 100 100 100 99 92
22 31 45 34 20 16 18 21 25 57 52 36 45 74 71 78 69 62 63 62 61 71 79 94 97 97 98 99 99 99 99 99 99 100 100 100 100 100 100 99 100 100 99 93
26 37 48 34 28 21 21 29 31 34 56 61 72 81 71 65 63 67 72 69 67 76 86 90 94 96 97 97 99 99 99 99 99 99 100 99 100 100 100 100 100 100 100 100
44 44 58 53 51 45 66 80 43 42 58 52 60 92 80 72 71 75 76 75 80 90 92 89 90 94 96 97 99 99 98 99 99 99 99 99 100 100 100 100 100 100 100 99
37 53 59 49 38 31 40 43 38 62 50 70 79 89 82 81 84 90 81 84 85 90 87 91 94 94 91 93 97 99 98 99 99 99 98 99 100 100 100 100 100 100 100 94
38 56 69 74 45 45 54 52 44 60 68 80 82 76 74 82 90 84 88 90 90 91 88 88 83 77 85 84 94 95 98 98 98 98 98 98 99 98 99 100 100 100 100 98
57 78 70 68 49 54 70 76 74 69 61 60 75 74 82 89 87 91 90 90 91 79 75 73 73 76 82 72 81 78 80 92 96 98 99 99 99 98 99 100 99 100 100 100
82 83 64 76 65 82 84 63 56 66 71 83 74 82 81 80 88 91 90 84 75 73 74 75 79 77 82 73 80 77 78 86 89 94 96 98 99 98 99 98 99 99 98 100
74 76 86 85 62 76 73 68 71 82 87 64 70 78 75 75 75 89 70 70 77 81 81 86 84 78 92 91 82 84 88 88 91 89 94 92 95 97 99 100 100 99 98 99
65 72 89 66 92 85 73 54 48 56 87 64 59 63 68 72 92 93 74 68 74 84 86 88 92 90 96 98 90 92 93 94 93 96 86 95 90 93 98 100 100 96 97 100
84 90 89 72 82 79 50 49 46 85 90 62 55 59 66 78 87 86 72 71 72 81 82 85 91 96 95 90 90 93 90 94 94 90 96 82 91 90 90 94 96 95 92 88
69 77 74 68 83 83 46 51 70 80 64 66 80 89 95 92 89 86 83 79 73 74 79 78 86 88 85 82 84 85 92 81 84 85 85 96 86 87 84 82 87 92 92 92
73 70 87 92 87 70 67 78 63 59 74 79 83 81 86 88 87 81 76 66 70 71 68 71 71 75 72 71 76 78 70 76 74 80 78 78 91 85 89 86 84 84 88 92
62 57 65 71 73 71 69 59 59 63 78 72 72 75 75 85 81 79 67 57 55 56 56 53 54 62 63 62 60 66 64 66 70 72 76 74 74 90 84 90 89 91 88 89
67 60 65 83 73 68 69 77 75 75 74 72 70 72 77 74 75 74 72 62 58 56 49 44 44 45 53 58 57 59 63 63 66 67 71 73 74 73 87 94 93 96 90 83
60 87 76 85 70 67 85 85 73 76 76 68 70 68 64 64 64 56 46 34 30 30 30 32 35 39 45 55 63 63 67 69 65 69 68 71 73 73 74 74 79 86 96 89

GFSCGP_925_rhum_123.txt.gz
RH
22 31 36 26 22 19 19 22 22 18 17 17 17 16 13 12 12 14 13 17 36 40 37 40 45 46 46 47 50 53 53 56 59 64 66 67 70 67 61 57 57 76 65 72
25 33 25 21 20 21 25 24 23 19 17 17 17 17 14 13 13 14 20 43 45 43 41 40 44 49 50 54 56 59 60 63 62 64 67 69 69 69 70 64 57 49 69 73
31 25 20 20 22 22 21 21 22 22 18 16 18 19 17 14 13 39 40 41 43 46 48 46 47 52 52 58 62 65 65 67 68 66 66 71 72 72 73 72 73 66 64 66
28 22 22 21 21 19 22 18 19 21 24 32 19 33 22 16 26 46 45 49 51 50 49 48 52 55 59 63 65 67 69 70 68 72 74 75 76 77 75 79 80 80 73 68
31 22 21 22 20 16 22 20 22 22 26 28 24 34 24 19 54 52 50 52 54 53 54 55 58 63 64 68 71 72 73 74 74 74 76 78 78 78 77 77 80 82 80 76
24 15 16 18 16 17 18 20 26 28 30 42 26 30 42 64 57 57 55 54 55 58 61 62 64 67 70 72 74 76 76 79 80 81 80 81 82 81 80 79 82 83 86 84
24 22 17 14 20 18 19 26 60 63 61 51 26 30 70 58 59 58 62 60 57 63 67 68 65 69 73 76 78 82 82 82 83 84 85 86 86 84 84 84 85 85 88 89
35 42 22 19 21 26 28 30 53 64 62 48 27 40 71 57 54 55 56 60 62 68 67 73 76 80 83 84 86 88 92 92 90 93 94 95 95 93 92 90 88 90 89 92
34 33 21 19 19 23 27 35 26 39 37 46 38 58 70 59 65 62 63 65 76 79 79 85 84 86 89 90 93 97 98 97 96 99 100 100 100 100 99 98 97 95 93 91
29 46 25 20 19 21 25 24 54 65 65 61 46 47 87 89 87 82 72 76 80 83 89 88 88 91 93 97 97 99 99 98 99 100 100 100 100 100 100 100 100 99 98 98
22 37 34 27 27 32 32 40 39 47 49 69 77 76 90 93 84 80 69 66 82 89 94 93 93 95 96 98 100 100 100 99 100 100 99 100 100 100 100 100 100 99 99 95
32 44 58 43 29 26 27 31 41 72 53 52 58 76 80 86 79 67 65 65 68 83 94 94 96 94 96 98 99 99 99 100 100 100 100 99 100 100 100 100 100 99 100 100
33 49 72 58 47 44 60 61 66 60 67 64 92 91 88 82 68 66 72 73 75 78 84 89 90 93 96 97 99 99 98 99 99 100 100 99 100 100 100 100 100 100 100 100
50 56 68 62 56 52 57 46 52 75 96 77 83 94 94 74 68 72 78 78 84 85 87 92 90 94 95 97 99 98 98 99 99 99 99 99 100 100 100 100 100 100 100 100
49 64 64 61 51 45 55 50 44 67 60 81 86 95 89 80 84 87 83 82 83 86 89 93 92 92 95 92 93 95 98 98 98 98 98 99 99 99 100 100 100 100 100 100
51 74 80 84 56 56 68 61 56 62 64 86 91 97 78 81 84 90 91 89 89 90 80 82 80 79 84 80 86 84 89 96 97 98 98 98 98 99 99 99 99 100 100 100
67 81 87 87 60 64 81 66 69 63 62 70 88 83 83 90 90 93 91 89 88 81 81 77 78 84 93 92 91 89 89 91 85 94 93 96 98 98 98 99 99 98 99 99
82 82 80 91 82 96 73 66 64 77 71 75 84 85 77 85 92 93 92 82 80 79 82 82 89 90 97 98 92 92 92 89 87 83 94 87 98 100 100 100 100 99 98 97
73 85 89 97 91 70 78 68 74 80 83 70 80 81 81 84 82 94 75 79 89 92 90 94 96 96 94 94 93 93 95 93 94 85 85 86 83 95 100 100 99 100 100 100
72 77 87 92 95 92 94 60 54 57 94 72 76 80 84 81 95 97 80 80 85 87 86 90 91 94 85 81 86 90 90 94 95 98 91 91 80 83 91 99 100 98 93 99
96 94 92 89 93 81 60 55 54 93 84 71 72 75 82 91 96 91 83 84 80 79 77 77 81 82 78 73 72 81 83 81 84 88 93 86 89 83 83 80 85 93 94 88
84 93 96 87 94 91 63 57 77 80 81 75 68 76 90 95 91 90 89 89 84 84 70 66 69 72 61 68 68 70 77 71 79 76 88 82 83 86 76 81 79 79 86 89
83 77 90 90 92 78 71 78 68 77 91 91 88 88 90 92 90 88 86 83 76 71 72 60 61 66 62 59 65 69 67 74 68 76 76 86 83 82 83 88 90 86 84 90
72 61 91 85 90 85 72 67 77 82 89 85 83 84 81 88 87 86 80 75 68 57 61 65 57 60 61 62 64 68 67 70 72 71 76 76 89 89 86 85 91 95 91 88
88 74 86 89 83 75 71 84 85 83 81 82 78 79 82 81 82 80 82 71 58 52 47 44 51 58 64 67 72 72 71 73 79 79 78 84 83 84 92 98 94 94 95 86
85 86 91 93 81 80 91 87 79 82 82 79 80 80 74 75 76 69 70 63 60 53 40 43 49 58 66 73 76 80 72 73 82 92 86 82 89 85 81 78 76 92 97 95

GFSCGP_925_rhum_129.txt.gz
RH
24 31 38 32 28 23 24 27 30 27 22 23 20 22 16 53 60 64 63 63 62 60 56 60 63 65 64 66 67 70 69 68 70 76 73 62 64 68 62 56 55 56 68 61
23 36 29 28 30 31 32 34 36 31 25 21 21 20 65 60 62 63 65 67 66 65 63 61 65 67 69 72 75 77 78 78 76 77 80 80 76 64 67 64 63 55 56 73
29 23 22 28 30 34 35 36 35 30 22 21 21 25 47 59 57 57 62 64 66 69 69 66 66 69 74 78 82 85 86 84 83 83 83 81 78 77 73 69 77 72 67 62
40 32 31 32 34 33 42 25 24 23 26 33 22 40 30 66 69 65 67 74 76 73 69 70 72 75 80 85 91 92 89 87 87 88 90 90 89 88 85 83 81 84 81 77
40 28 30 28 32 27 26 21 21 24 27 30 30 35 48 66 75 74 71 72 75 74 76 78 78 81 85 90 90 85 82 87 90 91 92 93 94 95 96 94 92 89 87 84
33 23 22 26 22 20 20 23 31 38 36 43 32 34 38 78 74 76 72 74 76 78 82 81 83 87 89 87 84 81 91 91 86 89 90 91 92 94 94 94 95 96 94 90
27 25 20 20 24 21 24 31 54 54 59 52 37 40 40 78 72 71 78 81 81 85 85 88 89 83 83 86 85 94 94 88 89 88 89 90 92 96 100 99 98 97 96 94
39 38 24 22 24 28 30 35 52 53 69 47 37 48 58 71 69 72 75 81 82 87 89 90 87 81 86 84 90 100 95 94 96 98 96 95 96 100 100 99 99 99 99 98
42 38 24 20 20 25 30 37 33 41 48 61 48 70 70 72 79 77 78 85 94 91 93 94 84 86 89 92 96 100 99 99 100 100 100 100 100 100 100 100 100 100 99 100
32 41 31 23 21 24 27 29 48 66 61 63 52 48 70 92 88 81 85 94 95 91 93 94 85 94 94 98 99 100 97 100 99 100 100 100 100 100 98 99 99 99 99 100
32 40 37 26 29 34 34 36 41 50 53 61 54 71 75 84 87 86 82 92 96 94 96 97 96 95 96 98 98 97 98 100 100 100 100 100 99 98 98 98 99 100 100 100
29 48 51 37 31 33 30 40 46 71 51 60 60 56 81 87 88 81 78 78 81 91 95 96 94 92 96 98 96 98 99 100 100 100 99 98 98 98 98 98 98 100 100 100
41 49 66 50 44 44 42 57 50 64 76 70 72 69 85 90 83 79 88 84 89 90 93 95 92 93 94 93 95 96 95 100 98 97 97 97 98 98 98 98 99 100 100 100
49 52 60 55 48 54 62 57 61 60 95 73 74 66 96 98 90 88 89 90 95 97 96 89 87 90 93 94 94 94 92 90 92 96 96 97 97 98 98 98 96 98 100 100
47 47 72 60 52 53 57 58 55 71 58 78 55 72 78 89 87 89 89 94 91 91 81 81 85 86 91 90 92 92 92 88 87 92 93 96 96 97 97 97 100 100 100 100
56 70 80 76 55 61 70 65 58 68 63 68 78 63 78 88 89 95 94 92 91 79 74 72 73 77 84 90 92 92 93 92 88 89 87 88 89 98 99 99 100 100 100 100
66 82 84 77 68 69 83 71 73 77 68 62 72 59 94 96 88 94 94 89 87 71 71 73 79 85 91 96 94 93 93 92 87 88 85 82 84 89 93 98 98 100 100 100
80 81 78 88 73 79 56 70 70 74 68 68 79 92 84 87 95 94 89 90 72 65 67 75 89 90 90 86 86 90 89 88 87 88 90 87 86 85 86 91 96 99 100 100
69 86 92 85 81 65 53 76 79 87 78 81 91 88 95 94 88 94 87 77 84 89 92 94 91 87 82 82 83 87 89 81 86 91 94 93 93 92 88 93 96 98 98 100
70 77 76 95 98 95 67 72 60 59 90 86 85 89 91 84 94 95 84 76 84 90 89 86 82 80 78 81 82 85 93 89 85 87 89 89 93 95 92 91 96 96 98 97
90 91 73 82 90 77 59 63 59 80 71 85 82 85 89 90 95 90 83 81 86 85 81 78 75 77 81 76 79 85 90 98 96 88 83 75 80 87 91 90 92 95 96 94
78 91 92 89 94 85 64 68 76 72 83 84 84 84 88 99 94 86 86 88 86 86 76 72 72 75 78 76 74 83 88 88 89 95 97 87 78 86 89 86 85 90 96 96
93 80 88 78 74 74 71 71 71 79 86 85 84 83 93 95 88 81 83 80 83 76 75 71 71 75 77 80 81 80 83 77 76 80 90 98 92 84 89 93 88 90 96 94
88 74 88 77 79 84 77 79 79 79 82 84 82 87 85 89 82 81 81 77 74 79 77 73 76 81 84 81 86 87 75 74 72 74 78 82 93 95 97 89 88 86 90 96
92 89 94 90 84 77 80 82 86 91 89 89 85 82 84 81 79 80 84 82 77 78 76 72 79 83 83 76 83 84 73 66 73 74 74 74 76 73 77 96 85 79 78 81
96 90 90 88 74 74 81 88 90 92 94 89 85 86 78 69 76 75 76 77 79 77 76 74 78 82 85 72 79 81 73 64 69 80 77 76 66 65 63 63 74 85 80 77

GFSCGP_925_rhum_132.txt.gz
RH
27 31 36 30 27 24 24 27 30 28 24 25 28 25 60 63 68 72 72 71 69 67 62 63 65 66 68 73 78 83 83 82 79 81 81 71 72 68 66 66 67 68 53 52
26 35 29 28 30 29 32 34 39 33 28 29 28 26 65 65 68 68 71 74 74 71 67 65 68 71 75 81 83 84 83 84 84 88 90 88 86 76 74 73 71 68 68 60
34 26 27 28 30 35 36 39 37 37 24 22 22 29 67 65 64 62 67 70 72 74 76 73 73 78 83 89 89 88 82 83 84 89 91 93 92 90 89 88 85 80 84 76
37 31 30 32 33 34 41 34 35 32 26 34 24 41 33 72 72 68 70 78 80 79 77 76 80 84 89 89 85 82 84 86 90 87 90 89 90 89 91 97 97 96 90 92
44 30 35 36 36 34 38 23 23 24 27 31 31 37 43 74 77 76 72 74 80 81 83 84 86 89 85 84 83 86 91 88 85 86 86 88 89 88 91 92 92 92 93 98
36 26 24 28 24 20 23 22 31 42 38 48 36 36 40 80 66 77 74 77 80 84 85 84 88 80 81 82 84 94 94 89 90 97 92 86 87 85 84 86 87 93 95 94
35 35 24 23 28 22 25 32 55 56 56 49 38 42 34 69 70 68 75 82 85 85 88 92 85 84 83 88 95 98 95 97 99 97 95 99 100 100 98 96 97 96 93 94
47 37 28 23 26 29 32 37 52 51 62 50 40 51 42 72 69 74 77 83 84 87 91 95 84 90 88 95 96 99 100 97 98 96 98 100 100 100 100 100 100 100 98 97
41 35 25 22 23 26 33 39 34 41 48 64 43 43 72 77 82 85 87 86 91 90 93 95 86 94 96 96 97 100 100 99 99 98 100 100 100 100 100 98 98 100 99 100
33 38 30 24 22 26 28 32 50 67 63 63 54 51 54 90 87 88 90 93 94 89 92 94 94 94 90 94 95 97 100 100 100 100 100 100 100 99 96 96 97 98 99 99
39 38 36 25 30 36 34 38 46 51 54 68 62 71 70 70 81 89 89 91 94 91 98 97 94 86 85 84 90 97 99 100 100 100 98 99 97 97 96 97 97 98 98 98
34 50 54 38 36 37 31 36 47 71 50 59 69 57 86 88 91 83 86 87 94 93 94 96 89 86 85 90 91 99 97 93 97 94 97 97 98 96 97 97 97 97 99 98
42 47 64 52 43 43 38 44 45 65 72 52 75 65 85 90 84 80 90 88 89 89 89 93 87 90 92 95 96 98 96 88 86 93 97 96 95 97 97 97 97 97 98 98
48 50 60 54 49 55 61 58 63 62 79 51 58 58 72 96 89 88 91 94 95 94 92 89 89 89 91 96 96 97 95 80 83 87 94 95 95 96 96 96 96 97 98 99
47 45 68 55 47 50 50 56 60 73 52 69 53 63 49 78 89 86 91 93 93 92 80 81 86 85 87 88 94 92 91 81 83 87 91 90 90 97 99 99 99 98 98 98
56 76 77 70 52 55 66 69 65 61 63 69 69 65 49 66 89 93 93 93 93 84 74 71 71 74 80 86 89 90 89 85 84 86 88 81 81 87 96 100 100 100 100 100
74 88 83 83 63 66 78 76 67 76 68 58 66 54 87 96 89 93 96 89 87 71 68 69 76 84 89 92 91 92 84 82 88 92 88 83 83 86 93 100 100 100 100 100
80 79 73 77 74 81 61 61 64 72 71 69 63 76 86 89 99 95 89 88 74 66 66 72 84 87 87 83 82 78 78 83 86 90 94 83 86 88 89 94 100 100 100 100
69 81 86 82 80 68 52 63 80 87 73 72 81 96 97 94 88 96 85 78 80 87 89 92 89 86 84 84 80 77 79 81 85 89 88 94 91 94 92 96 100 100 100 100
71 78 78 91 93 91 62 67 64 61 84 82 85 89 95 86 98 94 89 81 87 88 88 87 84 83 82 86 84 83 91 87 87 86 72 71 88 86 92 95 99 100 97 97
88 90 76 85 88 79 56 67 59 78 69 87 84 86 90 92 92 91 84 85 88 90 86 81 80 81 84 83 80 91 95 100 91 75 68 67 73 80 83 86 93 98 100 91
80 84 95 79 93 87 67 70 71 69 83 85 86 88 91 100 97 90 88 91 90 92 87 79 82 84 82 80 78 91 97 97 88 80 78 77 73 73 75 83 86 89 91 97
81 74 86 73 75 65 70 64 71 78 81 84 87 87 94 96 93 87 86 83 86 86 80 78 80 86 86 79 79 85 88 78 78 85 94 92 86 76 72 80 91 99 88 96
80 72 85 72 70 74 71 75 75 80 78 83 83 86 86 90 86 82 78 77 80 86 83 81 81 86 92 88 78 81 78 70 68 74 75 78 91 87 84 76 78 90 91 91
89 84 86 89 83 74 78 82 82 86 85 88 88 85 86 82 78 75 78 76 80 84 82 81 84 87 91 92 84 78 76 68 69 65 63 64 61 65 75 86 82 77 78 77
92 90 93 88 75 71 82 88 86 91 93 90 86 89 82 72 69 67 70 71 78 78 83 85 83 81 85 86 86 81 68 66 70 80 67 64 63 64 62 60 68 84 81 78

GFSCGP_925_rhum_138.txt.gz
RH
20 23 20 15 16 16 16 18 17 14 15 21 19 17 15 29 30 33 32 33 35 37 38 42 47 49 52 54 57 56 59 65 63 56 57 54 55 56 56 60 65 71 73 78
26 25 19 19 18 19 20 20 19 18 18 23 19 18 15 28 27 29 31 34 36 37 36 40 44 48 52 54 58 58 59 64 61 60 62 60 60 58 60 62 65 69 72 77
30 26 21 20 20 22 21 21 20 23 20 19 19 17 15 25 30 33 36 35 38 40 40 39 44 48 50 54 58 61 64 63 64 70 62 62 60 56 56 58 63 64 73 77
34 29 32 28 22 20 22 20 22 23 25 21 17 20 14 21 27 34 34 38 38 41 40 41 44 47 51 56 60 64 66 65 66 72 70 71 67 63 63 65 67 72 77 79
29 28 29 30 25 23 26 24 24 22 22 23 20 23 15 21 18 19 29 34 39 43 43 43 48 51 52 57 60 64 67 66 69 72 73 73 71 70 70 70 72 78 76 79
31 23 22 20 23 24 19 22 24 25 24 29 18 20 15 17 16 20 24 32 39 43 43 45 49 51 52 57 62 65 67 66 70 73 74 76 78 76 76 75 78 77 79 82
37 34 23 20 24 22 22 28 32 30 31 25 21 21 16 14 22 27 29 34 42 46 45 44 45 48 54 59 63 66 68 67 71 75 76 78 80 82 84 83 83 86 86 86
44 42 31 26 25 28 30 28 32 31 22 20 24 25 16 27 32 37 39 38 45 47 47 46 50 53 53 58 65 70 68 69 75 79 78 79 84 87 89 88 90 93 95 94
30 26 24 24 26 28 30 32 24 32 25 32 19 14 13 33 33 37 41 46 48 48 47 49 53 56 50 50 59 65 68 73 83 84 82 83 87 93 93 95 97 98 99 99
26 33 23 23 20 24 25 21 34 30 40 33 20 18 28 46 29 33 42 44 46 52 54 57 59 60 50 50 54 66 73 83 88 86 86 90 96 99 99 98 99 98 99 100
24 28 32 24 26 24 28 29 26 28 28 34 36 47 57 86 35 37 34 41 52 57 65 79 77 60 66 70 73 84 91 87 88 87 91 99 100 100 99 99 99 99 99 100
29 31 34 27 26 25 23 23 26 41 34 31 33 57 35 40 52 40 31 38 47 60 64 68 88 90 90 93 93 94 91 86 89 86 96 100 100 100 100 99 98 99 99 99
32 32 39 36 33 28 28 25 26 31 37 41 60 61 40 46 43 35 37 39 48 56 57 58 69 77 88 86 93 94 95 93 95 92 93 96 99 100 100 100 99 98 98 98
40 36 60 36 33 31 39 32 30 35 49 40 49 70 46 33 28 25 31 40 46 54 61 56 52 62 73 86 94 94 95 95 95 96 94 95 96 99 98 96 93 93 97 97
38 48 75 41 33 35 34 33 36 50 36 49 58 46 38 32 30 31 34 42 52 61 62 55 52 58 66 67 72 74 83 94 96 96 95 96 97 97 94 91 87 85 92 94
45 52 64 75 35 36 51 41 37 51 46 54 56 44 28 26 35 39 44 53 59 65 59 53 49 44 48 50 60 61 73 89 88 92 96 96 96 97 93 92 88 91 89 91
53 86 73 60 44 48 64 74 65 46 39 40 43 30 23 32 38 47 53 59 64 62 56 42 37 42 50 51 52 55 65 79 73 85 94 96 96 96 96 92 92 90 91 92
78 96 62 71 58 82 65 35 34 44 34 27 29 29 27 33 56 67 61 63 63 59 49 40 41 48 52 46 47 48 48 53 62 66 78 92 96 96 95 93 91 90 88 90
61 62 70 75 61 43 38 34 41 47 39 29 31 30 44 64 61 71 64 59 63 61 51 57 62 64 55 54 53 50 50 50 54 60 61 65 85 93 93 91 90 88 86 86
55 58 66 63 66 58 39 37 41 45 63 33 39 44 55 61 66 72 67 62 66 74 75 78 71 67 84 75 73 76 70 73 77 80 72 67 69 81 88 89 87 87 85 84
68 71 74 64 77 53 32 39 43 62 48 44 45 48 58 68 66 90 70 69 76 80 84 89 87 88 95 94 85 90 90 92 95 91 89 91 83 86 82 84 84 81 79 79
59 70 72 63 90 67 30 46 50 38 48 48 55 67 100 99 99 100 93 82 73 75 86 91 92 96 99 98 94 92 92 96 96 94 95 96 95 94 91 87 84 82 75 73
54 45 50 47 45 44 41 35 40 43 42 56 55 62 94 96 95 93 87 68 63 73 79 89 93 97 100 98 96 92 99 100 97 93 93 92 94 92 90 86 81 75 75 71
45 38 54 49 42 40 42 38 42 46 49 52 52 60 70 89 88 89 76 57 53 60 71 80 89 94 97 98 95 95 99 96 94 91 91 89 87 89 84 77 76 76 74 72
48 47 49 49 58 44 47 47 43 48 55 60 60 61 70 72 79 78 73 57 51 55 62 66 65 73 86 92 95 95 94 89 80 84 77 70 77 78 80 81 79 75 81 78
54 72 66 65 42 47 48 64 58 62 64 61 63 66 60 62 69 63 58 53 48 49 56 60 62 67 76 77 78 79 79 72 68 67 64 64 64 65 65 67 75 86 85 84